     2.11           OBSERVATION DATA    G (GPS)             RINEX VERSION / TYPE
teqc 2010Oct21 OPUS Account 20111026 20:43:47UTC            PGM / RUN BY / DATE
R 1523                                                      MARKER NAME
1196                                                        MARKER NUMBER
CSMIDDLETON NGS                                             OBSERVER / AGENCY
4624K01583 TRIMBLE NETR5 4.41                               REC # / TYPE / VERS
60154430 TRM41249.00 NONE                                   ANT # / TYPE
  -752258.9499 -5516156.6053  3102092.4665                  APPROX POSITION XYZ
        2.0000        0.0000        0.0000                  ANTENNA: DELTA H/E/N
     1     1                                                WAVELENGTH FACT L1/2
     5    L1    L2    C1    P1    P2                        # / TYPES OF OBSERV
    15                                                      LEAP SECONDS
  2011     8    10    18     4    0.0000000     GPS         TIME OF FIRST OBS
                                                            END OF HEADER
 11  8 10 18  4  0.0000000  0 12G10G13G24G01G08G07G16G28G11G03G19G23
 131709418.01916 102630758.66752  25063469.023                    25063480.938
 110917637.61318  86429349.81656  21106925.023                    21106933.094
 127561855.22616  99398901.59152  24274213.641                    24274227.703
 129580935.28217 100972213.75116  24658432.242                    24658445.168
 116084344.85517  90455365.13555  22090116.297                    22090125.109
 108955925.84918  84900751.34117  20733623.656                    20733630.594
 135139019.25315 105303166.29652  25716100.930                    25716109.426
 121170646.96317  94418719.51854  23058008.398                    23058016.617
 119578139.37317  93177794.96754  22754962.992                    22754971.555
 121971879.76717  95043055.90554  23210477.234                    23210485.609
 112570384.36818  87717204.62056  21421432.305                    21421438.324
 120267323.65617  93714833.46454  22886111.883                    22886120.051
 11  8 10 18  4 30.0000000  0 12G10G13G24G01G08G07G16G28G11G03G19G23
 131767974.348 6 102676386.96642  25074612.281                    25074623.918
 110995422.321 8  86489961.22446  21121726.695                    21121734.430
 127487665.284 6  99341091.45643  24260095.602                    24260109.402
 129561110.300 7 100956765.778 6  24654659.500                    24654672.129
 116012921.766 7  90399710.80445  22076524.859                    22076533.355
 108918468.586 8  84871563.864 7  20726495.758                    20726503.109
 135219394.385 5                  25731395.938
 121126546.327 7  94384355.44044  23049616.141                    23049624.727
 119508190.689 7  93123289.55344  22741651.516                    22741660.430
 122074995.135 7  95123405.45444  23230099.602                    23230108.168
 112624562.713 7  87759421.48946  21431741.852                    21431747.977
 120376861.514 7  93800187.49644  22906955.828                    22906963.840
 11  8 10 18  5  0.0000000  0 12G10G13G24G01G08G07G16G28G11G03G19G23
 131826615.914 6 102722081.60342  25085771.492                    25085783.609
 111073649.065 8  86550917.06746  21136612.797                    21136621.027
 127413430.534 6  99283246.35342  24245968.664                    24245983.598
 129541691.646 7 100941634.387 7  24650964.375                    24650977.344
 115941551.123 7  90344097.32745  22062943.586                    22062952.160
 108881251.443 8  84842563.504 7  20719413.461                    20719420.641
 135299649.18715                  25746666.289
 121082629.631 7  94350134.67844  23041259.258                    23041267.293
 119438480.953 7  93068970.33744  22728386.523                    22728395.738
 122178328.168 7  95203924.63844  23249763.273                    23249772.168
 112679262.458 7  87802044.63846  21442150.867                    21442156.949
 120486575.035 7  93885678.36944  22927833.914                    22927842.719
 11  8 10 18  5 30.0000000  0 11G13G24G01G08G07G16G28G11G03G19G23
 111152315.685 8  86612215.67546  21151582.773                    21151590.832
 127339154.093 6  99225368.77042  24231834.773                    24231849.383
 129522681.430 6 100926821.285 6  24647346.789                    24647359.914
 115870235.010 7  90288526.34745  22049372.508                    22049381.230
 108844276.864 8  84813752.145 7  20712377.664                    20712384.582
 135379784.318 6 105490777.25752  25761916.875                    25761925.410
 121038896.345 7  94316056.83844  23032936.492                    23032944.848
 119369013.322 7  93014839.78044  22715166.953                    22715176.152
 122281875.592 7  95284610.85144  23269467.953                    23269476.418
 112734481.940 8  87845072.78046  21452659.008                    21452665.043
 120596461.658 7  93971304.12244  22948745.086                    22948753.238
 11  8 10 18  6  0.0000000  0 11G13G24G01G08G07G16G28G11G03G19G23
 111231419.099 8  86673854.64646  21166635.539                    21166643.555
 127264838.054 6  99167460.36542  24217692.063                    24217706.461
 129504080.867 7 100912327.376 6  24643807.688                    24643820.223
 115798974.159 7  90232998.42045  22035811.398                    22035820.332
 108807546.139 8  84785130.789 7  20705387.945                    20705395.016
 135459798.485 5 105553125.88442  25777142.984                    25777152.254
 120995345.298 7  94282121.00044  23024648.734                    23024657.633
 119299790.473 7  92960899.96244  22701994.188                    22702003.930
 122385634.537 7  95365461.94343  23289212.188                    23289221.047
 112790218.156 8  87888503.57246  21463264.883                    21463271.535
 120706517.879 7  94057062.03744  22969687.328                    22969696.645
 11  8 10 18  6 30.0000000  0 10G13G24G01G08G07G28G11G03G19G23
 111310957.129 8  86735832.27546  21181771.203                    21181778.996
 127190485.700 6  99109523.59343  24203542.789                    24203557.707
 129485891.571 6 100898153.953 6  24640345.578                    24640358.207
 115727770.508 8  90177515.06345  22022262.406                    22022270.848
 108771061.449 8  84756701.160 7  20698445.055                    20698452.332
 120951976.126 7  94248326.88944  23016396.320                    23016404.695
 119230815.899 7  92907153.57144  22688869.492                    22688878.309
 122489602.395 7  95446475.76744  23308996.789                    23309005.961
 112846469.400 7  87932335.68146  21473969.406                    21473975.359
 120816741.138 7  94142950.10044  22990663.055                    22990671.879
 11  8 10 18  7  0.0000000  0 11G13G24G01G08G07G16G28G11G03G19G23
 111390926.777 8  86798146.22945  21196988.563                    21196997.035
 127116099.561 6  99051560.58843  24189387.828                    24189402.105
 129468115.354 7 100884302.397 6  24636962.352                    24636975.809
 115656625.560 7  90122077.43945  22008723.781                    22008732.063
 108734824.320 8  84728464.432 7  20691549.586                    20691556.328
 135619464.49415                  25807527.695
 120908787.792 7  94214673.67444  23008178.109                    23008185.887
 119162091.966 7  92853602.54344  22675790.727                    22675800.332
 122593776.036 7  95527649.94443  23328820.406                    23328829.570
 112903233.229 7  87976567.20046  21484771.164                    21484777.063
 120927127.881 7  94228965.56844  23011668.352                    23011677.063
 11  8 10 18  7 30.0000000  0 11G13G24G01G08G07G16G28G11G03G19G23
 111471325.497 8  86860794.51846  21212288.438                    21212296.234
 127041682.238 6  98993573.28543  24175227.273                    24175241.406
 129450753.670 6 100870773.866 6  24633659.016                    24633671.852
 115585540.975 7  90066686.85845  21995197.094                    21995205.020
 108698836.415 8  84700421.903 7  20684700.953                    20684708.191
 135699113.55315                  25822684.375
 120865779.462 7  94181160.73344  22999993.797                    23000001.977
 119093621.959 7  92800249.34744  22662761.438                    22662770.277
 122698152.539 7  95608982.21743  23348682.516                    23348691.145
 112960507.319 7  88021196.33946  21495670.266                    21495676.152
 121037675.482 7  94315106.36044  23032706.031                    23032714.457
 11  8 10 18  8  0.0000000  0 11G13G24G01G08G07G16G28G11G03G19G23
 111552150.957 8  86923775.33646  21227668.922                    21227676.961
 126967237.046 7  98935564.23543  24161060.867                    24161074.984
 129433808.441 7 100857569.815 6  24630434.461                    24630446.871
 115514518.526 7  90011344.70745  21981682.055                    21981689.980
 108663099.983 8  84672575.327 7  20677900.563                    20677908.016
 135778643.912 6                  25837818.102
 120822950.633 7  94147787.67245  22991843.727                    22991851.898
 119025409.050 7  92747096.46944  22649780.898                    22649790.113
 122802729.159 7  95690470.43343  23368582.734                    23368591.551
 113018289.499 8  88066221.39446  21506665.555                    21506671.508
 121148381.461 7  94401370.56044  23053772.453                    23053781.188
 11  8 10 18  8 30.0000000  0 10G13G24G01G08G07G28G11G03G19G23
 111633400.681 8  86987086.75745  21243130.406                    21243138.141
 126892766.623 6  98877535.52343  24146888.813                    24146902.828
 129417281.118 7 100844691.388 6  24627288.961                    24627301.574
 115443559.854 7  89956052.23945  21968178.914                    21968186.707
 108627616.938 8  84644926.200 7  20671148.547                    20671155.883
 120780300.587 7  94114553.90744  22983727.703                    22983735.668
 118957456.051 7  92694146.16744  22636849.922                    22636858.598
 122907503.182 7  95772112.45343  23388520.688                    23388529.711
 113076577.832 7  88111640.83746  21517757.844                    21517763.641
 121259242.702 7  94487755.73644  23074868.586                    23074877.336
 11  8 10 18  9  0.0000000  0 10G13G24G01G08G07G28G11G03G19G23
 111715072.117 8  87050726.77546  21258672.172                    21258680.004
 126818274.038 7  98819489.55243  24132714.023                    24132727.766
 129401173.500 6 100832140.004 6  24624223.781                    24624236.969
 115372666.770 7  89900810.88445  21954688.305                    21954696.391
 108592389.093 8  84617475.910 7  20664444.750                    20664451.961
 120737828.433 7  94081458.77044  22975644.914                    22975653.465
 118889766.350 7  92641400.98744  22623968.945                    22623978.629
 123012472.101 6  95853906.33243  23408495.445                    23408505.191
 113135370.162 7  88157453.00546  21528945.172                    21528951.641
 121370256.115 7  94574259.48744  23095993.891                    23096003.078
 11  8 10 18  9 30.0000000  0 10G13G24G01G08G07G28G11G03G19G23
 111797164.358 8  87114694.69845  21274293.742                    21274301.828
 126743763.752 7  98761429.75843  24118534.805                    24118548.551
 129385488.778 7 100819918.136 6  24621239.484                    24621252.406
 115301842.290 8  89845622.99945  21941210.953                    21941218.492
 108557420.228 8  84590227.427 7  20657790.445                    20657797.762
 120695535.383 7  94048503.18544  22967597.422                    22967605.512
 118822344.187 7  92588864.31344  22611138.758                    22611147.578
 123117634.889 7  95935851.24343  23428507.375                    23428516.387
 113194665.770 8  88203657.35546  21540229.133                    21540235.059
 121481420.721 7  94660881.05444  23117148.008                    23117156.691
 11  8 10 18 10  0.0000000  0 10G13G24G01G08G07G28G11G03G19G23
 111879672.532 8  87178986.72045  21289994.492                    21290002.719
 126669236.465 7  98703356.75943  24104352.359                    24104366.320
 129370226.164 7 100808025.222 6  24618335.609                    24618346.906
 115231086.190 7  89790488.38345  21927746.625                    21927754.254
 108522709.579 8  84563180.167 7  20651185.297                    20651192.191
 120653418.213 7  94015684.65444  22959582.648                    22959590.762
 118755190.531 7  92536536.86844  22598359.523                    22598369.082
 123222986.300 7  96017943.15443  23448555.305                    23448564.293
 113254460.053 8  88250250.26246  21551607.578                    21551613.828
 121592731.092 7  94747616.21244  23138329.750                    23138338.582
 11  8 10 18 10 30.0000000  0 10G13G24G01G08G07G28G11G03G19G23
 111962593.113 8  87243600.09946  21305773.742                    21305781.945
 126594694.039 6  98645271.95143  24090166.922                    24090181.258
 129355386.561 6 100796461.894 6  24615511.500                    24615523.570
 115160399.417 8  89735407.79145  21914295.203                    21914303.309
 108488258.404 8  84536335.082 7  20644629.461                    20644636.680
 120611475.360 7  93983001.94444  22951601.086                    22951609.074
 118688307.673 7  92484420.40744  22585632.594                    22585641.250
 123328522.777 7  96100179.28243  23468638.867                    23468647.340
 113314749.829 8  88297229.27346  21563080.797                    21563086.402
 121704183.673 7  94834462.15844  23159539.031                    23159548.000
 11  8 10 18 11  0.0000000  0 10G13G24G01G08G07G28G11G03G19G23
 112045923.961 8  87308533.16845  21321630.648                    21321639.250
 126520139.997 6  98587178.08443  24075979.133                    24075994.316
 129340972.095 7 100785229.899 6  24612768.563                    24612781.199
 115089783.981 8  89680382.78045  21900857.789                    21900865.605
 108454069.100 8  84509694.055 7  20638123.313                    20638130.551
 120569706.478 7  93950454.79644  22943652.805                    22943660.910
 118621699.299 7  92432517.85144  22572957.055                    22572966.121
 123434242.103 6  96182557.90243  23488756.313                    23488764.941
 113375533.582 8  88344593.20746  21574647.258                    21574653.273
 121815776.020 7  94921417.02544  23180775.000                    23180783.129
 11  8 10 18 11 30.0000000  0 10G13G24G01G08G07G28G11G03G19G23
 112129664.123 7  87373785.18045  21337566.133                    21337574.477
 126445578.950 6  98529078.74743  24061791.398                    24061805.422
 129326985.817 6 100774331.575 6  24610106.211                    24610118.227
 115019243.013 8  89625415.80745  21887434.047                    21887442.262
 108420144.993 8  84483259.675 7  20631667.906                    20631675.125
 120528112.682 7  93918044.08544  22935737.422                    22935745.188
 118555369.770 7  92380832.55744  22560335.594                    22560343.781
 123540143.021 6  96265078.01143  23508908.305                    23508918.195
 113436810.653 8  88392341.54346  21586307.750                    21586313.938
 121927506.824 7  95008479.78544  23202035.734                    23202045.496
 11  8 10 18 12  0.0000000  0 10G13G24G01G08G07G28G11G03G19G23
 112213809.352 8  87439352.82745  21353579.023                    21353587.000
 126371012.306 6  98470974.99343  24047601.094                    24047615.758
 129313427.718 6 100763766.891 6  24607527.422                    24607539.234
 114948777.102 8  89570507.32345  21874024.945                    21874032.902
 108386486.599 8  84457032.340 7  20625263.016                    20625270.262
 120486691.790 7  93885768.09944  22927855.344                    22927863.742
 118489320.877 7  92329365.95344  22547766.203                    22547775.066
 123646221.332 7  96347736.38243  23529095.328                    23529103.680
 113498577.061 8  88440471.17746  21598061.648                    21598067.922
 122039371.853 6  95095647.12244  23223323.563                    23223332.523
 11  8 10 18 12 30.0000000  0 10G13G24G01G08G07G28G11G03G19G23
 112298357.321 8  87505234.30145  21369667.414                    21369676.008
 126296442.860 6  98412869.10643  24033410.914                    24033425.125
 129300299.133 6 100753536.884 6  24605028.492                    24605041.047
 114878388.241 8  89515658.86745  21860630.016                    21860638.094
 108353096.096 8  84431013.760 7  20618909.000                    20618916.414
 120445442.933 7  93853626.17144  22920005.906                    22920014.301
 118423555.344 7  92278120.14544  22535251.859                    22535260.363
 123752474.144 7  96430530.70843  23549314.563                    23549323.379
 113560830.446 8  88488980.27646  21609908.164                    21609914.285
 122151368.305 7  95182916.85544  23244635.672                    23244645.070
 11  8 10 18 13  0.0000000  0 10G13G24G01G08G07G28G11G03G19G23
 112383304.855 8  87571427.12945  21385832.898                    21385840.988
 126221873.573 6  98354763.31943  24019221.430                    24019234.750
 129287601.368 6 100743642.555 6  24602611.969                    24602624.160
 114808077.800 8  89460871.51845  21847250.500                    21847258.473
 108319974.890 8  84405205.027 7  20612606.125                    20612613.813
 120404365.150 7  93821617.55344  22912188.742                    22912197.520
 118358076.126 7  92227097.44744  22522791.258                    22522800.301
 123858898.910 6  96513459.01243  23569566.234                    23569575.801
 113623568.227 8  88537866.82546  21621846.836                    21621852.609
 122263492.735 7  95270286.31944  23265972.828                    23265981.426
 11  8 10 18 13 30.0000000  0 10G13G24G01G08G07G28G11G03G19G23
 112468649.435 8  87637929.34045  21402073.422                    21402081.203
 126147307.175 6  98296659.76143  24005030.961                    24005045.402
 129275336.157 6 100734085.252 6  24600278.719                    24600289.793
 114737847.523 8  89406146.64145  21833885.891                    21833893.824
 108287124.955 8  84379607.666 7  20606355.375                    20606362.363
 120363457.540 7  93789741.52744  22904404.516                    22904412.313
 118292886.276 7  92176300.23045  22510386.148                    22510395.066
 123965493.037 7  96596519.32243  23589849.734                    23589859.629
 113686788.326 8  88587129.20346  21633876.969                    21633883.359
 122375742.735 6  95357753.61744  23287333.266                    23287342.246
 11  8 10 18 14  0.0000000  0 10G13G24G01G08G07G28G11G03G19G23
 112554388.513 8  87704738.95845  21418388.844                    21418397.477
 126072746.893 6  98238560.95543  23990842.555                    23990856.941
 129263504.965 6 100724866.171 6  24598027.156                    24598038.520
 114667699.429 8  89351485.79245  21820537.414                    21820545.379
 108254548.502 8  84354223.408 7  20600156.063                    20600163.180
 120322719.729 7  93757997.80644  22896652.375                    22896660.496
 118227988.975 7  92125730.98245  22498036.305                    22498045.340
 124072253.809 6  96679709.43243  23610166.789                    23610174.938
 113750488.409 8  88636765.60246  21645998.633                    21646004.734
 122488115.318 6  95445316.44544  23308716.992                    23308726.762
 11  8 10 18 14 30.0000000  0 10G13G24G01G08G07G28G11G03G19G23
 112640519.032 8  87771853.58145  21434779.188                    21434787.266
 125998195.559 6  98180469.16943  23976656.492                    23976670.367
 129252109.200 6 100715986.386 6  24595857.602                    24595870.340
 114597635.099 8  89296890.22145  21807204.711                    21807212.832
 108222247.050 8  84329053.436 7  20594008.797                    20594016.789
 120282150.723 7  93726385.63745  22888932.609                    22888940.660
 118163387.187 7  92075391.98444  22485742.977                    22485751.969
 124179178.387 6  96763027.27243  23630513.031                    23630522.215
 113814665.948 8  88686774.03945  21658211.305                    21658217.473
 122600607.428 7  95532972.40744  23330123.859                    23330133.152
 11  8 10 18 15  0.0000000  0 10G13G24G01G08G07G28G11G03G19G23
 112727038.978 8  87839271.66545  21451242.992                    21451251.672
 125923656.582 6  98122387.00943  23962471.336                    23962485.621
 129241150.570 6 100707447.207 6  24593772.016                    24593784.855
 114527656.914 8  89242361.77845  21793888.078                    21793896.480
 108190223.227 8  84304099.779 7  20587915.188                    20587922.539
 120241750.083 7  93694904.67744  22881244.344                    22881252.664
 118099084.216 7  92025285.83645  22473506.992                    22473515.094
 124286264.106 6  96846470.61943  23650890.656                    23650900.297
 113879318.860 8  88737152.90546  21670514.563                    21670520.684
 122713216.789 7  95620719.72643  23351553.148                    23351561.945
 11  8 10 18 15 30.0000000  0 10G13G24G01G08G07G28G11G03G19G23
 112813945.073 8  87906990.64245  21467781.297                    21467789.297
 125849132.428 6  98064316.38743  23948289.508                    23948303.465
 129230629.898 6 100699249.288 6  24591771.078                    24591783.371
 114457766.105 8  89187901.40745  21780588.141                    21780596.418
 108158478.311 8  84279363.475 8  20581874.453                    20581881.512
 120201516.763 7  93663554.05745  22873588.445                    22873596.574
 118035082.505 7  91975414.45144  22461327.289                    22461336.145
 124393508.067 7  96930037.25943  23671298.945                    23671308.988
 113944444.620 8  88787900.20846  21682907.555                    21682913.438
 122825940.052 6  95708555.84543  23373003.742                    23373012.578
 11  8 10 18 16  0.0000000  0 10G13G24G01G08G07G28G11G03G19G23
 112901234.632 8  87975008.41645  21484391.688                    21484400.414
 125774625.924 6  98006259.48043  23934111.742                    23934125.121
 129220548.966 6 100691393.993 6  24589852.273                    24589864.258
 114387964.426 8  89133510.49645  21767305.508                    21767313.781
 108127014.128 8  84254845.911 8  20575886.984                    20575894.145
 120161449.822 7  93632333.13045  22865963.781                    22865972.195
 117971384.917 7  91925780.01844  22449206.352                    22449214.590
 124500907.842 6  97013725.31743  23691736.789                    23691746.277
 114010040.339 8  88839013.72645  21695390.164                    21695395.844
 122938774.150 7  95796478.26744  23394475.109                    23394484.563
 11  8 10 18 16 30.0000000  0 10G13G24G01G08G07G28G11G03G19G23
 112988904.969 7  88043322.89445  21501074.867                    21501083.090
 125700140.177 6  97948218.78543  23919937.688                    23919951.371
 129210908.834 6 100683882.199 6  24588017.852                    24588029.734
 114318254.264 8  89079190.90745  21754040.133                    21754048.410
 108095832.776 8  84230548.742 7  20569953.578                    20569960.715
 120121548.648 7  93601241.33145  22858370.414                    22858378.926
 117907994.792 7  91876385.19444  22437143.070                    22437151.973
 124608460.528 6  97097532.48843  23712203.531                    23712213.063
 114076104.006 8  88890491.88146  21707962.000                    21707967.641
 123051716.410 7  95884484.99243  23415967.797                    23415977.609
 11  8 10 18 17  0.0000000  0 10G13G24G01G08G07G28G11G03G19G23
 113076953.386 7  88111931.98445  21517830.195                    21517838.113
 125625678.267 6  97890196.69643  23905767.594                    23905781.891
 129201710.783 6 100676714.855 6  24586267.328                    24586280.027
 114248637.496 8  89024944.08545  21740792.625                    21740800.602
 108064936.186 8  84206473.473 7  20564074.156                    20564081.613
 120081812.459 7  93570278.10845  22850809.117                    22850817.656
 117844914.891 7  91827232.08444  22425139.352                    22425147.992
 124716163.589 6  97181456.88043  23732698.508                    23732708.016
 114142633.127 8  88942332.72146  21720621.555                    21720628.109
 123164764.085 7  95972573.84144  23437480.523                    23437489.570
 11  8 10 18 17 30.0000000  0 10G13G24G01G08G07G28G11G03G19G23
 113165377.206 7  88180833.59845  21534656.758                    21534665.230
 125551243.260 7  97832195.49043  23891603.242                    23891617.027
 129192956.378 6 100669893.229 6  24584601.555                    24584613.754
 114179115.576 8  88970771.17445  21727562.672                    21727570.949
 108034326.225 8  84182621.535 7  20558249.031                    20558256.512
 120042240.284 7  93539442.70745  22843279.023                    22843287.418
 117782148.363 7  91778323.16545  22413195.578                    22413204.582
 124824014.428 6  97265496.44543  23753222.398                    23753231.039
 114209625.186 8  88994534.29646  21733369.844                    21733376.023
 123277914.074 7  96060742.42544  23459011.938                    23459022.273
 11  8 10 18 18  0.0000000  0 10G13G24G01G08G07G28G11G03G19G23
 113254172.975 8  88250025.04745  21551553.898                    21551562.098
 125476837.694 7  97774217.24543  23877443.742                    23877457.633
 129184646.512 6 100663418.023 6  24583020.672                    24583032.324
 114109690.200 8  88916673.49045  21714351.516                    21714360.012
 108004004.350 8  84158994.099 7  20552478.797                    20552486.520
 120002830.996 7  93508734.20745  22835779.313                    22835787.367
 117719697.656 7  91729660.35044  22401311.594                    22401319.805
 124932010.222 6  97349648.90743  23773772.195                    23773782.047
 114277077.272 8  89047094.32845  21746205.445                    21746211.973
 123391163.282 7  96148988.27743  23480562.852                    23480572.676
 11  8 10 18 18 30.0000000  0 10G13G24G01G08G07G28G11G03G19G23
 113343338.489 7  88319504.58645  21568521.438                    21568530.090
 125402465.060 7  97716264.63843  23863292.258                    23863304.672
 129176782.903 6 100657290.534 6  24581523.820                    24581536.129
 114040363.619 8  88862652.80145  21701159.398                    21701167.805
 107973972.978 8  84135593.027 7  20546764.445                    20546771.496
 119963584.418 7  93478152.49845  22828310.672                    22828318.910
 117657566.290 7  91681246.35244  22389488.602                    22389496.605
 125040148.199 6  97433912.19443  23794350.203                    23794360.652
 114344987.391 8  89100011.26546  21759128.609                    21759134.102
 123504509.316 6  96237309.60544  23502131.563                    23502142.633
 11  8 10 18 19  0.0000000  0 10G13G24G01G08G07G28G11G03G19G23
 113432870.590 7  88389269.79845  21585559.063                    21585567.512
 125328128.032 7  97658339.79943  23849145.797                    23849158.559
 129169366.324 6 100651511.383 6  24580113.336                    24580125.176
 113971137.297 8  88808710.21545  21687986.148                    21687993.715
 107944233.833 8  84112419.653 7  20541105.070                    20541112.289
 119924499.484 7  93447696.74345  22820873.289                    22820881.930
 117595756.628 7  91633083.05045  22377726.203                    22377734.781
 125148425.841 6  97518284.33243  23814954.703                    23814965.379
 114413352.550 8  89153282.78346  21772137.680                    21772143.930
 123617948.958 7  96325703.89144  23523718.680                    23523728.707
 11  8 10 18 19 30.0000000  0 10G13G24G01G08G07G28G11G03G19G23
 113522766.508 7  88459318.49045  21602665.547                    21602674.531
 125253829.525 6  97600444.93743  23835006.508                    23835020.773
 129162398.349 7 100646081.791 6  24578786.594                    24578798.574
 113902013.389 8  88754847.44445  21674832.516                    21674840.215
 107914788.389 8  84089475.146 8  20535501.984                    20535508.891
 119885575.094 7  93417366.09645  22813466.258                    22813473.828
 117534271.576 7  91585172.67745  22366025.703                    22366034.453
 125256840.393 6  97602763.09243  23835586.211                    23835596.195
 114482170.352 8  89206907.01346  21785233.328                    21785239.598
 123731479.238 6  96414168.77244  23545323.508                    23545334.098
 11  8 10 18 20  0.0000000  0 10G13G24G01G08G07G28G11G03G19G23
 113613023.504 8  88529648.54845  21619841.273                    21619849.688
 125179572.642 7  97542582.54043  23820875.664                    23820889.746
 129155879.952 6 100641002.506 6  24577546.516                    24577558.414
 113832993.886 7  88701066.02545  21661698.164                    21661705.746
 107885638.749 8  84066761.141 7  20529955.055                    20529962.285
 119846810.747 7  93387160.14445  22806089.523                    22806098.430
 117473114.683 7  91537518.03445  22354388.008                    22354396.414
 125365388.861 6  97687346.24443  23856242.188                    23856252.402
 114551438.599 8  89260882.24145  21798414.633                    21798421.277
 123845097.486 7  96502702.18043  23566944.680                    23566954.637
 11  8 10 18 20 30.0000000  0 10G13G24G01G08G07G28G11G03G19G23
 113703638.663 8  88600257.69745  21637085.000                    21637093.496
 125105360.204 6  97484754.74443  23806753.734                    23806767.367
 129149812.132 6 100636274.327 6  24576391.859                    24576403.797
 113764080.577 8  88647367.34345  21648584.148                    21648592.082
 107856786.835 8  84044279.118 8  20524464.484                    20524471.645
 119808205.406 7  93357078.10145  22798742.969                    22798751.527
 117412288.441 7  91490121.01945  22342813.258                    22342822.168
 125474068.785 6  97772031.83243  23876923.648                    23876933.141
 114621154.922 8  89315206.60645  21811681.414                    21811687.617
 123958800.868 7  96591301.95944  23588581.414                    23588592.336
 11  8 10 18 21  0.0000000  0 10G13G24G01G08G07G28G11G03G19G23
 113794609.453 8  88671143.95345  21654396.031                    21654404.180
 125031195.693 7  97426964.32743  23792640.977                    23792654.434
 129144196.563 7 100631898.572 6  24575323.406                    24575335.426
 113695275.686 8  88593753.15645  21635491.180                    21635499.316
 107828235.011 8  84022030.935 7  20519031.211                    20519038.492
 119769758.564 7  93327119.55645  22791427.227                    22791435.133
 117351795.950 7  91442984.08344  22331301.719                    22331310.254
 125582877.890 6  97856818.11643  23897628.555                    23897638.980
 114691316.366 8  89369877.83545  21825032.633                    21825038.984
 124072586.494 6  96679965.79944  23610235.422                    23610245.039
 11  8 10 18 21 30.0000000  0 10G13G24G01G08G07G28G11G03G19G23
 113885932.325 8  88742304.56645  21671774.141                    21671782.543
 124957081.410 7  97369213.01943  23778537.805                    23778550.512
 129139033.840 6 100627875.670 6  24574340.219                    24574352.754
 113626580.780 8  88540224.66245  21622418.797                    21622426.789
 107799984.458 8  84000017.509 8  20513655.422                    20513662.742
 119731468.794 7  93297283.39945  22784140.695                    22784148.715
 117291639.734 7  91396109.17045  22319854.805                    22319862.766
 125691813.613 6  97941702.96943  23918358.852                    23918368.914
 114761920.106 8  89424893.69646  21838468.453                    21838474.156
 124186451.057 6  96768691.14543  23631902.836                    23631913.625
 11  8 10 18 22  0.0000000  0 10G13G24G01G08G07G28G11G03G19G23
 113977605.112 8  88813737.82645  21689218.766                    21689227.293
 124883020.927 7  97311503.62343  23764444.773                    23764457.688
 129134325.224 6 100624206.622 6  24573444.406                    24573456.367
 113557998.146 8  88486783.66245  21609368.156                    21609376.219
 107772037.583 8  83978240.708 7  20508337.078                    20508344.445
 119693335.697 7  93267569.32945  22776884.531                    22776892.723
 117231822.830 7  91349498.65545  22308471.867                    22308479.633
 125800873.015 6  98026684.20043  23939111.875                    23939122.223
 114832964.066 8  89480252.59146  21851987.273                    21851993.582
 124300392.353 7  96857476.27544  23653585.242                    23653595.258
 11  8 10 18 22 30.0000000  0 10G13G24G01G08G07G28G11G03G19G23
 114069624.360 7  88885441.06745  21706729.570                    21706737.902
 124809017.218 7  97253838.49743  23750361.734                    23750374.723
 129130072.327 7 100620892.672 6  24572635.523                    24572647.258
 113489529.463 8  88433431.45845  21596339.484                    21596347.309
 107744396.040 8  83956701.835 8  20503077.219                    20503084.211
 119655358.347 7  93237976.63545  22769657.203                    22769664.941
 117172348.198 7  91303154.83545  22297154.102                    22297162.184
 125910053.202 6  98111759.60443  23959888.422                    23959898.215
 114904445.216 8  89535952.15046  21865589.945                    21865596.266
 124414407.293 6  96946318.81344  23675281.734                    23675292.074
 11  8 10 18 23  0.0000000  0 10G13G24G01G08G07G28G11G03G19G23
 114161987.547 7  88957412.31345  21724305.836                    21724313.875
 124735072.974 6  97196219.69043  23736290.430                    23736303.352
 129126275.398 7 100617934.049 6  24571912.852                    24571924.547
 113421176.558 8  88380169.46745  21583331.859                    21583339.750
 107717061.476 8  83935402.156 7  20497875.672                    20497882.707
 119617535.817 7  93208504.57445  22762459.805                    22762467.199
 117113218.438 7  91257079.75145  22285901.500                    22285910.078
 126019351.934 6  98196927.35443  23980688.148                    23980698.031
 114976361.113 8  89591990.48646  21879275.086                    21879280.828
 124528492.807 7  97035216.33243  23696991.625                    23697001.844
 11  8 10 18 23 30.0000000  0 10G13G24G01G08G07G28G11G03G19G23
 114254691.759 7  89029649.28145  21741947.039                    21741955.332
 124661191.360 7  97138649.69343  23722231.117                    23722244.238
 129122935.824 6 100615331.753 6  24571277.461                    24571289.461
 113352941.430 8  88326999.24845  21570347.109                    21570355.621
 107690035.577 8  83914342.999 7  20492732.984                    20492740.031
 119579867.147 7  93179152.38844  22755291.750                    22755299.473
 117054436.488 7  91211275.68745  22274716.148                    22274724.441
 126128766.343 6  98282185.26343  24001508.906                    24001518.254
 115048709.045 8  89648365.47345  21893042.258                    21893048.688
 124642645.929 7  97124166.52643  23718715.039                    23718724.820
 11  8 10 18 24  0.0000000  0 10G13G24G01G08G07G28G11G03G19G23
 114347733.731 8  89102149.43445  21759652.094                    21759660.773
 124587375.531 6  97081130.97843  23708184.305                    23708197.418
 129120054.498 7 100613086.571 6  24570729.617                    24570740.637
 113284826.203 8  88273922.45245  21557384.969                    21557393.246
 107663320.462 8  83893525.998 7  20487649.453                    20487656.031
 119542351.552 7  93149919.48745  22748152.406                    22748160.340
 116996005.208 7  91165744.87745  22263596.602                    22263605.332
 126238293.855 6  98367531.29742  24022350.813                    24022359.816
 115121486.640 8  89705075.24945  21906892.023                    21906897.797
 124756864.210 7  97213167.51843  23740449.773                    23740459.930
 11  8 10 18 24 30.0000000  0 10G13G24G01G08G07G28G11G03G19G23
 114441111.015 7  89174910.88345  21777421.250                    21777430.313
 124513628.517 6  97023665.88643  23694150.141                    23694163.473
 129117632.909 6 100611199.577 6  24570268.805                    24570280.164
 113216833.041 8  88220940.78845  21544446.742                    21544454.969
 107636918.262 8  83872952.855 7  20482625.289                    20482632.387
 119504988.642 7  93120805.56444  22741042.453                    22741050.316
 116937927.764 7  91120489.79545  22252544.938                    22252552.918
 126347931.949 5  98452963.57842  24043213.617                    24043223.480
 115194691.122 8  89762117.68645  21920821.742                    21920828.492
 124871144.714 7  97302216.97143  23762196.906                    23762207.949
 11  8 10 18 25  0.0000000  0 10G13G24G01G08G07G28G11G03G19G23
 114534820.623 7  89247931.27245  21795253.625                    21795262.438
 124439953.464 6  96966256.87943  23680130.813                    23680144.082
 129115671.879 7 100609671.523 6  24569895.234                    24569907.129
 113148964.062 8  88168055.88345  21531531.523                    21531539.250
 107610831.045 8  83852625.138 7  20477661.117                    20477668.008
 119467777.188 7  93091809.65345  22733961.555                    22733969.348
 116880206.844 7  91075512.49945  22241561.430                    22241569.746
 126457678.470 6  98538480.27743  24064098.859                    24064108.070
 115268320.261 8  89819490.99945  21934833.141                    21934839.516
 124985484.782 6  97391312.82243  23783955.516                    23783965.867
 11  8 10 18 25 30.0000000  0 10G13G24G01G08G07G28G11G03G19G23
 114628859.169 7  89321207.97745  21813148.680                    21813157.340
 124366352.974 6  96908905.97343  23666125.305                    23666138.434
 129114171.760 6 100608502.595 6  24569610.008                    24569621.707
 113081220.400 8  88115268.63445  21518640.383                    21518648.613
 107585059.678 8  83832543.545 8  20472756.688                    20472763.730
 119430715.959 7  93062930.78945  22726908.727                    22726916.766
 116822844.346 7  91030814.50745  22230644.977                    22230653.617
 126567530.227 6  98624078.99943  24085002.227                    24085012.766
 115342370.436 8  89877192.38645  21948924.406                    21948930.664
 125099881.018 6  97480452.46444  23805724.602                    23805735.652
 11  8 10 18 26  0.0000000  0 10G13G24G01G08G07G28G11G03G19G23
 114723224.329 8  89394739.18245  21831106.156                    21831114.406
 124292830.503 7  96851615.86343  23652134.289                    23652147.578
 129113134.253 6 100607694.181 6  24569411.883                    24569424.469
 113013604.662 8  88062581.06345  21505773.531                    21505781.461
 107559607.059 8  83812710.326 8  20467913.297                    20467920.285
 119393804.651 7  93034168.77245  22719885.016                    22719892.668
 116765844.334 7  90986398.96045  22219798.539                    22219807.176
 126677485.253 6  98709758.18844  24105927.492                    24105936.738
 115416839.712 8  89935220.36445  21963095.680                    21963101.695
 125214330.788 7  97569633.78243  23827504.180                    23827514.137
 11  8 10 18 26 30.0000000  0 10G13G24G01G08G07G28G11G03G19G23
 114817913.026 7  89468522.49645  21849124.516                    21849133.082
 124219388.536 7  96794388.47143  23638158.672                    23638171.137
 129112559.862 6 100607246.588 6  24569302.641                    24569315.457
 112946119.000 8  88009994.84345  21492931.352                    21492939.332
 107534474.156 8  83793126.244 7  20463130.617                    20463137.504
 119357042.117 7  93005522.67544  22712889.461                    22712897.051
 116709208.857 7  90942267.46545  22209020.922                    22209029.000
 126787540.245 6  98795515.26043  24126869.383                    24126879.887
 115491725.318 8  89993572.76045  21977345.555                    21977352.008
 125328831.284 6  97658854.66443  23849292.445                    23849303.395
 11  8 10 18 27  0.0000000  0 10G13G24G01G08G07G28G11G03G19G23
 114912921.966 7  89542555.35645  21867204.469                    21867212.883
 124146030.399 6  96737226.42443  23624198.414                    23624211.855
 129112449.557 7 100607160.637 6  24569281.555                    24569294.059
 112878765.044 8  87957511.25445  21480114.492                    21480122.504
 107509663.082 8  83773792.929 7  20458409.383                    20458416.156
 119320427.488 7  92976991.82545  22705921.969                    22705929.609
 116652940.828 7  90898422.29045  22198313.328                    22198321.906
 126897693.214 6  98881348.60943  24147830.297                    24147841.617
 115567024.451 8  90052247.37345  21991674.680                    21991681.148
 125443379.643 6  97748112.82543  23871090.656                    23871101.652
 11  8 10 18 27 30.0000000  0 10G13G24G01G08G07G28G11G03G19G23
 115008248.467 8  89616835.65045  21885344.898                    21885353.008
 124072759.411 6  96680132.27743  23610255.297                    23610268.906
 129112804.494 7 100607437.191 6  24569349.328                    24569361.102
 112811545.139 8  87905132.11445  21467322.641                    21467330.965
 107485175.998 8  83754712.072 7  20453749.586                    20453756.852
 119283959.792 7  92948575.46245  22698981.844                    22698990.020
 116597043.136 7  90854865.69545  22187676.727                    22187684.785
 127007941.410 6  98967256.19542  24168810.086                    24168820.234
 115642734.531 8  90111242.20045  22006081.844                    22006088.473
 125557973.220 6  97837406.19943  23892896.969                    23892908.152
 11  8 10 18 28  0.0000000  0  9G13G24G01G08G07G28G11G19G23
 115103888.770 7  89691360.49145  21903544.180                    21903552.648
 123999577.902 7  96623107.84743  23596329.867                    23596342.266
 129113624.439 7 100608076.094 6  24569505.695                    24569517.434
 112744460.518 8  87852858.39745  21454556.852                    21454565.160
 107461013.777 8  83735884.358 8  20449151.289                    20449158.563
 119247637.607 7  92920272.50145  22692070.273                    22692078.414
 116541517.585 7  90811599.07945  22177110.172                    22177118.664
 115718852.020 7  90170554.48445  22020566.461                    22020572.863
 125672608.293 6  97926731.90343  23914711.844                    23914722.723
 11  8 10 18 28 30.0000000  0  9G13G24G01G08G07G28G11G19G23
 115199840.486 7  89766127.97745  21921803.344                    21921812.199
 123926489.658 7  96566156.09543  23582421.047                    23582433.914
 129114911.266 7 100609078.783 6  24569750.016                    24569762.543
 112677513.995 8  87800692.29046  21441817.359                    21441825.508
 107437179.211 8  83717311.964 7  20444615.961                    20444623.238
 119211461.058 7  92892083.01045  22685185.695                    22685194.066
 116486368.118 7  90768625.50345  22166615.352                    22166623.824
 115795375.149 8  90230182.85345  22035128.680                    22035134.895
 125787283.042 6  98016088.50043  23936533.867                    23936545.496
 11  8 10 18 29  0.0000000  0  9G13G24G01G08G07G28G11G19G23
 115296100.766 7  89841135.90445  21940121.070                    21940129.961
 123853497.627 7  96509279.33844  23568531.305                    23568544.211
 129116665.724 6 100610445.911 6  24570084.164                    24570095.926
 112610707.864 8  87748635.57645  21429104.914                    21429112.984
 107413673.954 8  83698996.177 8  20440142.797                    20440150.066
 119175428.804 7  92864005.95545  22678329.203                    22678337.113
 116431597.217 7  90725946.92245  22156193.047                    22156201.004
 115872301.168 8  90290125.17845  22049767.219                    22049773.871
 125901994.290 6  98105473.57043  23958362.750                    23958374.770
 11  8 10 18 29 30.0000000  0  9G13G24G01G08G07G28G11G19G23
 115392666.821 7  89916382.08845  21958496.969                    21958505.848
 123780605.077 7  96452480.04444  23554660.219                    23554673.012
 129118888.694 7 100612178.082 6  24570507.336                    24570519.141
 112544044.160 8  87696689.84945  21416418.969                    21416427.227
 107390500.043 8  83680938.581 8  20435733.289                    20435740.582
 119139540.268 7  92836040.89945  22671499.953                    22671508.453
 116377207.639 7  90683565.47345  22145842.891                    22145851.102
 115949627.425 8  90350379.35345  22064482.039                    22064488.102
 126016739.584 7  98194885.10843  23980199.414                    23980210.465
 11  8 10 18 30  0.0000000  0  9G13G24G01G08G07G28G11G19G23
 115489535.545 7  89991864.11845  21976930.781                    21976939.297
 123707814.859 7  96395760.56444  23540808.414                    23540821.602
 129121580.760 7 100614275.798 6  24571020.102                    24571031.684
 112477524.687 8  87644856.50946  21403760.391                    21403768.836
 107367658.823 8  83663140.219 7  20431386.805                    20431394.414
 119103794.516 7  92808187.09245  22664697.750                    22664705.863
 116323201.871 7  90641483.08645  22135566.359                    22135574.641
 116027350.733 8  90410942.92645  22079272.164                    22079278.449
 126131515.782 7  98284320.82543  24002040.242                    24002051.629
 11  8 10 18 30 30.0000000  0  9G13G24G01G08G07G28G11G19G23
 115586703.723 8  90067579.49945  21995421.211                    21995429.762
 123635129.899 7  96339123.08943  23526976.914                    23526989.855
 129124742.487 7 100616739.469 6  24571621.141                    24571633.207
 112411151.297 8  87593136.99746  21391130.305                    21391138.512
 107345152.103 8  83645602.516 8  20427103.844                    20427111.285
 119068190.488 7  92780443.72445  22657922.555                    22657930.484
 116269582.696 7  90599701.95145  22125362.914                    22125371.250
 116105468.688 8  90471814.01945  22094137.680                    22094144.059
 126246320.000 6  98373778.35643  24023886.195                    24023897.941
 11  8 10 18 31  0.0000000  0  9G13G24G01G08G07G28G11G19G23
 115684168.645 7  90143526.10545  22013967.914                    22013976.852
 123562553.638 7  96282570.29943  23513166.117                    23513178.980
 129128375.261 6 100619570.173 6  24572312.656                    24572324.449
 112344926.712 8  87541533.43745  21378528.281                    21378536.520
 107322982.175 8  83628327.235 7  20422885.086                    20422892.137
 119032727.509 7  92752810.26545  22651174.328                    22651182.215
 116216353.196 7  90558224.45945  22115233.344                    22115241.820
 116183978.789 8  90532990.68145  22109077.633                    22109083.727
 126361149.710 6  98463255.70843  24045737.703                    24045749.965
 11  8 10 18 31 30.0000000  0  9G13G24G01G08G07G28G11G19G23
 115781927.319 7  90219701.59245  22032570.852                    22032579.559
 123490089.113 7  96226104.58844  23499376.813                    23499389.477
 129132479.299 6 100622768.115 6  24573092.961                    24573106.020
 112278853.076 8  87490047.49846  21365954.570                    21365962.797
 107301150.986 8  83611315.917 7  20418730.703                    20418737.949
 118997404.760 7  92725286.06945  22644452.789                    22644460.219
 116163516.056 7  90517052.69245  22105178.984                    22105186.938
 116262878.243 8  90594470.73245  22124091.906                    22124097.754
 126476002.259 6  98552750.85743  24067593.773                    24067606.148
 11  8 10 18 32  0.0000000  0  9G13G24G01G08G07G28G11G19G23
 115879976.358 7  90296103.35645  22051229.477                    22051237.738
 123417738.577 7  96169727.69944  23485608.672                    23485621.289
 129137055.399 6 100626333.867 6  24573964.602                    24573976.277
 112212931.639 8  87438680.15246  21353410.063                    21353418.246
 107279659.141 8  83594569.017 8  20414640.883                    20414648.301
 118962220.945 7  92697870.12145  22637757.000                    22637765.195
 116111073.061 7  90476188.05445  22095198.828                    22095207.328
 116342163.705 8  90656251.56845  22139179.289                    22139185.613
 126590874.405 6  98642261.28743  24089454.648                    24089465.871
 11  8 10 18 32 30.0000000  0  9G13G24G01G08G07G28G11G19G23
 115978313.316 7  90372729.46145  22069942.711                    22069950.992
 123345506.000 7  96113442.72743  23471863.359                    23471875.555
 129142104.627 6 100630268.331 6  24574924.984                    24574937.590
 112147165.809 8  87387434.05845  21340895.758                    21340904.063
 107258510.083 8  83578089.226 8  20410616.172                    20410623.777
 118927175.810 7  92670562.26345  22631087.914                    22631096.293
 116059027.950 7  90435633.44445  22085294.938                    22085303.496
 116421833.239 8  90718331.68645  22154339.906                    22154346.191
 126705764.072 6  98731785.36843  24111317.391                    24111328.605
 11  8 10 18 33  0.0000000  0  9G13G24G01G08G07G28G11G19G23
 116076934.917 7  90449577.35945  22088709.820                    22088718.129
 123273394.615 7  96057252.16943  23458140.773                    23458153.434
 129147627.480 6 100634571.819 6  24575976.672                    24575988.574
 112081557.172 8  87336310.44946  21328410.648                    21328418.555
 107237705.050 8  83561877.502 7  20406657.078                    20406664.684
 118892268.100 7  92643361.46545  22624445.508                    22624453.527
 116007382.970 7  90395390.62645  22075467.602                    22075475.648
 116501883.869 7  90780708.75245  22169573.000                    22169579.191
 126820668.203 6  98821320.71343  24133182.586                    24133194.625
 11  8 10 18 33 30.0000000  0 10G17G13G24G01G08G07G28G11G19G23
 129519399.09216 100924261.89915  24646729.750                    24646743.586
 116175838.297 7  90526644.81545  22107529.945                    22107539.336
 123201407.210 7  96001158.24043  23444441.836                    23444453.625
 129153624.554 6 100639244.855 6  24577116.938                    24577129.727
 112016107.639 8  87285310.82646  21315956.508                    21315963.902
 107217245.747 8  83545935.179 8  20402764.383                    20402771.305
 118857497.081 7  92616267.19945  22617828.734                    22617836.672
 115956140.664 7  90355461.58245  22065716.297                    22065724.773
 116582312.688 7  90843380.51945  22184878.039                    22184884.707
 126935583.846 6  98910865.00543  24155050.125                    24155062.172
 11  8 10 18 34  0.0000000  0 10G17G13G24G01G08G07G28G11G19G23
 129414561.407 6 100842570.345 5  24626779.805                    24626793.156
 116275020.129 7  90603929.25645  22126404.320                    22126412.863
 123129546.573 7  95945163.07743  23430766.406                    23430779.176
 129160096.232 6 100644287.725 6  24578348.688                    24578361.434
 111950819.210 8  87234436.73146  21303532.328                    21303539.844
 107197133.807 8  83530263.538 8  20398937.117                    20398943.836
 118822861.695 7  92589278.61245  22611237.875                    22611245.754
 115905303.521 7  90315848.23745  22056042.875                    22056050.445
 116663116.897 7  90906344.79645  22200254.500                    22200260.895
 127050508.135 7  99000416.12343  24176920.266                    24176931.805
 11  8 10 18 34 30.0000000  0 10G17G13G24G01G08G07G28G11G19G23
 129309823.451 6 100760956.375 5  24606848.719                    24606861.156
 116374477.181 8  90681428.15445  22145330.242                    22145338.848
 123057815.785 7  95889269.13144  23417117.430                    23417129.559
 129167042.944 6 100649700.741 6  24579670.781                    24579683.273
 111885694.384 8  87183690.12045  21291139.563                    21291147.336
 107177370.676 8  83514863.700 8  20395175.922                    20395183.277
 118788360.939 8  92562394.94245  22604672.914                    22604680.531
 115854874.162 8  90276552.65745  22046446.320                    22046454.672
 116744293.447 7  90969599.19945  22215702.258                    22215708.434
 127165438.259 6  99089971.69143  24198790.750                    24198802.906
 11  8 10 18 35  0.0000000  0 10G17G13G24G01G08G07G28G11G19G23
 129205187.860 6 100679422.241 5  24586937.594                    24586950.074
 116474206.672 7  90759139.33545  22164307.875                    22164317.309
 122986218.215 7  95833478.94443  23403492.016                    23403504.676
 129174465.840 6 100655484.778 6  24581082.336                    24581096.020
 111820735.476 8  87133072.79346  21278777.617                    21278785.793
 107157958.640 8  83499737.440 8  20391482.391                    20391489.379
 118753994.239 7  92535615.72945  22598132.977                    22598140.504
 115804855.611 7  90237577.19245  22036927.867                    22036935.809
 116825839.806 7  91033141.78345  22231219.969                    22231226.465
 127280371.604 6  99179529.76343  24220662.539                    24220675.008
 11  8 10 18 35 30.0000000  0 10G17G13G24G01G08G07G28G11G19G23
 129100656.638 6 100597969.461 6  24567045.109                    24567058.715
 116574205.768 7  90837060.60845  22183337.375                    22183346.516
 122914756.981 7  95777795.00444  23389893.664                    23389906.344
 129182365.054 6 100661639.981 6  24582586.430                    24582599.164
 111755944.399 8  87082586.24746  21266448.414                    21266456.191
 107138899.418 8  83484886.115 8  20387854.891                    20387862.375
 118719760.675 7  92508940.25145  22591618.156                    22591626.402
 115755250.219 7  90198923.65445  22027488.320                    22027496.512
 116907753.363 7  91096970.47445  22246807.539                    22246813.676
 127395305.354 6  99269088.21443  24242534.648                    24242546.523
 11  8 10 18 36  0.0000000  0 10G17G13G24G01G08G07G28G11G19G23
 128996232.051 6 100516599.854 6  24547173.102                    24547187.598
 116674471.769 7  90915189.84445  22202417.117                    22202426.195
 122843435.609 7  95722220.02243  23376321.320                    23376333.391
 129190741.574 6 100668167.150 6  24584180.016                    24584193.324
 111691323.794 8  87032232.54246  21254151.266                    21254159.480
 107120195.503 8  83470311.607 7  20384295.797                    20384303.418
 118685659.713 7  92482368.10045  22585128.563                    22585136.746
 115706060.987 8  90160594.41445  22018127.773                    22018135.813
 116990031.675 7  91161083.40345  22262464.906                    22262470.977
 127510237.444 6  99358645.37843  24264405.711                    24264417.293
 11  8 10 18 36 30.0000000  0 10G17G13G24G01G08G07G28G11G19G23
 128891915.674 6 100435314.504 6  24527322.070                    24527336.910
 116775000.974 7  90993524.18044  22221547.539                    22221556.801
 122772256.295 7  95666755.74743  23362776.094                    23362788.023
 129199595.539 6 100675066.307 6  24585865.070                    24585878.254
 111626875.054 8  86982012.75246  21241887.523                    21241895.285
 107101847.212 8  83456014.256 8  20380804.430                    20380811.988
 118651689.522 7  92455897.85945  22578664.859                    22578672.984
 115657289.497 8  90122590.67845  22008846.586                    22008855.168
 117072671.263 7  91225477.84845  22278190.383                    22278197.520
 127625164.288 6  99448198.36843  24286275.492                    24286287.484
 11  8 10 18 37  0.0000000  0 10G17G13G24G01G08G07G28G11G19G23
 128787710.001 6 100354115.452 6  24507492.570                    24507507.102
 116875790.878 7  91072061.65845  22240727.422                    22240736.445
 122701222.874 7  95611405.16644  23349258.875                    23349271.008
 129208927.656 6 100682338.124 6  24587640.750                    24587653.395
 111562601.107 8  86931929.16645  21229656.297                    21229664.461
 107083857.327 8  83441996.156 8  20377380.875                    20377388.430
 118617849.779 7  92429529.26245  22572225.055                    22572233.137
 115608938.977 7  90084914.98045  21999646.164                    21999654.145
 117155669.771 7  91290151.95645  22293984.438                    22293990.836
 127740083.842 6  99537745.69043  24308143.969                    24308155.711
 11  8 10 18 37 30.0000000  0 10G17G13G24G01G08G07G28G11G19G23
 128683616.711 6 100273003.942 6  24487685.250                    24487698.828
 116976837.590 7  91150799.24844  22259955.602                    22259965.328
 122630337.874 7  95556170.22244  23335770.109                    23335781.668
 129218737.732 6 100689982.323 6  24589507.820                    24589520.063
 111498503.524 8  86881983.00946  21217458.867                    21217466.965
 107066226.628 8  83428257.946 8  20374026.164                    20374033.434
 118584139.457 7  92403261.52845  22565810.539                    22565818.125
 115561011.620 8  90047569.02445  21990525.781                    21990533.566
 117239023.751 7  91355103.06145  22309846.547                    22309852.781
 127854992.287 6  99627284.43743  24330010.859                    24330023.344
 11  8 10 18 38  0.0000000  0 10G17G13G24G01G08G07G28G11G19G23
 128579638.056 7 100191981.728 6  24467898.336                    24467912.180
 117078138.246 7  91229734.71244  22279232.406                    22279241.625
 122559604.547 7  95501053.46144  23322309.883                    23322321.609
 129229026.771 6 100697999.727 6  24591465.297                    24591478.602
 111434584.927 8  86832176.32446  21205295.773                    21205303.777
 107048957.352 8  83414801.360 8  20370739.891                    20370747.180
 118550557.453 7  92377093.77645  22559419.422                    22559427.840
 115513509.923 7  90010554.74245  21981486.617                    21981494.469
 117322730.830 7  91420329.31645  22325775.680                    22325781.656
 127969887.191 6  99716812.59243  24351874.758                    24351886.965
 11  8 10 18 38 30.0000000  0 10G17G13G24G01G08G07G28G11G19G23
 128475775.845 7 100111050.279 6  24448134.023                    24448147.465
 117179690.304 7  91308866.08544  22298557.523                    22298566.910
 122489026.119 7  95446057.41443  23308878.633                    23308890.988
 129239794.841 6 100706390.375 6  24593514.875                    24593527.441
 111370847.593 8  86782510.87046  21193167.031                    21193175.125
 107032051.401 8  83401627.884 8  20367523.195                    20367530.051
 118517103.247 7  92351025.59645  22553053.742                    22553061.844
 115466436.557 7  89973874.22945  21972528.563                    21972537.188
 117406788.222 7  91485828.55045  22341770.836                    22341777.449
 128084766.511 6  99806328.54943  24373736.000                    24373747.934
 11  8 10 18 39  0.0000000  0 10G17G13G24G01G08G07G28G11G19G23
 128372032.581 6 100030211.544 6  24428391.703                    24428405.367
 117281490.291 7  91388190.63344  22317929.734                    22317938.746
 122418605.531 7  95391184.34743  23295478.484                    23295490.246
 129251042.854 6 100715155.056 6  24595654.641                    24595667.938
 111307293.694 8  86732988.36346  21181072.898                    21181081.191
 107015510.664 8  83388738.992 8  20364375.203                    20364382.762
 118483776.071 7  92325056.39145  22546711.414                    22546719.676
 115419794.126 7  89937529.51245  21963652.813                    21963661.375
 117491193.169 7  91551598.59145  22357832.547                    22357839.164
 128199627.118 6  99895829.99943  24395593.641                    24395605.805
 11  8 10 18 39 30.0000000  0 10G17G13G24G01G08G07G28G11G19G23
 128268410.473 6  99949467.254 6  24408672.531                    24408686.461
 117383535.692 7  91467706.41244  22337348.750                    22337357.367
 122348346.212 7  95336436.98344  23282108.844                    23282120.379
 129262771.377 6 100724294.117 6  24597886.258                    24597899.816
 111243925.659 8  86683610.67046  21169014.406                    21169022.434
 106999336.941 8  83376136.085 8  20361297.234                    20361304.758
 118450574.977 7  92299185.43745  22540393.578                    22540401.191
 115373585.228 7  89901522.59345  21954859.156                    21954867.977
 117575942.903 7  91617637.28745  22373960.273                    22373966.824
 128314466.603 6  99985314.94043  24417447.359                    24417459.980
 11  8 10 18 40  0.0000000  0 10G17G13G24G01G08G07G28G11G19G23
 128164911.097 6  99868818.631 6  24388977.445                    24388991.828
 117485822.816 7  91547410.56144  22356813.094                    22356822.129
 122278250.811 7  95281817.35044  23268769.336                    23268781.426
 129274979.974 6 100733807.265 6  24600210.117                    24600222.824
 111180745.309 8  86634379.23746  21156991.789                    21157000.051
 106983531.292 8  83363819.979 7  20358289.883                    20358297.105
 118417498.636 7  92273411.69445  22534099.172                    22534106.699
 115327811.927 7  89865855.11145  21946148.719                    21946157.285
 117661034.310 7  91683942.25045  22390152.242                    22390159.371
 128429281.817 6 100074780.93043  24439295.594                    24439309.234
 11  8 10 18 40 30.0000000  0 10G17G13G24G01G08G07G28G11G19G23
 128061537.630 6  99788268.126 6  24369306.102                    24369320.328
 117588349.698 7  91627301.53344  22376323.305                    22376332.727
 122208323.867 7  95227328.96144  23255462.836                    23255474.953
 129287670.469 7 100743695.935 6  24602625.453                    24602638.410
 111117756.008 8  86585296.67346  21145005.297                    21145013.484
 106968096.793 8  83351793.089 8  20355352.820                    20355360.215
 118384547.433 7  92247735.45945  22527828.398                    22527836.418
 115282477.680 7  89830529.75745  21937522.367                    21937530.555
 117746465.628 7  91750512.06445  22406409.531                    22406416.066
 128544071.447 6 100164227.06543  24461139.555                    24461152.648
 11  8 10 18 41  0.0000000  0  9G17G13G24G01G08G07G28G11G19
 127958291.532 6  99707816.830 6  24349659.242                    24349672.633
 117691112.624 7  91707376.42544  22395878.469                    22395887.809
 122138567.434 7  95172973.42943  23242188.164                    23242200.133
 129300842.167 6 100753959.537 6  24605132.141                    24605144.805
 111054959.354 8  86536364.21846  21133055.719                    21133063.734
 106953034.374 8  83340056.126 8  20352485.977                    20352493.656
 118351719.717 7  92222155.44745  22521582.328                    22521589.410
 115237584.541 7  89795548.10945  21928979.313                    21928987.691
 117832233.388 7  91817344.05445  22422731.125                    22422737.281
 11  8 10 18 41 30.0000000  0  9G17G13G24G01G08G07G28G11G19
 127855174.422 6  99627465.997 5  24330036.086                    24330049.172
 117794108.651 7  91787632.95144  22415478.422                    22415487.355
 122068984.571 7  95118753.16844  23228947.547                    23228958.773
 129314495.361 6 100764598.363 6  24607729.117                    24607742.820
 110992357.381 8  86487583.47046  21121142.781                    21121150.430
 106938345.606 8  83328610.330 8  20349691.148                    20349698.785
 118319014.340 7  92196670.76345  22515358.086                    22515365.891
 115193134.519 7  89760911.75845  21920521.148                    21920529.102
 117918334.504 7  91884435.79145  22439115.109                    22439121.840
 11  8 10 18 42  0.0000000  0  9G17G13G24G01G08G07G28G11G19
 127752188.082 5  99547217.130 5  24310437.258                    24310451.422
 117897334.287 7  91868068.37644  22435121.336                    22435130.824
 121999578.071 7  95064670.32844  23215739.023                    23215751.289
 129328630.293 6 100775612.576 6  24610419.680                    24610432.785
 110929952.223 8  86438956.08146  21109267.281                    21109275.727
 106924031.836 8  83317456.734 8  20346967.633                    20346974.398
 118286430.470 7  92171280.76345  22509158.000                    22509165.695
 115149129.662 8  89726622.27845  21912147.258                    21912155.344
 118004766.125 7  91951785.07745  22455562.273                    22455569.285
 11  8 10 18 42 30.0000000  0  9G17G13G24G01G08G07G28G11G19
 127649334.980 6  99467072.127 6  24290866.070                    24290879.801
 118000786.514 7  91948680.38344  22454807.586                    22454817.207
 121930351.316 7  95010727.54444  23202565.648                    23202577.762
 129343247.192 6 100787002.328 6  24613201.625                    24613214.449
 110867746.547 8  86390484.13446  21097429.961                    21097437.922
 106910095.308 8  83306597.091 8  20344315.477                    20344322.547
 118253967.342 7  92145984.83845  22502980.516                    22502988.031
 115105572.836 7  89692681.92345  21903858.063                    21903866.848
 118091525.641 7  92019389.86045  22472072.414                    22472079.082
 11  8 10 18 43  0.0000000  0  9G17G13G24G01G08G07G28G11G19
 127546617.249 7  99387032.581 6  24271319.781                    24271332.254
 118104462.279 7  92029466.56844  22474536.789                    22474546.652
 121861307.747 7  94956927.46644  23189427.242                    23189438.559
 129358346.599 6 100798768.057 6  24616074.367                    24616087.805
 110805742.380 8  86342169.20746  21085630.883                    21085638.977
 106896537.875 8  83296032.850 8  20341735.539                    20341742.742
 118221624.201 7  92120782.42745  22496825.430                    22496833.434
 115062466.243 7  89659092.40345  21895655.680                    21895663.348
 118178610.187 7  92087247.92445  22488644.539                    22488650.934
 11  8 10 18 43 30.0000000  0  9G17G13G24G01G08G07G28G11G19
 127444036.386 7  99307099.647 6  24251798.828                    24251811.875
 118208358.096 7  92110424.21744  22494307.570                    22494317.148
 121792449.503 7  94903271.81744  23176323.547                    23176335.176
 129373927.900 6 100810909.304 6  24619040.391                    24619052.980
 110743941.579 8  86294012.74746  21073870.727                    21073878.555
 106883359.945 8  83285764.331 8  20339227.797                    20339234.840
 118189399.332 7  92095672.15845  22490693.555                    22490701.258
 115019811.711 7  89625855.14245  21887538.383                    21887546.949
 118266016.315 7  92155356.55945  22505276.781                    22505283.582
 11  8 10 18 44  0.0000000  0 10G17G26G13G24G01G08G07G28G11G19
 127341594.760 7  99227275.207 6  24232305.000                    24232317.465
 127356520.90616  99238903.17453  24235145.578                    24235155.441
 118312471.066 7  92191551.06444  22514119.453                    22514129.172
 121723779.781 7  94849763.07644  23163256.313                    23163268.078
 129389991.772 6 100823426.583 6  24622096.609                    24622109.777
 110682346.972 8  86246016.95246  21062149.961                    21062157.730
 106870563.730 8  83275793.247 8  20336792.328                    20336799.762
 118157292.154 7  92070653.62245  22484584.008                    22484591.090
 114977611.895 7  89592972.18845  21879508.016                    21879516.098
 118353741.571 7  92223713.85445  22521970.328                    22521977.457
 11  8 10 18 44 30.0000000  0 10G17G26G13G24G01G08G07G28G11G19
 127239294.523 6  99147560.974 6  24212837.023                    24212849.703
 127267884.851 6  99169836.18943  24218278.148                    24218288.648
 118416798.766 7  92272845.25244  22533972.953                    22533982.258
 121655302.583 7  94796404.34244  23150225.336                    23150237.184
 129406538.776 6 100836320.343 6  24625245.336                    24625258.605
 110620961.046 8  86198183.77246  21050468.398                    21050476.426
 106858151.174 8  83266121.114 8  20334430.500                    20334437.840
 118125302.398 7  92045726.56345  22478496.320                    22478503.938
 114935869.786 7  89560445.90945  21871564.891                    21871573.480
 118441783.572 7  92292317.97945  22538724.281                    22538730.570
 11  8 10 18 45  0.0000000  0 10G17G26G13G24G01G08G07G28G11G19
 127137137.780 7  99067958.534 6  24193397.477                    24193409.949
 127179627.359 6  99101064.18143  24201483.469                    24201494.418
 118521338.028 7  92354304.27444  22553866.203                    22553875.438
 121587020.846 7  94743197.92244  23137231.820                    23137243.418
 129423568.968 6 100849590.589 6  24628486.594                    24628498.953
 110559786.259 8  86150515.10446  21038826.883                    21038835.070
 106846124.250 8  83256749.470 8  20332141.875                    20332149.504
 118093429.295 7  92020890.41045  22472430.805                    22472438.535
 114894587.643 7  89528278.02645  21863709.031                    21863717.258
 118530139.361 7  92361166.60745  22555537.352                    22555544.219
 11  8 10 18 45 30.0000000  0 10G17G26G13G24G01G08G07G28G11G19
 127035126.342 7  98988469.310 6  24173984.930                    24173997.574
 127091750.976 6  99032589.14844  24184761.023                    24184771.633
 118626085.404 7  92435925.46544  22573798.867                    22573808.012
 121518937.228 7  94690145.88244  23124275.719                    23124287.684
 129441082.095 6 100863237.132 6  24631818.961                    24631831.949
 110498824.314 8  86103012.29946  21027226.570                    21027234.738
 106834484.250 8  83247679.337 8  20329927.180                    20329934.426
 118061671.314 7  91996143.95445  22466387.602                    22466394.887
 114853767.139 7  89496469.87045  21855941.422                    21855949.824
 118618805.701 7  92430257.22345  22572410.484                    22572417.152
 11  8 10 18 46  0.0000000  0 10G17G26G13G24G01G08G07G28G11G19
 126933261.980 7  98909094.679 6  24154600.805                    24154613.051
 127004258.315 6  98964413.13943  24168112.422                    24168122.539
 118731037.532 7  92517706.21144  22593771.359                    22593780.297
 121451054.822 7  94637250.61343  23111358.398                    23111369.793
 129459078.146 6 100877260.024 6  24635243.422                    24635256.828
 110438077.792 8  86055677.35746  21015666.945                    21015674.785
 106823232.603 8  83238911.801 8  20327785.938                    20327793.355
 118030027.850 7  91971486.74245  22460366.250                    22460373.758
 114813410.486 8  89465023.15345  21848261.617                    21848269.953
 118707780.045 7  92499587.84145  22589341.961                    22589348.254
 11  8 10 18 46 30.0000000  0 10G17G26G13G24G01G08G07G28G11G19
 126831547.051 6  98829836.501 6  24135245.344                    24135257.684
 126917152.142 6  98896538.25543  24151535.891                    24151545.824
 118836191.942 7  92599644.56944  22613780.789                    22613790.449
 121383377.177 6  94584514.88944  23098479.273                    23098490.633
 129477557.663 6 100891659.606 6  24638760.297                    24638772.961
 110377549.204 8  86008512.24146  21004148.688                    21004156.473
 106812371.325 8  83230448.458 8  20325718.984                    20325726.449
 117998498.044 7  91946918.08545  22454366.188                    22454373.770
 114773520.202 7  89433939.84145  21840670.500                    21840678.664
 118797059.431 7  92569156.15345  22606331.445                    22606337.813
 11  8 10 18 47  0.0000000  0 10G17G26G13G24G01G08G07G28G11G19
 126729983.059 6  98750695.972 6  24115917.234                    24115930.668
 126830435.430 6  98828966.88543  24135034.406                    24135044.254
 118941544.993 7  92681737.71344  22633828.984                    22633838.625
 121315907.051 7  94531940.88244  23085639.656                    23085652.215
 129496520.235 6 100906435.614 6  24642369.125                    24642381.148
 110317240.595 8  85961518.52146  20992672.438                    20992680.480
 106801901.613 8  83222290.228 8  20323726.516                    20323734.078
 117967081.015 7  91922437.30945  22448387.602                    22448395.227
 114734098.392 7  89403221.57945  21833169.039                    21833177.230
 118886640.835 7  92638959.80245  22623378.320                    22623384.680
 11  8 10 18 47 30.0000000  0 10G17G26G13G24G01G08G07G28G11G19
 126628572.595 6  98671675.061 6  24096619.688                    24096632.023
 126744110.604 6  98761700.80842  24118607.078                    24118617.848
 119047093.652 7  92763983.26644  22653914.758                    22653924.043
 121248647.640 7  94479531.04944  23072841.188                    23072852.742
 129515966.205 6 100921588.323 6  24646068.852                    24646081.625
 110257154.579 8  85914698.26546  20981237.977                    20981246.332
 106791825.089 8  83214438.373 8  20321809.563                    20321816.766
 117935775.504 7  91898043.41745  22442430.688                    22442438.344
 114695147.465 7  89372870.23345  21825756.906                    21825765.227
 118976521.729 7  92708996.81845  22640481.797                    22640488.281
 11  8 10 18 48  0.0000000  0 10G17G26G13G24G01G08G07G28G11G19
 126527317.343 6  98592775.084 6  24077351.297                    24077363.547
 126658180.968 5  98694742.67242  24102255.086                    24102266.496
 119152835.043 7  92846379.03844  22674036.914                    22674046.496
 121181601.690 6  94427287.55844  23060082.180                    23060093.250
 129535895.581 6 100937117.678 6  24649861.258                    24649874.395
 110197293.052 8  85868052.92346  20969846.914                    20969854.461
 106782143.523 8  83206894.284 8  20319966.969                    20319974.449
 117904580.818 7  91873735.89545  22436494.125                    22436501.773
 114656669.594 7  89342887.51245  21818434.961                    21818442.836
 119066699.038 7  92779264.80545  22657642.406                    22657648.332
 11  8 10 18 48 30.0000000  0 10G17G26G13G24G01G08G07G28G11G19
 126426219.603 6  98513997.808 6  24058113.023                    24058125.602
 126572649.141 6  98628094.64142  24085978.688                    24085989.699
 119258766.137 7  92928922.57244  22694194.898                    22694204.777
 121114772.549 7  94375212.99143  23047365.289                    23047376.105
 129556308.241 6 100953023.614 6  24653746.047                    24653758.645
 110137658.826 8  85821584.70646  20958499.227                    20958507.121
 106772858.447 8  83199659.149 8  20318200.008                    20318207.734
 117873496.327 7  91849514.22845  22430578.742                    22430586.766
 114618666.889 7  89313275.03945  21811203.188                    21811210.844
 119157170.201 7  92849761.78645  22674858.109                    22674864.895
 11  8 10 18 49  0.0000000  0 10G17G26G13G24G01G08G07G28G11G19
 126325281.439 6  98435344.874 6  24038905.555                    24038916.836
 126487517.813 6  98561758.54342  24069778.492                    24069790.008
 119364883.780 7  93011611.50144  22714388.203                    22714398.211
 121048163.386 7  94323309.84044  23034690.266                    23034701.063
 129577204.477 6 100969306.378 6  24657722.234                    24657735.270
 110078254.710 8  85775295.79146  20947194.875                    20947202.320
 106763971.671 8  83192734.367 8  20316509.094                    20316516.344
 117842521.295 7  91825377.86245  22424684.484                    22424691.914
 114581141.594 7  89284034.57145  21804062.211                    21804070.355
 119247932.319 7  92920485.48245  22692129.906                    22692135.902
 11  8 10 18 49 30.0000000  0 10G17G26G13G24G01G08G07G28G11G19
 126224504.130 6  98356817.286 6  24019727.602                    24019739.453
 126402789.629 6  98495736.66643  24053655.625                    24053665.934
 119471184.955 7  93094443.40944  22734617.055                    22734626.785
 120981777.220 7  94271580.43944  23022056.680                    23022067.680
 129598583.905 6 100985965.629 6  24661790.563                    24661803.949
 110019082.254 8  85729187.40346  20935934.414                    20935942.148
 106755484.415 8  83186120.911 8  20314894.070                    20314901.414
 117811654.608 7  91801325.92445  22418810.859                    22418818.719
 114544095.660 7  89255167.62945  21797012.609                    21797020.688
 119338982.532 7  92991433.66145  22709455.406                    22709462.469
 11  8 10 18 50  0.0000000  0 10G17G26G13G24G01G08G07G28G11G19
 126123890.186 6  98278416.989 6  24000580.414                    24000593.754
 126318467.579 6  98430031.25943  24037609.688                    24037620.105
 119577666.575 7  93177415.95544  22754879.641                    22754889.449
 120915617.143 7  94220027.21344  23009467.313                    23009478.160
 129620446.621 7 101003001.484 6  24665951.039                    24665963.816
 109960144.112 8  85683261.58046  20924719.070                    20924726.586
 106747398.448 8  83179820.153 8  20313355.375                    20313362.188
 117780895.410 7  91777357.72245  22412957.555                    22412965.113
 114507531.348 7  89226675.97845  21790054.305                    21790062.535
 119430317.833 7  93062603.96845  22726836.461                    22726842.910
 11  8 10 18 50 30.0000000  0 10G17G26G13G24G01G08G07G28G11G19
 126023441.246 7  98200145.266 6  23981466.461                    23981478.316
 126234554.018 6  98364644.17643  24021640.648                    24021651.773
 119684325.406 7  93260526.56444  22775176.078                    22775186.031
 120849686.343 7  94168652.66344  22996921.188                    22996931.973
 129642792.690 6 101020413.982 6  24670203.734                    24670217.004
 109901442.549 8  85637520.11746  20913548.281                    20913555.750
 106739715.073 8  83173833.098 8  20311893.469                    20311900.863
 117750242.809 7  91753472.59545  22407124.430                    22407132.293
 114471450.866 7  89198561.34545  21783188.828                    21783197.184
 119521935.609 7  93133994.41045  22744270.758                    22744277.801
 11  8 10 18 51  0.0000000  0 10G17G26G13G24G01G08G07G28G11G19
 125923159.473 7  98122003.784 6  23962383.734                    23962394.926
 126151051.632 6  98299577.44743  24005750.352                    24005761.934
 119791158.428 7  93343772.91144  22795506.406                    22795516.063
 120783987.611 7  94117458.93044  22984418.125                    22984430.105
 129665621.573 7 101038202.687 6  24674547.227                    24674560.066
 109842979.597 8  85591964.58546  20902423.336                    20902431.430
 106732435.914 8  83168161.017 8  20310508.125                    20310515.484
 117719695.988 7  91729669.89445  22401311.953                    22401319.785
 114435856.179 7  89170825.24645  21776415.266                    21776423.223
 119613832.763 7  93205602.54445  22761758.281                    22761765.250
 11  8 10 18 51 30.0000000  0 10G17G26G13G24G01G08G07G28G11G19
 125823047.126 7  98043994.283 6  23943332.992                    23943343.742
 126067963.449 6  98234833.47643  23989939.984                    23989951.004
 119898162.859 7  93427152.81044  22815868.258                    22815878.641
 120718524.496 7  94066448.81844  22971961.188                    22971972.762
 129688933.525 7 101056367.804 6  24678983.789                    24678997.051
 109784758.569 8  85546597.56246  20891344.242                    20891351.898
 106725562.821 8  83162805.347 8  20309200.125                    20309207.645
 117689254.158 7  91705949.01145  22395518.711                    22395526.566
 114400749.608 7  89143469.49445  21769734.648                    21769742.797
 119706006.597 7  93277426.27145  22779298.352                    22779305.387
 11  8 10 18 52  0.0000000  0 10G17G26G13G24G01G08G07G28G11G19
 125723106.117 6  97966118.344 6  23924314.430                    23924325.516
 125985292.079 7  98170414.26043  23974208.781                    23974218.789
 120005335.466 7  93510663.75844  22836263.148                    22836273.180
 120653299.746 7  94015624.42844  22959549.258                    22959560.438
 129712728.459 7 101074909.289 6  24683512.023                    24683524.961
 109726781.514 8  85501420.64946  20880311.531                    20880319.914
 106719097.227 8  83157767.218 8  20307969.609                    20307977.219
 117658916.726 7  91682309.47545  22389746.094                    22389753.977
 114366133.245 7  89116495.71645  21763147.383                    21763155.352
 119798454.464 7  93349463.54545  22796890.375                    22796897.086
 11  8 10 18 52 30.0000000  0 10G17G26G13G24G01G08G07G28G11G19
 125623338.159 6  97888377.284 6  23905328.422                    23905340.746
 125903040.051 7  98106321.85743  23958556.313                    23958566.887
 120112672.909 7  93594303.16344  22856688.500                    22856698.992
 120588316.763 7  93964988.42644  22947183.516                    22947194.910
 129737005.922 6 101093826.786 6  24688130.844                    24688144.820
 109669050.880 8  85456435.75146  20869325.906                    20869333.516
 106713040.558 8  83153047.723 8  20306817.414                    20306824.859
 117628682.606 7  91658750.44545  22383992.375                    22384000.121
 114332008.937 7  89089905.36045  21756653.805                    21756661.715
 119891173.598 7  93421712.17345  22814534.469                    22814541.098
 11  8 10 18 53  0.0000000  0 10G17G26G13G24G01G08G07G28G11G19
 125523745.434 6  97810772.780 6  23886376.508                    23886388.801
 125821210.098 7  98042558.31843  23942984.234                    23942994.695
 120220172.120 7  93678068.60644  22877144.906                    22877154.711
 120523578.234 7  93914542.90444  22934863.664                    22934875.125
 129761765.943 6 101113120.319 6  24692843.352                    24692855.750
 109611568.825 8  85411644.55946  20858387.430                    20858395.051
 106707394.073 8  83148647.850 8  20305743.023                    20305749.906
 117598550.872 7  91635271.19245  22378258.500                    22378265.801
 114298378.494 7  89063699.85045  21750253.977                    21750262.207
 119984160.846 7  93494169.72245  22832229.352                    22832236.063
 11  8 10 18 53 30.0000000  0 10G17G26G13G24G01G08G07G28G11G19
 125424329.146 6  97733305.746 6  23867458.336                    23867469.891
 125739805.033 7  97979125.85044  23927494.570                    23927504.254
 120327830.123 7  93761957.79144  22897632.094                    22897642.020
 120459087.143 7  93864290.22344  22922591.594                    22922602.922
 129787007.862 6 101132789.331 6  24697646.492                    24697659.234
 109554337.473 8  85367048.71246  20847496.516                    20847504.492
 106702159.087 8  83144568.634 8  20304746.438                    20304753.648
 117568520.453 7  91611870.87945  22372543.875                    22372551.563
 114265243.838 7  89037880.65945  21743948.828                    21743956.590
 120077413.294 7  93566833.91944  22849974.883                    22849981.445
 11  8 10 18 54  0.0000000  0 10G17G26G13G24G01G08G07G28G11G19
 125325091.762 6  97655978.108 6  23848573.688                    23848585.582
 125658827.296 7  97916026.37043  23912084.578                    23912094.250
 120435643.908 7  93845968.37144  22918148.289                    22918158.535
 120394846.732 7  93814232.83744  22910367.039                    22910378.539
 129812731.818 7 101152833.964 6  24702541.328                    24702553.793
 109497359.652 8  85322650.41446  20836653.602                    20836661.957
 106697337.455 8  83140811.510 8  20303828.906                    20303836.602
 117538590.842 7  91588549.13345  22366848.297                    22366856.398
 114232607.339 7  89012449.63345  21737738.055                    21737746.367
 120170928.451 7  93639702.82844  22867770.500                    22867777.090
 11  8 10 18 54 30.0000000  0 10G17G26G13G24G01G08G07G28G11G19
 125226035.502 6  97578791.636 6  23829723.180                    23829735.910
 125578279.825 7  97853262.10943  23896756.539                    23896766.910
 120543610.629 7  93930098.11744  22938693.555                    22938703.777
 120330860.040 7  93764373.17944  22898190.391                    22898202.047
 129838937.651 6 101173254.079 6  24707528.531                    24707540.875
 109440638.116 8  85278451.82946  20825860.039                    20825867.738
 106692930.806 8  83137377.733 8  20302990.547                    20302997.848
 117508761.021 8  91565305.14445  22361172.070                    22361179.801
 114200471.383 7  88987408.64145  21731622.680                    21731631.105
 120264703.390 7  93712774.17645  22885614.609                    22885621.715
 11  8 10 18 55  0.0000000  0 10G17G26G13G24G01G08G07G28G11G19
 125127162.139 7  97501747.656 6  23810908.031                    23810920.648
 125498164.991 7  97790835.02543  23881510.992                    23881520.996
 120651727.001 7  94014344.45344  22959267.641                    22959278.262
 120267130.196 7  93714713.64444  22886063.828                    22886074.805
 129865625.332 6 101194049.702 6  24712607.586                    24712619.508
 109384175.008 8  85234454.60146  20815115.891                    20815123.543
 106688940.484 8  83134268.382 8  20302231.375                    20302238.449
 117479030.446 7  91542138.50345  22355514.234                    22355521.844
 114168837.178 7  88962758.63445  21725603.141                    21725611.473
 120358735.470 7  93786045.88245  22903508.359                    22903516.145
 11  8 10 18 55 30.0000000  0 10G17G26G13G24G01G08G07G28G11G19
 125028473.249 7  97424847.418 6  23792128.547                    23792140.566
 125418485.625 6  97728747.25843  23866348.266                    23866358.551
 120759990.068 7  94098705.12844  22979869.734                    22979880.375
 120203660.226 7  93665256.61444  22873985.672                    22873996.637
 129892794.219 6 101215220.216 6  24717777.094                    24717790.000
 109327972.824 8  85190660.70246  20804420.688                    20804428.324
 106685367.921 8  83131484.551 8  20301551.133                    20301558.441
 117449398.425 7  91519048.62645  22349875.813                    22349882.922
 114137706.761 7  88938501.18445  21719678.891                    21719687.125
 120453021.712 7  93859515.63645  22921450.672                    22921458.063
 11  8 10 18 56  0.0000000  0 10G17G26G13G24G01G08G07G28G11G19
 124929970.938 7  97348092.581 6  23773384.516                    23773395.977
 125339244.048 6  97667000.62543  23851268.688                    23851279.422
 120868396.365 7  94183177.39444  23000499.219                    23000508.965
 120140453.054 7  93616004.34844  22861956.680                    22861968.480
 129920443.692 6 101236765.225 6  24723038.789                    24723051.332
 109272033.525 8  85147071.64346  20793775.656                    20793783.930
 106682214.413 8  83129027.250 8  20300951.094                    20300958.395
 117419863.269 7  91496034.24045  22344255.219                    22344262.613
 114107082.256 7  88914637.95145  21713851.516                    21713859.262
 120547559.284 7  93933181.24345  22939440.750                    22939447.957
 11  8 10 18 56 30.0000000  0 10G17G26G13G24G01G08G07G28G11G19
 124831657.379 7  97271484.779 6  23754676.234                    23754686.957
 125260442.849 6  97605597.14742  23836273.617                    23836284.250
 120976942.991 7  94267759.00644  23021155.266                    23021165.363
 120077511.617 7  93566959.16044  22849979.727                    22849991.453
 129948573.697 6 101258684.711 6  24728392.047                    24728404.598
 109216359.802 8  85103689.53346  20783181.281                    20783189.234
 106679481.261 8  83126897.505 8  20300430.992                    20300438.359
 117390424.665 7  91473095.09245  22338653.414                    22338660.559
 114076965.314 7  88891170.21445  21708120.219                    21708128.629
 120642345.214 7  94007040.35745  22957478.273                    22957484.820
 11  8 10 18 57  0.0000000  0 10G17G26G13G24G01G08G07G28G11G19
 124733534.272 7  97195025.359 6  23736003.125                    23736014.301
 125182084.872 6  97544539.04042  23821362.789                    23821372.789
 121085627.283 7  94352447.86644  23041836.578                    23041847.043
 120014839.417 7  93518123.77044  22838053.328                    22838064.922
 129977184.052 6 101280978.470 6  24733834.594                    24733848.766
 109160954.297 8  85060516.42446  20772638.070                    20772646.297
 106677170.300 8  83125096.740 8  20299991.344                    20299999.117
 117361082.058 7  91450230.75645  22333069.844                    22333077.285
 114047358.234 7  88868099.77745  21702486.148                    21702494.617
 120737376.980 7  94081091.03745  22975562.273                    22975569.070
 11  8 10 18 57 30.0000000  0 10G17G26G13G24G01G08G07G28G11G19
 124635603.702 7  97118716.017 6  23717367.766                    23717378.688
 125104172.706 6  97483828.34043  23806535.953                    23806546.461
 121194446.079 7  94437241.53843  23062544.297                    23062554.914
 119952439.482 7  93469500.51044  22826179.211                    22826190.793
 130006274.590 6 101303646.361 6  24739371.203                    24739384.836
 109105819.440 8  85017554.20246  20762146.273                    20762154.430
 106675282.992 8  83123626.100 8  20299632.539                    20299639.879
 117331834.489 7  91427440.44945  22327504.156                    22327511.551
 114018262.541 7  88845427.81745  21696949.461                    21696957.566
 120832651.632 7  94155330.98544  22993692.703                    22993699.094
 11  8 10 18 58  0.0000000  0 10G17G26G13G24G01G08G07G28G11G19
 124537867.192 7  97042557.817 6  23698769.102                    23698779.965
 125026708.354 6  97423466.54742  23791795.195                    23791805.180
 121303395.732 7  94522137.19444  23083277.102                    23083288.004
 119890314.162 7  93421091.25244  22814357.211                    22814367.773
 130035844.308 5 101326687.667 6  24744998.313                    24745011.746
 109050957.149 8  84974804.37346  20751706.031                    20751714.359
 106673819.735 8  83122485.885 8  20299354.086                    20299361.293
 117302680.924 7  91404723.39545  22321956.523                    22321964.016
 113989679.670 7  88823155.47645  21691510.406                    21691518.609
 120928166.199 7  94229757.88045  23011868.180                    23011875.066
 11  8 10 18 58 30.0000000  0 10G17G26G13G24G01G08G07G28G11G19
 124440326.992 6  96966552.639 6  23680206.734                    23680218.133
 124949694.985 7  97363456.20043  23777140.508                    23777149.406
 121412473.683 7  94607132.80144  23104034.180                    23104045.023
 119828467.066 7  93372898.77644  22802588.117                    22802598.805
 130065893.036 6 101350102.296 6  24750716.445                    24750729.965
 108996370.683 8  84932269.47846  20741318.734                    20741327.012
 106672782.818 8  83121677.885 8  20299156.578                    20299163.852
 117273620.756 7  91382079.13045  22316426.320                    22316433.832
 113961612.122 7  88801284.67245  21686169.563                    21686177.336
 121023918.182 7  94304369.78045  23030089.125                    23030095.992
 11  8 10 18 59  0.0000000  0 10G17G26G13G24G01G08G07G28G11G19
 124342984.588 7  96890701.595 6  23661683.000                    23661694.668
 124873134.864 7  97303798.99243  23762570.586                    23762581.086
 121521676.809 7  94692225.97344  23124814.750                    23124825.414
 119766900.960 7  93324925.26944  22790872.367                    22790883.266
 130096420.538 6 101373889.933 6  24756526.102                    24756538.816
 108942062.052 8  84889951.07746  20730984.016                    20730992.414
 106672173.525 8  83121203.105 8  20299040.930                    20299048.273
 117244653.236 7  91359507.06245  22310913.867                    22310921.457
 113934061.423 7  88779816.60645  21680926.797                    21680934.801
 121119904.853 7  94379164.55745  23048354.742                    23048361.555
 11  8 10 18 59 30.0000000  0 10G17G26G13G24G01G08G07G28G11G19
 124245842.121 7  96815006.336 6  23643197.414                    23643208.789
 124797030.766 7  97244497.14443  23748089.063                    23748099.223
 121631002.428 7  94777414.56644  23145618.953                    23145629.688
 119705618.963 7  93277173.13344  22779210.867                    22779221.805
 130127426.158 6 101398050.147 6  24762426.398                    24762438.684
 108888033.950 8  84847851.26846  20720703.078                    20720710.832
 106671993.070 8  83121062.470 7  20299006.172                    20299013.688
 117215777.432 7  91337006.46145  22305418.883                    22305426.297
 113907029.192 7  88758752.54345  21675782.781                    21675790.914
 121216123.097 7  94454139.75744  23066664.508                    23066671.469
 11  8 10 19  0  0.0000000  0 10G17G26G13G24G01G08G07G28G11G19
 124148901.371 6  96739468.247 6  23624750.203                    23624761.602
 124721384.686 7  97185552.17743  23733694.000                    23733703.641
 121740446.736 7  94862695.65944  23166445.719                    23166456.863
 119644623.753 7  93229644.48944  22767603.734                    22767614.797
 130158909.369 6 101422582.478 6  24768417.672                    24768430.445
 108834288.507 8  84805971.70746  20710475.352                    20710483.355
 106672242.580 7  83121256.887 8  20299053.281                    20299061.355
 117186992.158 7  91314576.39345  22299941.656                    22299948.664
 113880517.298 7  88738093.93445  21670737.453                    21670745.746
 121312570.318 7  94529293.39145  23085018.484                    23085025.012
 11  8 10 19  0 30.0000000  0 10G17G26G13G24G01G08G07G28G11G19
 124052163.985 7  96664088.634 6  23606341.977                    23606353.492
 124646199.215 7  97126966.16243  23719386.359                    23719396.383
 121850006.729 7  94948066.89944  23187294.453                    23187305.109
 119583918.526 7  93182341.78544  22756052.305                    22756062.785
 130190869.380 6 101447486.342 6  24774498.570                    24774512.703
 108780827.747 8  84764313.98146  20700302.227                    20700309.730
 106672923.146 8  83121787.185 8  20299183.344                    20299190.668
 117158296.442 8  91292216.12345  22294480.719                    22294488.379
 113854526.938 7  88717841.73245  21665791.898                    21665800.043
 121409243.465 7  94604623.05444  23103414.078                    23103420.754
 11  8 10 19  1  0.0000000  0 10G17G26G13G24G01G08G07G28G11G19
 123955632.260 7  96588869.292 6  23587972.391                    23587983.914
 124571477.133 7  97068741.20043  23705167.680                    23705177.441
 121959679.972 7  95033526.35744  23208164.859                    23208175.371
 119523506.251 7  93135267.35744  22744555.672                    22744566.707
 130223306.223 6 101472761.740 6  24780672.109                    24780684.703
 108727654.798 8  84722880.52246  20690183.672                    20690191.680
 106674036.736 8  83122654.895 8  20299394.945                    20299402.676
 117129690.372 7  91269925.70045  22289036.750                    22289044.582
 113829060.643 7  88697997.87545  21660945.852                    21660953.738
 121506139.844 7  94680126.68044  23121852.805                    23121859.848
 11  8 10 19  1 30.0000000  0 10G17G26G13G24G01G08G07G28G11G19
 123859308.166 7  96513811.733 6  23569642.734                    23569653.629
 124497220.739 7  97010879.11943  23691037.094                    23691047.035
 122069463.152 7  95119071.48344  23229055.680                    23229066.617
 119463389.987 7  93088423.58644  22733116.328                    22733126.895
 130256219.172 6 101498408.151 6  24786934.805                    24786947.852
 108674771.997 8  84681673.14846  20680120.336                    20680128.563
 106675584.545 8  83123860.970 8  20299689.563                    20299697.262
 117101173.113 7  91247704.48745  22283610.328                    22283617.809
 113804119.744 8  88678563.42945  21656199.586                    21656207.500
 121603256.842 7  94755802.21744  23140334.344                    23140341.172
 11  8 10 19  2  0.0000000  0 10G17G26G13G24G01G08G07G28G11G19
 123763193.193 7  96438917.116 6  23551352.461                    23551364.059
 124423432.661 7  96953381.93344  23676995.719                    23677006.285
 122179353.427 7  95204700.07943  23249967.180                    23249978.137
 119403572.918 7  93041812.96644  22721733.023                    22721744.238
 130289607.823 6 101524425.204 6  24793289.008                    24793301.605
 108622182.066 8  84640693.99546  20670113.313                    20670121.492
 106677568.335 8  83125406.764 8  20300067.227                    20300074.715
 117072743.517 8  91225551.57545  22278200.047                    22278207.461
 113779706.186 8  88659539.88445  21651554.055                    21651561.793
 121700592.054 7  94831647.78545  23158856.555                    23158863.035
 11  8 10 19  2 30.0000000  0 10G17G26G13G24G01G08G07G28G11G19
 123667288.979 7  96364186.721 6  23533102.422                    23533113.816
 124350114.927 7  96896251.27244  23663043.742                    23663053.781
 122289347.400 7  95290409.48043  23270898.422                    23270909.609
 119344057.473 7  92995437.37144  22710407.547                    22710418.348
 130323471.093 6 101550812.074 7  24799733.586                    24799746.105
 108569886.976 8  84599944.57846  20660161.383                    20660169.324
 106679988.212 8  83127292.368 8  20300527.813                    20300535.254
 117044400.570 7  91203466.16845  22272806.867                    22272814.430
 113755820.806 7  88640927.91645  21647008.430                    21647016.758
 121798142.145 7  94907660.80244  23177419.398                    23177425.844
 11  8 10 19  3  0.0000000  0 10G17G26G13G24G01G08G07G28G11G19
 123571597.641 7  96289622.206 6  23514892.625                    23514903.668
 124277270.433 7  96839489.37244  23649181.852                    23649191.730
 122399442.155 7  95376197.36843  23291849.180                    23291860.258
 119284847.231 7  92949299.58244  22699139.891                    22699151.270
 130357809.015 6 101577568.844 6  24806267.828                    24806279.770
 108517889.623 8  84559427.17046  20650266.914                    20650274.410
 106682846.159 8  83129519.326 8  20301071.609                    20301079.152
 117016143.708 7  91181447.85445  22267430.055                    22267437.660
 113732465.777 7  88622729.21145  21642563.992                    21642571.953
 121895904.517 7  94983839.21944  23196023.055                    23196030.348
 11  8 10 19  3 30.0000000  0 10G17G26G13G24G01G08G07G28G11G19
 123476120.721 7  96215224.770 6  23496723.734                    23496734.855
 124204900.989 7  96783097.61943  23635410.625                    23635420.383
 122509634.432 7  95462061.29643  23312818.055                    23312828.633
 119225944.556 7  92903401.46344  22687931.242                    22687942.258
 130392620.225 6 101604694.422 6  24812891.703                    24812904.059
 108466191.904 8  84519143.23946  20640428.750                    20640436.875
 106686142.590 8  83132087.956 8  20301699.008                    20301706.313
 116987971.874 7  91159495.80445  22262069.117                    22262076.477
 113709642.326 7  88604944.72845  21638220.758                    21638228.938
 121993876.061 7  95060180.64645  23214666.172                    23214673.348
 11  8 10 19  4  0.0000000  0 10G17G26G13G24G01G08G07G28G11G19
 123380860.552 7  96140996.218 6  23478596.016                    23478607.453
 124133009.287 6  96727078.18443  23621729.617                    23621740.070
 122619921.422 7  95547999.00844  23333805.578                    23333816.152
 119167352.718 7  92857745.53044  22676781.992                    22676792.926
 130427904.686 7 101632188.770 6  24819605.906                    24819618.961
 108414796.878 8  84479095.17046  20630649.133                    20630657.117
 106689879.711 8  83134999.986 8  20302410.164                    20302417.406
 116959885.056 7  91137609.99245  22256724.266                    22256731.691
 113687352.789 8  88587576.28645  21633979.727                    21633987.465
 122092054.658 7  95136683.40044  23233348.289                    23233356.461
 11  8 10 19  4 30.0000000  0 10G17G26G13G24G01G08G07G28G11G19
 123285818.760 7  96066937.864 6  23460510.359                    23460521.121
 124061597.637 6  96671432.77243  23608140.234                    23608150.516
 122730300.238 7  95634008.25743  23354810.328                    23354821.215
 119109074.675 7  92812334.13344  22665691.977                    22665702.609
 130463661.362 6 101660051.087 6  24826410.688                    24826423.535
 108363706.668 8  84439284.62146  20620926.563                    20620934.703
 106694058.270 8  83138255.993 8  20303205.109                    20303212.441
 116931881.843 7  91115789.31845  22251395.203                    22251402.500
 113665598.046 8  88570624.56245  21629839.508                    21629847.570
 122190437.099 7  95213344.97144  23252071.070                    23252077.652
 11  8 10 19  5  0.0000000  0 10G17G26G13G24G01G08G07G28G11G19
 123190996.735 7  95993050.754 6  23442465.961                    23442477.258
 123990668.665 6  96616163.51243  23594643.078                    23594653.574
 122840767.752 7  95720086.63243  23375831.227                    23375842.945
 119051113.344 7  92767169.50844  22654661.984                    22654672.484
 130499890.311 6 101688281.424 6  24833304.125                    24833317.582
 108312923.913 8  84399713.65546  20611262.891                    20611270.789
 106698679.900 8  83141857.251 8  20304084.547                    20304092.098
 116903961.840 8  91094033.48645  22246082.313                    22246089.602
 113644379.967 8  88554091.02245  21625801.961                    21625809.980
 122289021.115 7  95290163.63944  23270830.570                    23270837.563
 11  8 10 19  5 30.0000000  0 10G17G26G13G24G01G08G07G28G11G19
 123096396.757 6  95919336.635 6  23424464.250                    23424474.730
 123920224.559 6  96561272.06343  23581237.836                    23581247.926
 122951320.781 7  95806231.63743  23396868.688                    23396880.656
 118993471.608 7  92722253.92144  22643692.891                    22643703.871
 130536590.340 6 101716878.834 6  24840288.391                    24840300.961
 108262450.938 8  84360384.06746  20601658.203                    20601666.297
 106703745.508 8  83145804.453 8  20305048.656                    20305056.094
 116876124.077 7  91072341.74245  22240784.625                    22240792.738
 113623699.685 8  88537976.54045  21621866.336                    21621874.332
 122387803.389 7  95367136.77944  23289628.313                    23289635.438
 11  8 10 19  6  0.0000000  0 10G17G26G13G24G01G08G07G28G11G19
 123002020.425 7  95845796.778 6  23406504.695                    23406515.699
 123850267.663 6  96506760.27243  23567925.344                    23567935.875
 123061956.671 7  95892441.20243  23417922.273                    23417933.691
 118936152.411 7  92677589.66344  22632785.539                    22632796.375
 130573760.716 6 101745842.738 6  24847361.898                    24847374.332
 108212290.555 8  84321298.05846  20592113.148                    20592121.117
 106709256.493 8  83150098.716 8  20306097.445                    20306104.781
 116848367.849 8  91050713.54345  22235502.469                    22235510.551
 113603558.866 8  88522282.43945  21618033.914                    21618041.645
 122486781.592 7  95444262.63544  23308462.820                    23308470.648
 11  8 10 19  6 30.0000000  0 10G17G26G13G24G01G08G07G28G11G19
 122907869.720 7  95772432.741 6  23388588.555                    23388599.387
 123780800.345 7  96452629.97743  23554706.250                    23554716.094
 123172672.685 7  95978713.19144  23438991.477                    23439002.855
 118879158.758 7  92633179.08644  22621939.828                    22621950.977
 130611401.029 6 101775172.888 6  24854524.453                    24854536.750
 108162445.392 8  84282457.67946  20582627.773                    20582635.797
 106715213.805 8  83154740.756 8  20307230.844                    20307238.324
 116820692.576 8  91029148.40245  22230236.344                    22230243.801
 113583959.129 8  88507009.94345  21614304.102                    21614312.133
 122585952.764 7  95521538.80844  23327335.227                    23327342.250
 11  8 10 19  7  0.0000000  0 10G17G26G13G24G01G08G07G28G11G19
 122813946.029 7  95699245.585 6  23370715.883                    23370726.309
 123711824.640 7  96398882.72443  23541580.859                    23541590.703
 123283465.044 7  96065044.66143  23460074.805                    23460086.012
 118822493.296 7  92589024.22844  22611156.945                    22611167.863
 130649509.908 6 101804868.123 6  24861776.656                    24861789.082
 108112917.308 8  84243864.36646  20573203.047                    20573211.164
 106721618.348 8  83159731.293 8  20308449.953                    20308457.395
 116793096.890 7  91007645.28845  22224985.430                    22224992.426
 113564901.467 8  88492159.85545  21610677.625                    21610685.273
 122685314.297 6  95598963.31744  23346243.258                    23346250.082
 11  8 10 19  7 30.0000000  0 10G17G26G13G24G01G08G07G28G11G19
 122720251.476 7  95626236.976 6  23352885.719                    23352896.852
 123643342.798 7  96345520.30243  23528549.180                    23528558.594
 123394330.907 7  96151433.41243  23481171.766                    23481183.117
 118766158.846 7  92545127.29744  22600436.844                    22600447.176
 130688086.680 6 101834927.955 6  24869116.617                    24869129.574
 108063708.948 8  84205520.19346  20563839.203                    20563846.961
 106728471.244 8  83165071.203 8  20309753.852                    20309761.430
 116765580.365 7  90986203.86445  22219749.125                    22219756.391
 113546387.470 8  88477733.39445  21607154.492                    21607162.480
 122784863.344 7  95676533.97144  23365186.695                    23365193.285
 11  8 10 19  8  0.0000000  0 10G17G26G13G24G01G08G07G28G11G19
 122626787.775 7  95553408.272 6  23335099.914                    23335110.898
 123575357.397 7  96292544.74043  23515611.813                    23515621.547
 123505267.573 7  96237877.32943  23502282.523                    23502294.500
 118710158.536 7  92501490.73944  22589780.109                    22589791.234
 130727130.757 6 101865351.909 5  24876545.945                    24876559.586
 108014822.706 8  84167427.01946  20554536.313                    20554544.047
 106735774.124 8  83170761.741 8  20311143.625                    20311150.977
 116738142.477 7  90964823.72145  22214527.297                    22214534.832
 113528418.683 8  88463731.76945  21603735.273                    21603743.008
 122884597.220 6  95754248.64244  23384164.750                    23384172.113
 11  8 10 19  8 30.0000000  0 10G17G26G13G24G01G08G07G28G11G19
 122533556.104 7  95480760.356 7  23317358.984                    23317370.145
 123507870.219 7  96239957.37543  23502768.695                    23502779.355
 123616272.257 6  96324374.23043  23523406.438                    23523417.539
 118654495.087 7  92458116.68944  22579187.391                    22579198.543
 130766641.209 6 101896139.288 6  24884064.844                    24884078.391
 107966260.925 8  84129586.68046  20545295.250                    20545303.465
 106743527.446 8  83176803.281 8  20312618.977                    20312626.422
 116710781.980 8  90943503.87545  22209320.695                    22209328.387
 113510996.197 8  88450155.85245  21600419.523                    21600427.340
 122984513.093 6  95832105.11344  23403178.727                    23403185.137
 11  8 10 19  9  0.0000000  0 10G17G26G13G24G01G08G07G28G11G19
 122440558.507 7  95408294.820 7  23299661.805                    23299673.023
 123440883.885 7  96187760.25244  23490022.578                    23490031.871
 123727341.163 7  96410921.18243  23544541.875                    23544553.938
 118599171.545 7  92415007.47944  22568659.852                    22568670.527
 130806617.132 6 101927289.370 5  24891671.602                    24891684.523
 107918026.195 8  84092001.17846  20536116.359                    20536123.945
 106751732.520 8  83183196.831 8  20314180.430                    20314187.980
 116683498.647 8  90922244.15245  22204128.914                    22204136.918
 113494121.265 8  88437006.58645  21597208.133                    21597216.234
 123084608.323 6  95910101.34644  23422226.164                    23422232.406
 11  8 10 19  9 30.0000000  0 10G17G26G13G24G01G08G07G28G11G19
 122347797.104 7  95336013.329 7  23282009.883                    23282020.680
 123374400.356 7  96135954.94343  23477371.000                    23477380.313
 123838471.961 7  96497516.37543  23565689.516                    23565701.500
 118544190.882 7  92372165.44444  22558197.172                    22558208.309
 130847057.914 6 101958801.691 5  24899367.297                    24899379.707
 107870121.104 8  84054672.54646  20527000.539                    20527008.223
 106760390.911 8  83189943.621 8  20315828.195                    20315835.633
 116656291.587 8  90901043.87045  22198951.914                    22198959.363
 113477795.590 8  88424285.32645  21594101.656                    21594109.199
 123184880.347 6  95988235.33444  23441307.180                    23441314.457
 11  8 10 19 10  0.0000000  0 10G17G26G13G24G01G08G07G28G11G19
 122255273.485 7  95263917.152 6  23264402.367                    23264413.797
 123308421.934 7  96084543.21543  23464815.891                    23464824.363
 123949661.813 7  96584157.55243  23586848.563                    23586860.395
 118489555.797 7  92329592.70244  22547800.883                    22547811.672
 130887962.883 6 101990675.662 6  24907151.742                    24907164.270
 107822548.441 8  84017602.94446  20517947.578                    20517955.332
 106769503.458 8  83197044.289 8  20317561.914                    20317569.672
 116629160.010 8  90879902.40245  22193788.953                    22193796.250
 113462020.443 8  88411993.03745  21591099.789                    21591107.648
 123285326.581 6  96066505.08344  23460422.016                    23460428.359
 11  8 10 19 10 30.0000000  0 10G17G26G13G24G01G08G07G28G11G19
 122162989.409 7  95192007.599 6  23246842.281                    23246852.008
 123242951.005 7  96033526.91343  23452357.289                    23452365.887
 124060907.295 7  96670842.10443  23608018.633                    23608030.309
 118435268.992 7  92287291.33644  22537470.094                    22537481.086
 130929330.847 6 102022910.473 6  24915024.352                    24915036.215
 107775310.320 8  83980794.02446  20508958.500                    20508966.539
 106779071.008 8  83204499.509 8  20319382.805                    20319389.969
 116602103.413 8  90858819.35045  22188639.969                    22188647.215
 113446797.006 8  88400130.64645  21588203.141                    21588210.855
 123385943.718 7  96144908.00444  23479568.969                    23479575.371
 11  8 10 19 11  0.0000000  0 10G17G26G13G24G01G08G07G28G11G19
 122070946.204 7  95120285.769 6  23229326.406                    23229336.684
 123177989.407 7  95982907.52543  23439994.703                    23440004.719
 124172205.665 7  96757567.85243  23629198.375                    23629209.254
 118381333.275 7  92245263.56044  22527206.391                    22527217.309
 130971160.642 6 102055505.092 6  24922984.711                    24922996.961
 107728408.929 8  83944247.48646  20500033.469                    20500041.605
 106789094.533 8  83212310.033 8  20321290.273                    20321297.359
 116575120.970 8  90837794.07945  22183505.391                    22183513.250
 113432126.204 8  88388698.88745  21585410.969                    21585418.988
 123486729.616 7  96223442.44444  23498747.469                    23498754.242
 11  8 10 19 11 30.0000000  0 10G17G26G13G24G01G08G07G28G11G19
 121979145.418 7  95048752.824 6  23211856.805                    23211867.910
 123113538.927 7  95932686.39744  23427730.250                    23427740.246
 124283553.742 7  96844332.31643  23650386.938                    23650398.371
 118327751.313 7  92203511.44544  22517010.133                    22517020.832
 131013451.332 6 102088458.878 6  24931031.664                    24931045.016
 107681846.935 8  83907965.41546  20491173.258                    20491181.039
 106799574.691 8  83220476.368 8  20323284.523                    20323292.371
 116548211.684 8  90816825.82545  22178384.813                    22178392.473
 113418009.267 7  88377698.70145  21582724.758                    21582732.777
 123587681.706 6  96302106.35444  23517957.750                    23517965.047
 11  8 10 19 12  0.0000000  0 10G17G26G13G24G01G08G07G28G11G19
 121887589.333 7  94977410.549 6  23194433.367                    23194445.203
 123049602.366 7  95882865.73943  23415563.430                    23415573.082
 124394948.662 7  96931133.32443  23671584.805                    23671596.664
 118274526.193 7  92162037.37044  22506881.883                    22506892.469
 131056202.389 6 102121771.419 6  24939167.055                    24939179.945
 107635626.926 8  83871949.82446  20482377.516                    20482385.414
 106810513.181 8  83228999.864 8  20325365.914                    20325373.711
 116521375.156 8  90795914.26645  22173278.172                    22173285.492
 113404447.529 8  88367131.14545  21580143.938                    21580151.816
 123688797.040 7  96380897.47344  23537199.508                    23537207.090
 11  8 10 19 12 30.0000000  0 10G17G26G13G24G01G08G07G28G11G19
 121796279.483 7  94906260.155 6  23177058.578                    23177069.301
 122986181.464 6  95833446.90243  23403494.570                    23403504.488
 124506387.664 7  97017968.62243  23692791.078                    23692803.027
 118221660.752 7  92120843.57844  22496821.828                    22496832.316
 131099412.616 7 102155441.728 6  24947390.109                    24947402.672
 107589751.185 8  83836202.50146  20473647.648                    20473655.543
 106821910.969 8  83237881.235 8  20327535.133                    20327542.156
 116494610.794 8  90775058.93045  22168185.203                    22168192.250
 113391442.204 8  88356997.16345  21577669.094                    21577677.012
 123790073.114 7  96459813.85244  23556471.742                    23556478.668
 11  8 10 19 13  0.0000000  0 10G17G26G13G24G01G08G07G28G11G19
 121705217.228 7  94835302.681 6  23159729.789                    23159740.578
 122923278.562 6  95784431.72743  23391524.688                    23391534.609
 124617867.285 7  97104835.57243  23714005.117                    23714017.512
 118169157.672 7  92079932.15344  22486830.430                    22486841.250
 131143081.084 7 102189469.077 6  24955700.695                    24955712.789
 107544222.373 8  83800725.50946  20464984.000                    20464992.074
 106833768.442 8  83247120.810 8  20329791.383                    20329798.797
 116467917.505 8  90754258.98145  22163105.539                    22163113.242
 113378994.423 8  88347297.61245  21575299.891                    21575308.223
 123891506.987 6  96538853.18344  23575774.500                    23575781.168
 11  8 10 19 13 30.0000000  0 10G17G26G13G24G01G08G07G28G11G19
 121614404.517 7  94764539.626 6  23142448.703                    23142459.305
 122860895.351 6  95735821.48344  23379653.563                    23379663.652
 124729384.949 7  97191732.15243  23735226.844                    23735238.086
 118117019.540 7  92039305.10644  22476909.133                    22476919.910
 131187206.667 7 102223852.656 7  24964096.500                    24964110.301
 107499042.748 8  83765520.61046  20456386.563                    20456394.555
 106846086.822 8  83256719.529 8  20332135.813                    20332143.160
 116441294.781 8  90733514.02145  22158039.320                    22158046.855
 113367105.439 8  88338033.49145  21573038.148                    21573046.344
 123993096.082 7  96618013.48944  23595105.961                    23595112.855
 11  8 10 19 14  0.0000000  0 10G17G26G13G24G01G08G07G28G11G19
 121523843.068 7  94693972.386 6  23125215.500                    23125225.941
 122799033.991 6  95687617.90143  23367881.016                    23367891.598
 124840937.783 7  97278656.15543  23756454.820                    23756467.148
 118065249.394 7  91998964.77745  22467057.594                    22467068.297
 131231788.698 7 102258591.917 6  24972579.602                    24972593.191
 107454215.003 8  83730589.91146  20447856.445                    20447864.320
 106858867.202 8  83266678.256 8  20334567.547                    20334574.754
 116414742.078 8  90712823.62045  22152986.461                    22152993.906
 113355776.249 8  88329205.57645  21570882.141                    21570890.012
 124094838.042 6  96697292.88144  23614467.102                    23614473.938
 11  8 10 19 14 30.0000000  0 10G17G26G13G24G01G08G07G28G11G19
 121433534.387 7  94623602.132 6  23108030.148                    23108040.570
 122737696.580 6  95639822.54943  23356209.188                    23356219.461
 124952523.034 6  97365605.40843  23777688.766                    23777700.719
 118013849.810 7  91958913.20145  22457276.586                    22457287.137
 131276825.763 6 102293685.695 6  24981149.930                    24981163.488
 107409741.360 8  83695935.13046  20439392.938                    20439400.816
 106872110.217 8  83276997.474 8  20337087.711                    20337095.180
 116388258.212 8  90692186.86045  22147946.789                    22147954.234
 113345007.499 8  88320814.37045  21568832.492                    21568840.910
 124196729.819 6  96776689.00844  23633856.055                    23633863.234
 11  8 10 19 15  0.0000000  0 10G17G26G13G24G01G08G07G28G11G19
 121343479.973 7  94553429.960 6  23090893.586                    23090903.551
 122676885.063 6  95592437.02243  23344637.289                    23344647.734
 125064137.550 6  97452577.41743  23798928.313                    23798941.043
 117962823.676 7  91919152.64044  22447566.602                    22447577.414
 131322317.003 6 102329133.411 6  24989806.766                    24989820.160
 107365624.266 8  83661558.17646  20430997.570                    20431005.539
 106885817.060 8  83287678.120 8  20339696.031                    20339703.633
 116361843.213 8  90671603.76445  22142920.078                    22142927.324
 113334800.673 8  88312861.01545  21566890.500                    21566898.117
 124298769.006 6  96856200.01544  23653273.398                    23653280.738
 11  8 10 19 15 30.0000000  0 10G17G26G13G24G01G08G07G28G11G19
 121253681.444 7  94483457.204 6  23073805.477                    23073815.285
 122616601.442 7  95545462.82944  23333165.453                    23333176.082
 125175778.176 7  97539569.78143  23820173.000                    23820185.914
 117912173.697 7  91879685.16245  22437928.516                    22437938.805
 131368261.135 6 102364934.025 6  24998549.328                    24998562.410
 107321866.245 8  83627461.02446  20422670.695                    20422678.844
 106899988.342 8  83298720.658 8  20342392.813                    20342400.035
 116335496.087 8  90651073.54945  22137906.242                    22137913.871
 113325156.789 7  88305346.32945  21565054.969                    21565063.055
 124400952.953 6  96935823.81844  23672718.891                    23672725.762
 11  8 10 19 16  0.0000000  0  9G17G26G13G24G08G07G28G11G19
 121164140.879 7  94413685.458 6  23056766.281                    23056776.066
 122556847.966 7  95498901.72944  23321795.063                    23321804.809
 125287442.553 7  97626580.67843  23841422.422                    23841435.016
 117861902.629 7  91840512.97344  22428361.742                    22428372.594
 107278470.553 8  83593646.19646  20414413.023                    20414421.086
 106914625.605 8  83310126.313 8  20345177.813                    20345185.566
 116309216.426 8  90630595.90245  22132905.336                    22132912.777
 113316076.959 8  88298271.13945  21563327.508                    21563335.250
 124503279.652 6  97015558.85844  23692190.164                    23692197.516
 11  8 10 19 16 30.0000000  0  9G17G26G13G24G08G07G28G11G19
 121074859.809 7  94344115.907 7  23039776.398                    23039786.574
 122497626.094 6  95452754.83643  23310525.313                    23310535.324
 125399127.530 6  97713607.60743  23862675.672                    23862688.523
 117812013.134 7  91801638.08544  22418868.289                    22418878.473
 107235438.758 8  83560114.92746  20406224.336                    20406232.305
 106929729.053 8  83321895.213 8  20348051.852                    20348059.422
 116283003.380 8  90610170.16945  22127917.219                    22127924.828
 113307561.875 8  88291636.03345  21561707.148                    21561714.969
 124605745.913 6  97095402.65844  23711689.695                    23711696.742
 11  8 10 19 17  0.0000000  0  9G17G26G13G24G08G07G28G11G19
 120985839.305 7  94274749.387 7  23022836.180                    23022846.703
 122438937.778 7  95407023.74244  23299357.414                    23299367.125
 125510829.492 7  97800647.76643  23883932.016                    23883944.633
 117762507.645 7  91763062.42844  22409447.719                    22409458.250
 107192772.720 8  83526868.66746  20398105.414                    20398113.168
 106945299.304 8  83334027.857 8  20351015.180                    20351022.398
 116256855.907 8  90589795.53245  22122941.711                    22122949.121
 113299612.242 8  88285441.53745  21560194.148                    21560202.250
 124708348.655 7  97175352.80744  23731213.859                    23731222.043
 11  8 10 19 17 30.0000000  0  9G17G26G13G24G08G07G28G11G19
 120897081.501 7  94205587.593 6  23005946.242                    23005956.203
 122380785.040 7  95361709.95644  23288291.148                    23288301.469
 125622545.950 6  97887699.25143  23905191.578                    23905203.973
 117713389.221 7  91724788.40044  22400100.242                    22400110.965
 107150475.402 8  83493909.72046  20390056.031                    20390064.133
 106961337.536 8  83346525.167 8  20354066.922                    20354074.801
 116230773.821 8  90569471.85445  22117978.578                    22117985.363
 113292229.314 8  88279688.61345  21558789.250                    21558797.109
 124811085.597 6  97255407.50344  23750763.906                    23750771.945
 11  8 10 19 18  0.0000000  0  9G17G26G13G24G08G07G28G11G19
 120808587.484 7  94136631.339 6  22989106.063                    22989116.371
 122323169.646 7  95316814.87043  23277327.219                    23277336.801
 125734274.269 6  97974759.90943  23926452.516                    23926465.992
 117664660.047 7  91686817.66944  22390827.633                    22390837.902
 107108549.099 8  83461239.88546  20382077.875                    20382085.809
 106977844.164 8  83359387.457 8  20357208.203                    20357215.625
 116204756.044 8  90549198.28045  22113027.375                    22113034.383
 113285413.664 8  88274377.72845  21557492.367                    21557499.898
 124913954.209 7  97335564.80344  23770339.594                    23770347.059
 11  8 10 19 18 30.0000000  0  9G17G26G13G24G08G07G28G11G19
 120720359.131 7  94067882.082 6  22972317.219                    22972326.816
 122266093.599 7  95272340.07443  23266466.102                    23266476.043
 125846011.754 6  98061827.76543  23947715.648                    23947729.039
 117616323.398 7  91649152.79945  22381629.227                    22381639.906
 107066996.625 8  83428861.33746  20374170.859                    20374178.953
 106994820.389 8  83372615.667 7  20360438.539                    20360446.246
 116178802.187 8  90528974.51845  22108088.766                    22108095.938
 113279166.377 8  88269509.73845  21556303.508                    21556311.578
 125016951.912 7  97415822.69044  23789939.594                    23789947.020
 11  8 10 19 19  0.0000000  0  9G17G26G13G24G08G07G28G11G19
 120632398.111 7  93999341.121 6  22955578.305                    22955588.297
 122209558.798 7  95228287.01843  23255707.836                    23255717.637
 125957755.267 6  98148900.29343  23968980.117                    23968993.691
 117568381.925 7  91611795.86244  22372506.508                    22372516.703
 107025820.489 8  83396776.03846  20366335.203                    20366343.051
 107012267.233 8  83386210.589 8  20363759.172                    20363766.484
 116152911.906 8  90508800.30645  22103161.766                    22103169.574
 113273488.465 8  88265085.40045  21555222.789                    21555230.496
 125120076.224 7  97496179.26444  23809564.023                    23809570.430
 11  8 10 19 19 30.0000000  0  9G17G26G13G24G08G07G28G11G19
 120544705.760 7  93931009.542 6  22938890.938                    22938901.324
 122153566.826 7  95184656.92643  23245052.977                    23245061.688
 126069501.789 6  98235975.19743  23990245.406                    23990258.215
 117520837.483 7  91574748.31244  22363459.086                    22363469.395
 106985022.536 8  83364985.43346  20358571.820                    20358580.012
 107030184.815 8  83400172.308 7  20367168.445                    20367176.086
 116127083.919 8  90488674.61945  22098247.008                    22098254.098
 113268380.290 8  88261105.01245  21554250.977                    21554258.668
 125223324.600 7  97576632.50144  23829211.078                    23829217.875
 11  8 10 19 20  0.0000000  0  9G17G26G13G24G08G07G28G11G19
 120457283.870 7  93862888.707 6  22922254.781                    22922264.922
 122098119.600 7  95141451.33443  23234501.750                    23234510.984
 126181248.580 6  98323050.30943  24011510.172                    24011522.863
 117473693.189 7  91538012.55745  22354487.883                    22354497.781
 106944605.634 8  83333491.73846  20350880.898                    20350888.617
 107048574.221 8  83414501.691 8  20370667.477                    20370674.957
 116101318.362 8  90468597.58445  22093343.625                    22093351.000
 113263842.902 8  88257569.39945  21553387.242                    21553395.441
 125326694.550 7  97657180.46744  23848882.109                    23848889.137
 11  8 10 19 20 30.0000000  0  9G17G26G13G24G08G07G28G11G19
 120370133.776 7  93794979.653 6  22905670.445                    22905680.555
 122043219.105 7  95098671.77443  23224055.055                    23224063.828
 126292992.977 6  98410123.51143  24032774.703                    24032787.605
 117426951.764 7  91501590.70744  22345592.836                    22345603.305
 106904572.011 8  83302296.70846  20343262.273                    20343270.656
 107067436.317 8  83429199.408 8  20374257.102                    20374264.664
 116075614.525 8  90448568.63245  22088452.594                    22088459.609
 113259877.231 8  88254479.27145  21552633.008                    21552640.234
 125430183.423 7  97737821.09044  23868575.203                    23868582.660
 11  8 10 19 21  0.0000000  0  9G17G26G13G24G08G07G28G11G19
 120283256.973 7  93727283.532 6  22889138.906                    22889148.262
 121988866.836 7  95056319.38043  23213711.430                    23213721.691
 126404731.901 6  98497192.45543  24054038.242                    24054050.969
 117380615.305 7  91465484.41444  22336775.500                    22336785.715
 106864923.921 8  83271402.10046  20335717.594                    20335725.504
 107086771.313 8  83444265.629 8  20377936.195                    20377943.902
 116049971.323 8  90428586.93345  22083573.086                    22083580.109
 113256483.801 8  88251835.06145  21551987.180                    21551995.008
 125533788.440 7  97818552.21344  23888290.586                    23888298.211
 11  8 10 19 21 30.0000000  0  9G17G26G13G24G08G07G28G11G19
 120196655.392 7  93659801.893 6  22872658.938                    22872668.723
 121935064.721 6  95014395.66444  23203473.508                    23203482.570
 126516462.778 6  98584255.12743  24075299.219                    24075312.992
 117334687.090 7  91429696.23944  22328035.008                    22328046.023
 106825664.304 8  83240810.18246  20328246.922                    20328254.633
 107106580.685 8  83459701.475 7  20381705.820                    20381713.563
 116024388.569 8  90408652.33945  22078704.328                    22078712.063
 113253663.749 7  88249637.62645  21551450.578                    21551458.410
 125637507.581 7  97899372.27044  23908027.227                    23908034.906
 11  8 10 19 22  0.0000000  0  9G17G26G13G24G08G07G28G11G19
 120110330.040 7  93592535.466 6  22856231.656                    22856240.922
 121881814.321 7  94972901.90143  23193340.352                    23193350.004
 126628182.180 6  98671308.82943  24096560.438                    24096573.270
 117289169.126 7  91394227.75544  22319373.398                    22319384.309
 106786794.731 8  83210522.20546  20320850.313                    20320858.031
 107126864.188 8  83475506.776 8  20385565.953                    20385573.254
 115998865.045 7  90388763.90045  22073847.398                    22073854.766
 113251417.040 8  88247886.96045  21551023.031                    21551030.676
 125741337.831 7  97980278.94744  23927785.695                    23927792.930
 11  8 10 19 22 30.0000000  0  9G17G26G13G24G08G07G28G11G19
 120024282.510 7  93525485.567 6  22839857.539                    22839866.816
 121829117.411 7  94931839.37844  23183312.477                    23183321.910
 126739887.881 6  98758351.86643  24117817.609                    24117830.832
 117244064.221 7  91359081.13145  22310790.289                    22310801.023
 106748318.456 8  83180540.69246  20313528.383                    20313536.406
 107147623.005 8  83491682.458 8  20389516.156                    20389523.949
 115973400.819 8  90368921.66745  22069001.727                    22069009.273
 113249744.708 8  88246583.85945  21550704.680                    21550712.648
 125845277.010 7  98061270.44044  23947565.398                    23947572.039
 11  8 10 19 23  0.0000000  0  9G17G26G13G24G08G07G28G11G19
 119938514.152 7  93458653.182 6  22823536.453                    22823545.352
 121776975.396 7  94891209.26543  23173389.984                    23173400.184
 126851576.459 6  98845381.58843  24139071.656                    24139085.242
 117199374.676 7  91324258.16945  22302286.484                    22302296.855
 106710236.881 8  83150866.72746  20306281.586                    20306289.746
 107168857.628 8  83508228.899 7  20393557.094                    20393564.535
 115947994.978 8  90349124.91745  22064167.289                    22064174.219
 113248647.364 8  88245728.81145  21550495.711                    21550503.660
 125949322.453 6  98142344.75144  23967364.102                    23967371.766
 11  8 10 19 23 30.0000000  0  9G17G26G13G24G08G07G28G11G19
 119853027.068 7  93392039.962 6  22807268.117                    22807277.742
 121725389.964 7  94851012.88344  23163573.516                    23163582.797
 126963245.487 6  98932396.01243  24160321.633                    24160335.340
 117155103.360 7  91289761.09344  22293861.625                    22293872.176
 106672553.001 8  83121502.66546  20299110.539                    20299118.813
 107190568.884 8  83525146.717 8  20397688.406                    20397696.145
 115922647.475 8  90329373.62945  22059343.742                    22059351.008
 113248125.867 8  88245322.46745  21550396.391                    21550404.660
 126053471.744 6  98223499.99243  23987182.969                    23987190.586
 11  8 10 19 24  0.0000000  0  9G17G26G13G24G08G07G28G11G19
 119767822.093 7  93325646.570 6  22791054.102                    22791063.902
 121674362.917 7  94811251.58344  23153863.125                    23153872.676
 127074892.057 6  99019392.98243  24181566.688                    24181580.520
 117111252.487 7  91255591.64745  22285517.023                    22285527.477
 106635269.174 8  83092450.34246  20292015.711                    20292023.527
 107212756.607 8  83542435.827 7  20401910.695                    20401918.613
 115897357.121 8  90309666.86545  22054531.086                    22054538.816
 113248180.338 7  88245364.92145  21550407.117                    21550414.703
 126157722.084 6  98304733.93044  24007021.250                    24007028.859
 11  8 10 19 24 30.0000000  0  9G17G26G13G24G08G07G28G11G19
 119682901.003 7  93259474.403 7  22774894.539                    22774904.227
 121623895.782 7  94771926.58544  23144259.852                    23144269.730
 127186513.566 6  99106370.38543  24202807.563                    24202822.074
 117067824.639 7  91221751.84644  22277252.891                    22277263.496
 106598387.652 8  83063711.49046  20284997.344                    20285005.563
 107235421.989 8  83560097.146 8  20406224.055                    20406231.699
 115872123.379 8  90290004.21845  22049729.391                    22049736.371
 113248811.314 8  88245856.60545  21550527.422                    21550534.816
 126262071.325 7  98386044.97743  24026878.289                    24026885.934
 11  8 10 19 25  0.0000000  0  9G17G26G13G24G08G07G28G11G19
 119598265.323 7  93193524.606 7  22758788.586                    22758798.145
 121573990.159 7  94733039.11143  23134762.320                    23134772.504
 127298107.024 6  99193325.97643  24224044.109                    24224057.820
 117024822.597 8  91188243.83045  22269070.070                    22269080.301
 106561911.210 8  83035288.28946  20278056.078                    20278064.262
 107258565.583 8  83578131.096 7  20410628.156                    20410635.457
 115846946.188 8  90270385.63545  22044937.938                    22044945.434
 113250019.574 8  88246798.11845  21550756.820                    21550764.801
 126366516.866 7  98467431.07444  24046752.969                    24046760.758
 11  8 10 19 25 30.0000000  0  9G17G26G13G24G08G07G28G11G19
 119513916.193 7  93127798.099 7  22742737.445                    22742746.742
 121524647.610 7  94694590.39944  23125373.313                    23125383.402
 127409669.545 6  99280257.41243  24245274.891                    24245288.297
 116982248.546 8  91155069.32845  22260968.734                    22260978.910
 106525841.518 8  83007182.04546  20271192.188                    20271200.180
 107282187.896 8  83596538.058 7  20415123.109                    20415130.754
 115821824.657 8  90250810.42345  22040157.797                    22040164.770
 113251805.599 8  88248189.83345  21551096.500                    21551104.262
 126471056.023 7  98548890.06143  24066647.945                    24066654.355
 11  8 10 19 26  0.0000000  0  9G17G26G13G24G08G07G28G11G19
 119429855.069 7  93062296.016 7  22726740.734                    22726750.332
 121475869.533 7  94656581.54744  23116091.469                    23116100.941
 127521198.420 6  99367162.65243  24266497.172                    24266511.625
 116940104.649 8  91122229.99045  22252948.883                    22252958.789
 106490181.215 8  82979394.80146  20264406.367                    20264414.574
 107306289.456 8  83615318.472 7  20419709.563                    20419716.902
 115796758.030 7  90231278.00045  22035387.477                    22035395.105
 113254170.014 7  88250032.24245  21551547.109                    21551554.445
 126575686.627 6  98630420.32244  24086557.516                    24086564.180
 11  8 10 19 26 30.0000000  0  9G17G26G13G24G08G07G28G11G19
 119346083.454 7  92997019.549 7  22710799.336                    22710809.445
 121427657.500 7  94619013.76244  23106916.148                    23106926.820
 127632690.864 6  99454039.53943  24287714.219                    24287728.250
 116898393.652 8  91089727.98545  22245011.203                    22245021.625
 106454932.702 8  82951928.43246  20257699.164                    20257706.898
 107330870.565 8  83634472.566 7  20424387.141                    20424394.730
 115771746.052 8  90211788.15945  22030627.875                    22030634.977
 113257112.837 8  88252325.36845  21552106.867                    21552114.461
 126680406.152 6  98712019.89543  24106485.070                    24106492.602
 11  8 10 19 27  0.0000000  0  9G17G26G13G24G08G07G28G11G19
 119262602.880 7  92931969.832 7  22694914.297                    22694923.098
 121380012.876 7  94581888.09744  23097850.203                    23097859.539
 127744144.154 6  99540885.89442  24308923.211                    24308937.098
 116857117.900 7  91057565.13945  22237156.656                    22237166.941
 106420098.120 8  82924784.60546  20251070.258                    20251077.723
 107355931.692 8  83654000.684 7  20429156.375                    20429164.180
 115746788.132 7  90192340.44845  22025878.508                    22025885.855
 113260634.694 8  88255069.68445  21552776.758                    21552784.297
 126785212.225 7  98793686.92643  24126428.859                    24126435.938
 11  8 10 19 27 30.0000000  0  9G17G26G13G24G08G07G28G11G19
 119179414.905 7  92867148.144 7  22679083.570                    22679092.742
 121332937.331 7  94545205.89944  23088891.633                    23088900.902
 127855555.520 6  99627699.52342  24330124.297                    24330138.250
 116816279.829 7  91025743.33745  22229385.313                    22229395.445
 106385680.173 8  82897965.42946  20244520.727                    20244528.617
 107381473.637 8  83673903.467 7  20434016.656                    20434024.488
 115721883.899 7  90172934.56545  22021139.305                    22021146.555
 113264736.114 7  88258265.61545  21553557.594                    21553565.320
 126890102.244 7  98875419.34844  24146388.852                    24146396.867
 11  8 10 19 28  0.0000000  0  9G17G26G13G24G08G07G28G11G19
 119096520.654 7  92802555.308 7  22663309.547                    22663318.793
 121286432.397 7  94508968.30844  23080042.492                    23080052.102
 127966922.214 6  99714478.32642  24351317.195                    24351331.117
 116775881.742 7  90994264.37445  22221698.086                    22221707.902
 106351680.995 8  82871472.56346  20238050.719                    20238058.637
 107407496.788 8  83694181.228 8  20438969.250                    20438976.598
 115697032.780 8  90153570.07345  22016410.586                    22016417.707
 113269417.536 8  88261913.48245  21554447.938                    21554455.801
 126995073.942 7  98957215.43444  24166364.883                    24166371.676
 11  8 10 19 28 30.0000000  0  9G17G26G13G24G08G07G28G11G19
 119013921.325 7  92738192.303 7  22647591.094                    22647600.406
 121240499.000 7  94473176.08244  23071301.930                    23071311.594
 128078241.220 6  99801220.06842  24372501.016                    24372514.625
 116735925.840 7  90963129.96945  22214094.781                    22214104.922
 106318102.476 8  82845307.47646  20231661.086                    20231669.047
 107434001.021 8  83714833.854 7  20444012.008                    20444019.797
 115672233.861 7  90134246.25945  22011691.461                    22011699.270
 113274679.065 8  88266013.39545  21555449.438                    21555457.074
 127100124.636 7  99039073.01744  24186355.242                    24186362.449
 11  8 10 19 29  0.0000000  0  9G17G26G13G24G08G07G28G11G19
 118931618.637 7  92674060.452 7  22631929.172                    22631938.738
 121195138.714 7  94437830.43344  23062670.070                    23062680.086
 128189509.919 6  99887922.59642  24393673.563                    24393688.867
 116696414.703 7  90932342.13145  22206575.617                    22206586.031
 106284947.157 8  82819472.16046  20225351.898                    20225359.188
 107460987.066 8  83735861.915 7  20449147.742                    20449155.508
 115647486.785 8  90114962.85245  22006981.992                    22006989.652
 113280520.777 8  88270565.39345  21556561.117                    21556568.598
 127205252.124 7  99120990.48144  24206360.789                    24206367.996
 11  8 10 19 29 30.0000000  0  9G17G26G13G24G08G07G28G11G19
 118849613.551 7  92610160.484 6  22616324.031                    22616333.637
 121150352.930 7  94402932.42944  23054146.844                    23054156.891
 128300725.868 6  99974583.85243  24414838.789                    24414853.484
 116657350.571 7  90901902.61445  22199141.836                    22199152.305
 106252217.253 8  82793968.32746  20219123.555                    20219131.504
 107488455.464 8  83757265.834 7  20454374.773                    20454382.434
 115622791.417 8  90095719.71645  22002282.648                    22002290.086
 113286943.344 8  88275570.01245  21557783.148                    21557790.859
 127310454.045 6  99202965.92843  24226379.766                    24226386.742
 11  8 10 19 30  0.0000000  0  9G17G26G13G24G08G07G28G11G19
 118767907.538 7  92546493.554 7  22600775.906                    22600785.289
 121106143.085 7  94368483.23544  23045734.875                    23045744.602
 128411886.064 6 100061201.75143  24435991.984                    24436007.246
 116618735.899 7  90871813.32445  22191793.773                    22191804.273
 106219915.051 8  82768797.77646  20212976.563                    20212984.629
 107516406.665 8  83779045.965 7  20459693.859                    20459701.309
 115598147.237 7  90076516.48145  21997593.188                    21997600.473
 113293947.142 7  88281027.52645  21559115.883                    21559123.117
 127415727.980 7  99284997.51543  24246412.039                    24246419.953
 11  8 10 19 30 30.0000000  0  9G17G26G13G24G08G07G28G11G19
 118686502.157 7  92483060.886 6  22585284.641                    22585294.172
 121062510.774 7  94334484.05844  23037431.422                    23037441.457
 128522987.770 6 100147774.08743  24457134.695                    24457149.719
 116580572.900 8  90842075.97344  22184531.508                    22184541.977
 106188043.377 8  82743962.69546  20206911.570                    20206919.801
 107544841.072 8  83801202.626 7  20465104.805                    20465112.188
 115573553.748 8  90057352.75945  21992913.344                    21992920.379
 113301532.278 8  88286938.04045  21560559.141                    21560566.762
 127521071.656 7  99367083.41043  24266459.180                    24266465.895
 11  8 10 19 31  0.0000000  0  9G17G26G13G24G08G07G28G11G19
 118605398.802 7  92419863.570 7  22569850.859                    22569860.750
 121019456.944 7  94300935.61844  23029239.367                    23029248.160
 128634028.500 6 100234298.86543  24478265.438                    24478280.137
 116542863.854 7  90812692.36745  22177355.555                    22177366.082
 106156603.840 8  82719464.35146  20200929.023                    20200936.820
 107573759.023 8  83823736.070 7  20470607.680                    20470615.238
 115549010.368 8  90038228.07345  21988242.586                    21988249.699
 113309698.848 7  88293301.60145  21562113.492                    21562120.738
 127626482.510 7  99449221.70443  24286517.758                    24286525.520
 11  8 10 19 31 30.0000000  0  9G17G26G13G24G08G07G28G11G19
 118524598.611 7  92356902.462 7  22554475.133                    22554484.633
 120976982.611 7  94267838.77244  23021156.055                    23021165.574
 128745005.405 6 100320773.93843  24499383.750                    24499399.387
 116505611.114 7  90783664.31745  22170266.758                    22170276.684
 106125599.060 8  82695304.78146  20195028.617                    20195036.598
 107603160.428 8  83846646.247 7  20476202.375                    20476210.016
 115524516.457 8  90019141.92245  21983581.898                    21983588.984
 113318447.189 8  88300118.50645  21563778.023                    21563785.672
 127731958.228 7  99531410.57243  24306589.484                    24306596.824
 11  8 10 19 32  0.0000000  0  9G17G26G13G24G08G07G28G11G19
 118444102.902 7  92294178.626 6  22539157.617                    22539166.703
 120935089.121 7  94235194.52344  23013184.320                    23013193.914
 128855915.782 6 100407197.17143  24520489.703                    24520505.078
 116468816.824 7  90754993.50445  22163264.539                    22163275.137
 106095031.022 8  82671485.53146  20189212.211                    20189219.566
 107633045.615 8  83869933.391 7  20481889.547                    20481897.016
 115500071.722 8  90000094.09245  21978929.969                    21978937.668
 113327777.117 8  88307388.60145  21565553.328                    21565560.469
 127837496.467 7  99613648.08943  24326672.883                    24326680.008
 11  8 10 19 32 30.0000000  0  9G17G26G13G24G08G07G28G11G19
 118363912.480 7  92231692.670 7  22523897.578                    22523907.598
 120893777.587 7  94203003.75144  23005322.523                    23005332.313
 128966756.978 6 100493566.48743  24541582.563                    24541597.594
 116432482.936 7  90726681.44345  22156350.984                    22156361.059
 106064901.711 8  82648008.14646  20183478.609                    20183486.281
 107663414.867 8  83893597.714 7  20487668.750                    20487676.523
 115475675.487 8  89981084.06145  21974287.492                    21974294.785
 113337688.905 8  88315112.09045  21567439.547                    21567447.262
 127943094.538 6  99695932.24443  24346766.688                    24346774.137
 11  8 10 19 33  0.0000000  0  9G17G26G13G24G08G07G28G11G19
 118284029.327 7  92169446.145 7  22508696.141                    22508705.980
 120853049.439 7  94171267.57244  22997572.641                    22997582.016
 129077525.937 6 100579879.49543  24562661.250                    24562676.609
 116396612.093 7  90698730.18944  22149524.805                    22149534.844
 106035213.587 8  82624874.55546  20177829.164                    20177836.938
 107694268.748 8  83917639.674 7  20493539.914                    20493547.738
 115451327.366 8  89962111.50745  21969654.383                    21969661.531
 113348182.980 8  88323289.30045  21569436.766                    21569444.574
 128048750.601 6  99778261.56943  24366873.117                    24366880.563
 11  8 10 19 33 30.0000000  0  9G17G26G13G24G08G07G28G11G19
 118204454.285 7  92107439.710 7  22493553.703                    22493563.074
 120812905.856 7  94139986.89244  22989933.047                    22989942.832
 129188220.382 6 100666134.44543  24583725.867                    24583741.453
 116361206.326 7  90671141.33045  22142787.117                    22142797.359
 106005969.164 8  82602086.69946  20172264.391                    20172271.773
 107725607.270 8  83942059.257 7  20499503.602                    20499510.910
 115427026.947 8  89943176.12845  21965029.961                    21965037.285
 113359259.088 8  88331920.04245  21571544.453                    21571552.004
 128154462.125 6  99860634.16043  24386988.867                    24386996.867
 11  8 10 19 34  0.0000000  0  9G17G26G13G24G08G07G28G11G19
 118125188.605 7  92045674.320 7  22478469.758                    22478479.113
 120773347.792 7  94109162.47244  22982405.156                    22982414.609
 129298837.702 6 100752329.37442  24604775.531                    24604791.355
 116326267.598 7  90643916.40945  22136138.031                    22136148.801
 105977170.194 8  82579645.94946  20166783.570                    20166791.773
 107757430.614 8  83966856.657 7  20505559.320                    20505566.867
 115402774.076 8  89924277.79945  21960414.766                    21960421.941
 113370917.339 8  88341004.41545  21573762.789                    21573770.129
 128260226.646 6  99943047.99843  24407116.289                    24407123.559
 11  8 10 19 34 30.0000000  0  9G17G26G13G24G08G07G28G11G19
 118046233.767 7  91984151.171 7  22463445.336                    22463454.707
 120734376.185 7  94078795.01144  22974989.445                    22974998.836
 129409375.030 6 100838461.86742  24625811.313                    24625827.340
 116291798.177 7  90617057.17145  22129579.055                    22129589.328
 105948818.904 8  82557554.04246  20161388.711                    20161396.719
 107789739.137 7  83992032.105 7  20511707.531                    20511715.289
 115378568.075 8  89905415.99245  21955808.438                    21955815.797
 113383157.858 8  88350542.49545  21576092.344                    21576099.496
 128366041.781 6 100025501.29844  24427251.570                    24427259.664
 11  8 10 19 35  0.0000000  0  9G17G26G13G24G08G07G28G11G19
 117967590.865 7  91922871.061 7  22448479.867                    22448489.523
 120695992.591 7  94048885.75544  22967685.008                    22967694.203
 129519829.728 6 100924529.97542  24646829.898                    24646846.910
 116257800.384 7  90590565.44045  22123109.469                    22123119.297
 105920917.938 8  82535813.03346  20156079.406                    20156087.414
 107822533.052 8  84017585.790 7  20517947.992                    20517955.617
 115354408.798 8  89886590.59445  21951211.367                    21951218.523
 113395980.582 8  88360534.24145  21578532.125                    21578540.125
 128471905.563 6 100107992.51244  24447396.539                    24447404.348
 11  8 10 19 35 30.0000000  0  9G17G26G13G24G08G07G28G11G19
 117889261.906 7  91861835.592 7  22433574.555                    22433584.277
 120658198.559 7  94019435.88744  22960493.656                    22960502.258
 129630199.749 6 101010532.12142  24667833.648                    24667849.660
 116224276.971 7  90564443.35145  22116730.102                    22116740.043
 105893469.926 8  82514424.97646  20150856.148                    20150864.164
 107855813.083 8  84043518.276 7  20524281.164                    20524288.734
 115330295.948 8  89867801.36945  21946622.398                    21946629.840
 113409386.190 8  88370980.18145  21581083.133                    21581090.629
 128577816.634 6 100190520.54043  24467550.641                    24467558.828
 11  8 10 19 36  0.0000000  0  8G17G26G24G08G07G28G11G19
 117811249.029 7  91801046.415 7  22418728.664                    22418738.090
 120620995.954 7  93990446.86544  22953414.430                    22953423.438
 116191230.695 7  90538693.05645  22110442.094                    22110451.590
 105866477.868 8  82493392.20546  20145719.766                    20145727.695
 107889580.300 8  84069830.367 7  20530706.359                    20530714.309
 115306230.452 7  89849049.06145  21942043.297                    21942050.367
 113423375.437 8  88381880.90345  21583745.383                    21583752.711
 128683773.384 6 100273084.17143  24487714.117                    24487721.523
 11  8 10 19 36 30.0000000  0  8G17G26G24G08G07G28G11G19
 117733551.494 7  91740502.962 7  22403943.914                    22403953.055
 120584383.782 7  93961917.91344  22946446.320                    22946455.801
 116158661.860 7  90513314.79944  22104244.219                    22104253.695
 105839941.923 8  82472714.85646  20140669.891                    20140678.004
 107923832.887 8  84096520.664 7  20537224.672                    20537232.406
 115282209.975 8  89830331.81945  21937472.477                    21937479.496
 113437946.385 8  88393234.89445  21586517.789                    21586525.598
 128789771.540 6 100355680.11243  24507885.633                    24507892.699
 11  8 10 19 37  0.0000000  0  8G17G26G24G08G07G28G11G19
 117656170.512 7  91680206.188 7  22389218.289                    22389227.762
 120548363.124 7  93933849.87244  22939591.906                    22939601.422
 116126572.749 7  90488310.33845  22098137.477                    22098147.395
 105813864.544 8  82452394.82146  20135707.766                    20135715.961
 107958571.265 8  84123589.495 7  20543835.031                    20543842.879
 115258234.113 8  89811649.34445  21932909.398                    21932917.066
 113453099.377 8  88405042.42545  21589401.734                    21589409.289
 128895808.826 6 100438306.50243  24528063.953                    24528070.781
 11  8 10 19 37 30.0000000  0  8G17G26G24G08G07G28G11G19
 117579107.240 7  91620156.971 7  22374553.234                    22374563.059
 120512935.043 7  93906243.60144  22932850.508                    22932859.438
 116094965.349 7  90463681.24145  22092122.625                    22092132.914
 105788247.748 8  82432433.68246  20130833.055                    20130841.305
 107993795.260 8  84151036.732 7  20550538.172                    20550545.766
 115234302.583 8  89793001.43245  21928355.570                    21928362.891
 113468833.951 8  88417303.13145  21592395.703                    21592403.020
 129001883.115 6 100520961.72943  24548248.023                    24548256.277
 11  8 10 19 38  0.0000000  0  8G17G26G24G08G07G28G11G19
 117502362.608 7  91560356.045 7  22359949.547                    22359959.129
 120478100.018 7  93879099.44244  22926221.180                    22926230.922
 116063841.585 7  90439428.99044  22086200.133                    22086210.332
 105763093.005 8  82412832.59346  20126045.852                    20126053.945
 108029504.858 8  84178862.364 7  20557333.445                    20557341.297
 115210414.828 7  89774387.61845  21923809.805                    21923817.020
 113485149.931 8  88430016.88145  21595500.844                    21595508.305
 129107991.842 6 100603643.76743  24568439.953                    24568447.801
 11  8 10 19 38 30.0000000  0  8G17G26G24G08G07G28G11G19
 117425937.801 7  91500804.337 7  22345406.797                    22345415.258
 120443859.518 7  93852418.54744  22919705.625                    22919715.602
 116033203.349 7  90415555.09545  22080369.852                    22080379.543
 105738402.588 8  82393593.30146  20121347.602                    20121355.789
 108065700.104 8  84207066.414 7  20564220.719                    20564228.723
 115186570.611 7  89755807.71645  21919272.766                    21919279.543
 113502046.784 8  88443183.26245  21598715.828                    21598723.605
 129214132.955 6 100686351.02244  24588638.969                    24588646.680
 11  8 10 19 39  0.0000000  0  8G17G26G24G08G07G28G11G19
 117349834.530 7  91441503.185 7  22330924.188                    22330933.477
 120410214.335 7  93826201.52444  22913303.141                    22913312.676
 116003053.061 7  90392061.41445  22074632.383                    22074642.289
 105714179.136 8  82374717.88246  20116738.430                    20116746.164
 108102381.337 8  84235649.165 7  20571201.648                    20571209.340
 115162769.657 8  89737261.53445  21914743.023                    21914750.590
 113519524.423 8  88456802.20145  21602041.609                    21602049.590
 129320304.416 6 100769081.97444  24608842.406                    24608850.004
 11  8 10 19 39 30.0000000  0  8G17G26G24G08G07G28G11G19
 117274053.622 8  91382453.220 7  22316504.070                    22316512.688
 120377165.518 7  93800449.20544  22907014.211                    22907024.172
 115973392.727 7  90368949.51445  22068988.484                    22068998.352
 105690424.845 8  82356208.04946  20112217.828                    20112225.996
 108139548.723 8  84264610.715 7  20578273.758                    20578281.770
 115139011.714 8  89718748.88146  21910222.586                    21910229.352
 113537583.332 8  88470874.08345  21605478.352                    21605485.648
 129426503.806 6 100851834.73143  24629051.320                    24629059.316
 11  8 10 19 40  0.0000000  0  8G17G26G24G08G07G28G11G19
 117198595.842 7  91323655.043 7  22302144.305                    22302153.418
 120344713.318 7  93775161.78244  22900838.500                    22900848.074
 115944223.795 8  90346220.53245  22063437.375                    22063447.410
 105667141.004 8  82338064.79446  20107787.445                    20107794.906
 108177201.575 8  84293950.565 7  20585439.414                    20585447.133
 115115296.095 7  89700269.19945  21905709.492                    21905716.742
 113556222.679 8  88485398.25545  21609025.109                    21609032.809
 129532729.277 6 100934607.74342  24649264.813                    24649272.883
 11  8 10 19 40 30.0000000  0  8G17G26G24G08G07G28G11G19
 117123462.634 8  91265109.769 7  22287846.852                    22287856.145
 120312858.571 7  93750339.91544  22894777.484                    22894786.543
 115915548.223 7  90323875.97745  22057980.633                    22057990.461
 105644329.788 8  82320289.81346  20103446.281                    20103454.465
 108215340.236 8  84323668.968 7  20592696.836                    20592704.613
 115091622.606 7  89681822.34145  21901204.242                    21901212.023
 113575442.336 8  88500374.62245  21612682.594                    21612690.066
 129638978.563 6 101017399.41642  24669484.063                    24669490.551
 11  8 10 19 41  0.0000000  0  8G17G26G24G08G07G28G11G19
 117048655.320 8  91206818.453 7  22273611.664                    22273620.633
 120281602.641 7  93725984.66344  22888829.273                    22888838.582
 115887368.320 7  90301917.65545  22052618.328                    22052628.094
 105621994.114 8  82302885.38646  20099196.039                    20099203.934
 108253964.781 8  84353765.988 7  20600046.742                    20600054.863
 115067991.445 8  89663408.47445  21896707.469                    21896714.430
 113595242.271 8  88515803.15045  21616450.453                    21616457.844
 129745249.644 6 101100208.04343  24689706.578                    24689713.344
 11  8 10 19 41 30.0000000  0  8G17G26G24G08G07G28G11G19
 116974175.108 8  91148782.009 7  22259438.320                    22259447.867
 120250946.412 7  93702096.71844  22882995.695                    22883004.938
 115859686.087 7  90280347.11945  22047350.086                    22047360.445
 105600136.361 8  82285853.37546  20095036.695                    20095044.754
 108293075.641 8  84384241.949 7  20607489.484                    20607496.930
 115044402.183 8  89645027.24246  21892218.750                    21892226.137
 113615622.161 8  88531683.59245  21620328.445                    21620335.582
 129851540.533 7 101183032.07043  24709934.016                    24709940.691
 11  8 10 19 42  0.0000000  0  8G17G26G24G08G07G28G11G19
 116900022.707 8  91091001.004 7  22245327.758                    22245336.426
 120220890.008 7  93678676.14144  22877276.117                    22877285.215
 115832502.831 7  90259165.40845  22042177.430                    22042187.238
 105578757.476 8  82269194.49246  20090968.320                    20090976.168
 108332671.807 8  84415096.067 7  20615024.688                    20615032.129
 115020854.037 8  89626678.05846  21887737.930                    21887745.035
 113636581.250 8  88548015.34945  21624316.836                    21624324.383
 129957848.341 7 101265869.29244  24730163.742                    24730170.824
 11  8 10 19 42 30.0000000  0  8G17G26G24G08G07G28G11G19
 116826199.153 8  91033476.230 7  22231279.570                    22231288.238
 120191434.122 7  93655723.53944  22871671.078                    22871680.395
 115805820.728 7  90238374.20345  22037099.930                    22037109.707
 105557859.738 8  82252910.52746  20086991.570                    20086999.273
 108372753.600 8  84446328.608 7  20622651.797                    20622659.496
 114997346.673 7  89608360.64145  21883264.445                    21883271.598
 113658119.344 8  88564798.28445  21628415.602                    21628423.191
 130064171.352 7 101348718.33544  24750395.477                    24750404.078
 11  8 10 19 43  0.0000000  0  8G17G26G24G08G07G28G11G19
 116752705.574 8  90976208.575 7  22217293.859                    22217302.863
 120162579.620 7  93633239.52744  22866179.703                    22866189.418
 115779641.637 7  90217974.96345  22032118.164                    22032127.883
 105537444.995 8  82237002.92346  20083106.867                    20083114.918
 108413321.013 8  84477939.545 7  20630371.523                    20630379.191
 114973880.260 8  89590075.13345  21878798.719                    21878806.180
 113680236.178 8  88582032.17645  21632624.266                    21632631.840
 130170507.280 6 101431577.46343  24770630.063                    24770639.023
 11  8 10 19 43 30.0000000  0  8G17G26G24G08G07G28G11G19
 116679542.979 8  90919198.806 7  22203371.359                    22203380.328
 120134327.200 7  93611224.68544  22860803.305                    22860813.008
 115753967.629 7  90197969.29245  22027232.844                    22027242.645
 105517515.538 8  82221473.47546  20079314.594                    20079322.582
 108454373.870 8  84509928.761 7  20638183.617                    20638191.340
 114950454.326 8  89571821.16345  21874341.039                    21874348.383
 113702931.235 8  88599716.62545  21636943.359                    21636950.719
 130276854.208 5 101514445.07643  24790867.328                    24790876.402
 11  8 10 19 44  0.0000000  0  8G17G26G24G08G07G28G11G19
 116606713.037 8  90862448.277 7  22189512.688                    22189521.305
 120106677.925 7  93589679.80344  22855542.141                    22855551.824
 115728800.840 7  90178358.85745  22022443.484                    22022453.676
 105498073.394 8  82206323.74746  20075614.641                    20075622.324
 108495912.361 8  84542296.391 7  20646088.156                    20646095.809
 114927069.369 8  89553599.12345  21869890.711                    21869898.102
 113726204.568 8  88617851.69945  21641371.656                    21641379.281
 130383210.741 6 101597320.14342  24811106.063                    24811115.211
 11  8 10 19 44 30.0000000  0  7G17G26G24G08G07G28G11
 116534216.747 8  90805957.721 7  22175717.148                    22175725.801
 120079632.466 7  93568605.44044  22850395.758                    22850405.391
 115704142.968 7  90159144.98045  22017751.078                    22017761.117
 105479120.875 8  82191555.53946  20072008.289                    20072016.258
 108537936.519 8  84575042.459 7  20654085.070                    20654092.805
 114903725.074 8  89535408.77045  21865449.016                    21865456.027
 113750055.862 8  88636437.10845  21645910.336                    21645918.379
 11  8 10 19 45  0.0000000  0  7G17G26G24G08G07G28G11
 116462054.817 8  90749727.708 7  22161984.500                    22161993.391
 120053190.884 7  93548001.60044  22845363.984                    22845373.430
 115679995.394 7  90140328.72945  22013155.633                    22013166.074
 105460659.796 8  82177170.27946  20068495.086                    20068502.953
 108580445.665 8  84608166.449 7  20662174.469                    20662182.055
 114880420.459 8  89517249.34345  21861013.695                    21861021.016
 113774483.965 8  88655471.98645  21650558.828                    21650566.328
 11  8 10 19 45 30.0000000  0  7G17G26G24G08G07G28G11
 116390227.962 8  90693758.805 7  22148316.766                    22148325.441
 120027353.377 7  93527868.50644  22840447.039                    22840456.684
 115656359.562 7  90121911.24845  22008658.414                    22008668.156
 105442691.638 8  82163169.10946  20065075.789                    20065083.719
 108623439.668 8  84641668.238 7  20670355.891                    20670363.625
 114857155.319 8  89499120.67945  21856586.602                    21856594.035
 113799488.410 8  88674955.95645  21655317.063                    21655324.781
 11  8 10 19 46  0.0000000  0  7G17G26G24G08G07G28G11
 116318736.409 8  90638051.170 7  22134712.086                    22134721.230
 120002120.037 6  93508206.16744  22835645.570                    22835654.570
 115633236.370 7  90103893.20945  22004258.313                    22004267.887
 105425217.187 8  82149552.65146  20061750.664                    20061758.637
 108666917.103 8  84675546.737 7  20678629.375                    20678636.887
 114833928.955 8  89481022.23045  21852167.016                    21852174.637
 113825067.683 8  88694887.85545  21660184.750                    21660192.352
 11  8 10 19 46 30.0000000  0  7G17G26G24G08G07G28G11
 116247581.863 8  90582606.129 7  22121171.547                    22121180.641
 119977491.930 7  93489015.44944  22830958.625                    22830967.824
 115610628.516 8  90086276.74045  21999955.820                    21999965.637
 105408239.821 8  82136323.53246  20058520.031                    20058527.875
 108710878.675 8  84709802.487 7  20686994.883                    20687002.559
 114810741.628 8  89462954.19845  21847754.273                    21847761.406
 113851222.121 8  88715267.94845  21665162.039                    21665169.520
 11  8 10 19 47  0.0000000  0  7G17G26G24G08G07G28G11
 116176765.286 8  90527424.451 7  22107695.383                    22107704.563
 119953469.620 7  93470296.76844  22826387.641                    22826396.984
 115588537.555 8  90069063.04145  21995752.250                    21995761.926
 105391761.260 8  82123483.09246  20055384.078                    20055392.348
 108755324.143 8  84744435.285 7  20695452.523                    20695460.473
 114787593.238 8  89444916.51946  21843349.438                    21843356.668
 113877951.111 8  88736095.71945  21670247.891                    21670255.734
 11  8 10 19 47 30.0000000  0  7G17G26G24G08G07G28G11
 116106287.783 8  90472506.974 7  22094283.859                    22094293.070
 119930053.336 7  93452050.31844  22821931.258                    22821940.547
 115566964.930 7  90052253.24945  21991647.195                    21991656.957
 105375783.204 8  82111032.65046  20052343.461                    20052351.789
 108800253.417 8  84779445.080 7  20704002.203                    20704009.754
 114764483.402 8  89426908.87445  21838951.727                    21838958.922
 113905253.980 7  88757370.67945  21675443.383                    21675451.305
 11  8 10 19 48  0.0000000  0  7G17G26G24G08G07G28G11
 116036149.783 8  90417854.059 7  22080937.359                    22080946.449
 119907243.009 7  93434276.07444  22817590.836                    22817600.293
 115545912.093 8  90035848.48145  21987640.734                    21987650.723
 105360306.957 8  82098973.22746  20049398.789                    20049407.031
 108845665.420 8  84814831.036 7  20712643.938                    20712651.828
 114741411.538 8  89408930.81745  21834561.375                    21834568.855
 113933129.675 8  88779091.99145  21680747.867                    21680755.625
 11  8 10 19 48 30.0000000  0  7G17G26G24G08G07G28G11
 115966351.598 8  90363465.933 7  22067655.070                    22067663.645
 119885038.667 7  93416973.99844  22813365.219                    22813375.176
 115525379.918 7  90019849.41345  21983733.625                    21983743.648
 105345333.450 8  82087305.55446  20046549.180                    20046557.059
 108891559.494 8  84850592.619 7  20721377.375                    20721385.551
 114718377.070 8  89390981.90945  21830177.906                    21830185.383
 113961577.180 8  88801258.87245  21686161.477                    21686169.211
 11  8 10 19 49  0.0000000  0  7G17G26G24G08G07G28G11
 115896894.844 8  90309343.835 7  22054437.773                    22054447.082
 119863441.108 6  93400144.75844  22809255.422                    22809264.727
 115505370.514 7  90004257.70845  21979926.156                    21979935.328
 105330865.296 8  82076031.66546  20043796.047                    20043803.922
 108937935.659 8  84886729.859 7  20730202.234                    20730210.508
 114695380.390 8  89373062.44446  21825802.250                    21825808.879
 113990596.241 8  88823871.11545  21691683.836                    21691690.930
 11  8 10 19 49 30.0000000  0  7G17G26G24G08G07G28G11
 115827780.363 8  90255488.452 7  22041286.016                    22041294.910
 119842450.750 7  93383788.63344  22805261.297                    22805270.949
 115485885.754 8  89989074.80745  21976218.297                    21976227.852
 105316904.568 8  82065153.17046  20041139.523                    20041147.277
 108984793.934 8  84923242.754 7  20739119.195                    20739127.113
 114672421.448 8  89355172.39946  21821432.813                    21821439.840
 114020185.949 8  88846928.03745  21697314.531                    21697322.316
 11  8 10 19 50  0.0000000  0  7G17G26G24G08G07G28G11
 115759008.854 8  90201900.329 7  22028199.008                    22028208.012
 119822067.826 7  93367905.85344  22801382.328                    22801391.707
 115466927.151 7  89974301.91045  21972610.438                    21972620.379
 105303452.968 8  82054671.39946  20038579.672                    20038587.660
 109032133.567 8  84960130.738 7  20748127.859                    20748135.551
 114649499.964 8  89337311.52146  21817071.484                    21817078.621
 114050345.821 8  88870429.21445  21703053.969                    21703061.336
 11  8 10 19 50 30.0000000  0  7G17G26G24G08G07G28G11
 115690581.421 8  90148580.305 7  22015177.672                    22015186.148
 119802292.742 7  93352496.71744  22797619.336                    22797629.121
 115448496.469 7  89959940.36545  21969103.078                    21969112.719
 105290512.624 8  82044588.01346  20036117.070                    20036124.895
 109079954.839 8  84997394.039 7  20757227.906                    20757235.770
 114626615.922 8  89319479.82846  21812716.547                    21812723.680
 114081075.362 8  88894374.28545  21708901.391                    21708909.176
 11  8 10 19 51  0.0000000  0  7G17G26G24G08G07G28G11
 115622498.416 8  90095528.650 7  22002221.891                    22002230.332
 119783125.336 7  93337561.08344  22793971.922                    22793981.590
 115430594.454 8  89945990.76545  21965696.242                    21965705.809
 105278084.514 8  82034903.76746  20033752.352                    20033759.648
 109128256.233 8  85035031.440 7  20766419.344                    20766427.391
 114603768.630 8  89301676.76845  21808368.250                    21808375.906
 114112372.904 8  88918761.96345  21714857.156                    21714864.375
 11  8 10 19 51 30.0000000  0  7G17G26G24G08G07G28G11
 115554761.576 7  90042746.744 7  21989331.852                    21989340.652
 119764566.235 7  93323099.44944  22790440.172                    22790449.832
 115413223.062 8  89932454.63245  21962390.961                    21962400.359
 105266171.191 8  82025620.65446  20031485.313                    20031493.020
 109177037.991 8  85073043.156 7  20775702.516                    20775710.223
 114580958.511 8  89283902.67446  21804028.016                    21804035.078
 114144238.321 8  88943592.13345  21720920.969                    21720929.004
 11  8 10 19 52  0.0000000  0  7G17G26G24G08G07G28G11
 115487371.858 8  89990235.336 7  21976507.656                    21976516.770
 119746615.978 7  93309112.23844  22787024.633                    22787033.977
 115396384.037 8  89919333.32945  21959186.289                    21959195.711
 105254774.942 8  82016740.45246  20029316.773                    20029324.762
 109226300.284 8  85111429.313 7  20785076.320                    20785084.422
 114558186.031 8  89266157.90645  21799694.133                    21799701.906
 114176671.459 8  88968864.69445  21727093.102                    21727100.344
 11  8 10 19 52 30.0000000  0  7G17G26G24G08G07G28G11
 115420329.367 7  89937994.479 7  21963749.977                    21963759.047
 119729274.048 7  93295599.04944  22783724.125                    22783733.848
 115380078.196 8  89906627.48245  21956083.938                    21956093.195
 105243896.241 8  82008263.54246  20027246.555                    20027254.582
 109276041.565 8  85150188.704 7  20794542.031                    20794550.023
 114535450.252 8  89248441.73446  21795368.188                    21795375.023
 114209670.198 7  88994577.98245  21733372.156                    21733379.934
 11  8 10 19 53  0.0000000  0  7G17G26G24G08G07G28G11
 115353634.747 7  89886024.695 7  21951058.789                    21951067.723
 119712540.414 7  93282559.85444  22780539.711                    22780549.469
 115364306.886 8  89894338.15245  21953082.578                    21953091.730
 105233536.906 8  82000191.33746  20025274.977                    20025282.793
 109326261.526 8  85189321.100 7  20804098.805                    20804106.594
 114512750.551 8  89230753.67646  21791048.148                    21791055.504
 114243234.028 7  89020731.62045  21739759.227                    21739766.824
 11  8 10 19 53 30.0000000  0  7G17G26G24G08G07G28G11
 115287289.277 7  89834326.972 7  21938433.227                    21938442.520
 119696415.445 7  93269994.94944  22777471.234                    22777481.145
 115349071.708 8  89882466.60345  21950182.703                    21950192.742
 105223698.928 8  81992525.37246  20023403.063                    20023411.039
 109376959.770 8  85228826.185 7  20813746.438                    20813754.531
 114490087.882 8  89213094.47945  21786735.383                    21786742.852
 114277362.168 7  89047324.96845  21746253.875                    21746261.340
 11  8 10 19 54  0.0000000  0  7G17G26G24G08G07G28G11
 115221293.297 7  89782901.610 7  21925874.945                    21925883.406
 119680898.941 7  93257904.16544  22774518.836                    22774528.129
 115334373.934 8  89871013.80345  21947385.719                    21947395.602
 105214383.592 8  81985266.66846  20021630.258                    20021638.414
 109428135.811 8  85268703.580 7  20823485.102                    20823492.598
 114467461.860 8  89195463.82346  21782430.500                    21782437.246
 114312053.540 8  89074357.20545  21752855.172                    21752862.609
 11  8 10 19 54 30.0000000  0  7G17G26G24G08G07G28G11
 115155647.132 7  89731748.796 7  21913382.719                    21913391.117
 119665990.355 7  93246287.08844  22771682.070                    22771690.703
 115320214.142 7  89859980.20645  21944691.945                    21944701.035
 105205591.620 8  81978415.76746  20019957.531                    20019965.527
 109479788.331 8  85308952.247 7  20833314.148                    20833322.074
 114444871.200 8  89177860.73846  21778131.258                    21778138.871
 114347306.535 7  89101827.07345  21759563.453                    21759570.590
 11  8 10 19 55  0.0000000  0  7G17G26G24G08G07G28G11
 115090352.052 7  89680869.567 7  21900957.734                    21900965.957
 119651690.363 7  93235144.22844  22768960.000                    22768969.809
 115306594.274 8  89849367.34545  21942099.938                    21942109.652
 105197325.653 8  81971974.74746  20018384.133                    20018392.160
 109531917.507 8  85349572.340 7  20843233.719                    20843241.742
 114422316.823 8  89160285.90745  21773839.422                    21773846.898
 114383120.776 8  89129734.28745  21766378.789                    21766386.402
 11  8 10 19 55 30.0000000  0  7G17G26G24G08G07G28G11
 115025408.915 7  89630264.569 7  21888598.961                    21888607.848
 119637998.843 7  93224475.51544  22766355.031                    22766364.113
 115293515.466 8  89839176.07845  21939611.023                    21939620.441
 105189586.987 8  81965944.60946  20016911.703                    20016919.727
 109584522.389 8  85390563.121 7  20853244.281                    20853252.313
 114399798.585 8  89142739.24946  21769554.086                    21769561.715
 114419495.118 8  89158077.93445  21773300.742                    21773308.398
 11  8 10 19 56  0.0000000  0  7G17G26G24G08G07G28G11
 114960817.776 7  89579933.883 7  21876307.992                    21876316.578
 119624914.966 7  93214280.28844  22763865.484                    22763874.453
 115280978.477 8  89829407.01745  21937225.695                    21937235.035
 105182376.500 8  81960326.03646  20015539.617                    20015547.852
 109637601.878 8  85431923.719 7  20863345.273                    20863352.793
 114377315.533 8  89125220.00546  21765275.727                    21765282.891
 114456428.057 8  89186856.84545  21780328.430                    21780336.258
 11  8 10 19 56 30.0000000  0  7G17G26G24G08G07G28G11
 114896579.992 7  89529878.522 7  21864083.180                    21864092.707
 119612439.874 7  93204559.46444  22761491.906                    22761500.828
 115268985.423 8  89820061.79645  21934942.828                    21934953.188
 105175697.022 8  81955121.24246  20014268.578                    20014276.617
 109691156.424 8  85473654.505 7  20873536.500                    20873544.020
 114354869.255 8  89107729.42245  21761004.453                    21761012.027
 114493919.198 8  89216070.73145  21787463.250                    21787470.258
 11  8 10 19 57  0.0000000  0  7G17G26G24G08G07G28G11
 114832695.801 7  89480098.704 7  21851926.664                    21851935.359
 119600572.680 7  93195312.29344  22759232.914                    22759242.273
 115257536.969 8  89811140.94945  21932764.500                    21932774.293
 105169549.246 8  81950330.75746  20013098.453                    20013106.777
 109745184.342 8  85515754.136 7  20883817.258                    20883825.473
 114332458.465 8  89090266.47746  21756739.867                    21756746.895
 114531967.069 8  89245718.42245  21794703.344                    21794710.906
 11  8 10 19 57 30.0000000  0  7G17G26G24G08G07G28G11
 114769165.746 7  89430594.800 7  21839837.414                    21839846.211
 119589313.102 7  93186538.61744  22757091.203                    22757100.105
 115246634.080 8  89802645.20945  21930689.828                    21930699.508
 105163934.515 8  81945955.62546  20012029.984                    20012038.195
 109799685.032 8  85558222.170 7  20894188.625                    20894196.672
 114310083.276 8  89072831.27246  21752481.781                    21752489.391
 114570570.718 8  89275799.18845  21802049.102                    21802056.953
 11  8 10 19 58  0.0000000  0  7G17G26G24G08G07G28G11
 114705991.127 7  89381367.878 7  21827815.961                    21827824.086
 119578661.414 7  93178238.62844  22755063.727                    22755073.031
 115236278.330 7  89794575.81145  21928719.289                    21928728.801
 105158855.028 8  81941997.57046  20011063.539                    20011071.523
 109854658.407 8  85601058.524 7  20904649.586                    20904657.973
 114287744.073 8  89055424.12146  21748231.195                    21748238.176
 114609729.048 8  89306312.17145  21809500.469                    21809508.422
 11  8 10 19 58 30.0000000  0  7G17G26G24G08G07G28G11
 114643172.133 7  89332418.062 7  21815861.742                    21815870.289
 119568617.168 7  93170411.93344  22753152.648                    22753161.129
 115226470.448 8  89786933.32245  21926852.258                    21926862.461
 105154311.672 8  81938457.27646  20010199.313                    20010207.438
 109910103.365 8  85644262.342 7  20915200.289                    20915208.355
 114265440.557 8  89038044.76246  21743986.859                    21743994.340
 114649440.700 8  89337256.30445  21817057.594                    21817065.238
 11  8 10 19 59  0.0000000  0  7G17G26G24G08G07G28G11
 114580710.132 8  89283746.441 7  21803975.438                    21803984.184
 119559180.710 7  93163058.85344  22751356.930                    22751365.383
 115217212.432 8  89779719.29845  21925090.977                    21925100.766
 105150307.281 8  81935336.95646  20009437.391                    20009445.242
 109966020.152 8  85687833.822 7  20925841.016                    20925848.973
 114243173.161 8  89020693.57146  21739749.227                    21739756.828
 114689705.208 7  89368631.23945  21824719.852                    21824727.227
 11  8 10 19 59 30.0000000  0  7G17G26G24G08G07G28G11
 114518604.803 7  89235352.736 7  21792157.563                    21792165.363
 119550350.457 7  93156178.14644  22749676.875                    22749685.320
 115208504.208 7  89772933.68045  21923433.641                    21923443.180
 105146841.058 8  81932635.99246  20008777.531                    20008785.359
 110022406.099 8  85731770.888 7  20936570.750                    20936578.680
 114220941.032 8  89003369.84645  21735518.727                    21735525.754
 114730520.057 7  89400435.00045  21832486.336                    21832494.086
 11  8 10 20  0  0.0000000  0  7G17G26G24G08G07G28G11
 114456857.036 7  89187237.640 7  21780406.789                    21780415.027
 119542126.943 7  93149770.21744  22748111.383                    22748120.730
 115200347.367 8  89766577.71645  21921881.727                    21921891.102
 105143915.607 8  81930356.40046  20008220.922                    20008229.105
 110079261.641 8  85776073.870 7  20947390.102                    20947398.672
 114198744.623 8  88986073.96646  21731294.930                    21731301.973
 114771884.916 8  89432667.35745  21840358.094                    21840365.543
 11  8 10 20  0 30.0000000  0  7G17G26G24G08G07G28G11
 114395466.767 7  89139401.110 7  21768724.734                    21768732.949
 119534509.210 7  93143834.31644  22746661.430                    22746670.883
 115192742.410 8  89760651.78845  21920434.672                    21920444.539
 105141531.406 8  81928498.56446  20007767.234                    20007775.602
 110136585.247 8  85820741.573 7  20958298.469                    20958306.961
 114176583.573 8  88968805.63246  21727077.258                    21727084.523
 114813797.919 8  89465326.82845  21848334.023                    21848341.539
 11  8 10 20  1  0.0000000  0  7G17G26G24G08G07G28G11
 114334435.411 7  89091844.253 7  21757110.547                    21757119.309
 119527497.547 7  93138370.65044  22745327.664                    22745336.695
 115185690.676 8  89755156.93845  21919092.531                    21919102.531
 105139690.773 8  81927064.28746  20007416.953                    20007424.863
 110194376.707 8  85865773.840 7  20969295.828                    20969304.227
 114154458.584 8  88951565.39546  21722867.328                    21722874.574
 114856258.392 8  89498412.89745  21856413.820                    21856422.215
 11  8 10 20  1 30.0000000  0  7G17G26G24G08G07G28G11
 114273763.235 7  89044567.276 7  21745565.398                    21745573.559
 119521091.161 7  93133378.67344  22744108.492                    22744117.258
 115179192.936 8  89750093.79145  21917856.008                    21917865.652
 105138394.419 8  81926054.12346  20007170.367                    20007178.355
 110252634.677 8  85911169.619 7  20980382.109                    20980390.078
 114132369.157 8  88934352.86345  21718663.984                    21718671.141
 114899264.663 8  89531924.27245  21864597.836                    21864605.336
 11  8 10 20  2  0.0000000  0  7G17G26G24G08G07G28G11
 114213450.750 7  88997570.568 7  21734087.969                    21734096.484
 119515289.956 7  93128858.24444  22743004.008                    22743013.375
 115173250.139 8  89745463.05045  21916724.766                    21916734.590
 105137643.964 8  81925469.33846  20007027.641                    20007035.750
 110311358.726 8  85956928.564 7  20991557.063                    20991565.184
 114110315.532 8  88917168.23146  21714467.063                    21714474.484
 114942815.568 8  89565860.05145  21872885.492                    21872892.887
 11  8 10 20  2 30.0000000  0  7G17G26G24G08G07G28G11
 114153498.450 8  88950854.532 7  21722679.430                    21722688.316
 119510092.989 7  93124808.64044  22742015.250                    22742024.629
 115167862.995 7  89741265.28545  21915699.969                    21915709.211
 105137440.282 8  81925310.60346  20006988.805                    20006997.063
 110370547.784 8  86003049.874 7  21002820.453                    21002828.797
 114088297.238 8  88900011.12845  21710277.281                    21710284.371
 114986909.769 8  89600219.16345  21881275.750                    21881283.711
 11  8 10 20  3  0.0000000  0  7G17G26G24G08G07G28G11
 114093907.354 8  88904419.950 7  21711339.711                    21711348.348
 119505500.559 7  93121230.12444  22741141.625                    22741150.918
 115163033.273 8  89737501.86045  21914781.148                    21914790.633
 105137785.854 8  81925579.87146  20007054.445                    20007062.793
 110430201.330 8  86049533.118 7  21014172.086                    21014180.117
 114066315.265 8  88882882.32846  21706094.094                    21706101.758
 115031546.446 8  89635000.98145  21889769.992                    21889777.754
 11  8 10 20  3 30.0000000  0  7G17G26G24G08G07G28G11
 114034677.879 8  88858267.159 7  21700068.367                    21700077.488
 119501511.866 7  93118122.04844  22740382.641                    22740392.070
 115158761.461 8  89734173.18345  21913968.273                    21913977.980
 105138681.372 8  81926277.65446  20007224.953                    20007232.895
 110490318.314 8  86096377.479 7  21025611.883                    21025620.563
 114044369.378 8  88865781.63345  21701917.906                    21701925.473
 115076723.675 8  89670204.02445  21898367.359                    21898374.715
 11  8 10 20  4  0.0000000  0  7G17G26G24G08G07G28G11
 113975810.386 7  88812396.427 7  21688866.922                    21688875.051
 119498126.244 7  93115483.89244  22739738.617                    22739747.527
 115155047.888 8  89731279.49845  21913261.258                    21913270.934
 105140127.649 8  81927404.61046  20007500.109                    20007508.227
 110550897.558 8  86143582.033 7  21037139.836                    21037147.848
 114022459.777 8  88848709.22146  21697749.109                    21697756.469
 115122440.217 8  89705827.30245  21907066.703                    21907074.047
 11  8 10 20  4 30.0000000  0  7G17G26G24G08G07G28G11
 113917304.961 8  88766807.820 7  21677733.422                    21677741.410
 119495343.011 7  93113315.14444  22739208.898                    22739218.219
 115151893.459 8  89728821.50345  21912661.117                    21912671.148
 105142125.701 8  81928961.52546  20007880.328                    20007888.398
 110611937.962 8  86191145.946 7  21048755.586                    21048763.832
 114000586.045 8  88831664.76046  21693586.570                    21693593.230
 115168694.162 8  89741869.32945  21915868.242                    21915875.941
 11  8 10 20  5  0.0000000  0  7G17G26G24G08G07G28G11
 113859161.972 8  88721501.626 7  21666669.430                    21666678.105
 119493160.990 7  93111614.85244  22738793.727                    22738803.449
 115149298.606 7  89726799.55645  21912167.273                    21912176.840
 105144676.189 8  81930948.89646  20008365.836                    20008373.895
 110673438.263 8  86239068.213 7  21060458.594                    21060466.902
 113978747.709 8  88814647.87346  21689430.711                    21689437.922
 115215483.810 8  89778328.80545  21924772.016                    21924779.438
 11  8 10 20  5 30.0000000  0  7G17G26G24G08G07G28G11
 113801382.176 7  88676478.449 7  21655673.609                    21655682.480
 119491580.819 7  93110383.55244  22738493.219                    22738502.473
 115147264.984 7  89725214.91545  21911780.484                    21911789.965
 105147781.781 8  81933368.81746  20008956.758                    20008964.766
 110735398.294 8  86287348.710 7  21072249.313                    21072257.586
 113956945.982 8  88797659.52746  21685281.906                    21685288.992
 115262808.830 8  89815205.43245  21933777.719                    21933785.211
 11  8 10 20  6  0.0000000  0  7G17G26G24G08G07G28G11
 113743966.488 8  88631738.990 7  21644748.023                    21644756.402
 119490601.777 7  93109620.66044  22738307.156                    22738316.281
 115145793.406 7  89724068.23745  21911500.477                    21911509.781
 105151443.842 8  81936222.35046  20009653.695                    20009661.613
 110797817.269 8  86335986.835 7  21084127.586                    21084135.957
 113935181.461 8  88780700.15746  21681140.172                    21681147.340
 115310667.834 8  89852498.14345  21942885.320                    21942892.727
 11  8 10 20  6 30.0000000  0  7G17G26G24G08G07G28G11
 113686914.761 7  88587283.156 7  21633891.469                    21633900.016
 119490222.571 7  93109325.14444  22738234.930                    22738243.633
 115144883.797 7  89723359.46545  21911327.172                    21911336.906
 105155662.191 8  81939509.37246  20010456.289                    20010464.801
 110860693.204 8  86384981.024 7  21096092.320                    21096100.387
 113913453.289 8  88763769.12246  21677005.563                    21677012.527
 115359058.591 8  89890205.20445  21952093.609                    21952101.500
 11  8 10 20  7  0.0000000  0  7G17G26G24G08G07G28G11
 113630227.253 7  88543111.124 7  21623104.227                    21623112.277
 119490442.534 7  93109496.53844  22738276.055                    22738286.102
 115144537.230 7  89723089.42045  21911261.141                    21911271.090
 105160438.223 8  81943230.94146  20011365.086                    20011373.352
 110924025.565 8  86434330.865 7  21108143.398                    21108151.949
 113891761.780 8  88746866.65145  21672878.164                    21672885.063
 115407979.414 8  89928325.32445  21961402.852                    21961410.328
 11  8 10 20  7 30.0000000  0  7G17G26G24G08G07G28G11
 113573905.019 7  88499223.700 7  21612386.203                    21612394.707
 119491260.866 7  93110134.18144  22738432.273                    22738441.457
 115144754.280 7  89723258.57245  21911302.547                    21911312.234
 105165773.327 8  81947388.15046  20012380.688                    20012388.227
 110987813.110 8  86484035.390 7  21120282.250                    21120290.711
 113870107.092 8  88729992.88145  21668757.094                    21668763.891
 115457429.108 8  89966857.55245  21970812.383                    21970820.430
 11  8 10 20  8  0.0000000  0  7G17G26G24G08G07G28G11
 113517947.657 7  88455620.614 7  21601737.852                    21601746.316
 119492676.449 7  93111237.22444  22738701.273                    22738711.090
 115145535.047 7  89723866.97945  21911450.898                    21911460.262
 105171667.666 8  81951981.11946  20013501.992                    20013510.637
 111052054.669 7  86534093.693 7  21132507.148                    21132515.148
 113848488.813 8  88713147.46946  21664643.227                    21664650.539
 115507405.756 8  90005800.37145  21980322.984                    21980330.984
 11  8 10 20  8 30.0000000  0  7G17G26G24G08G07G28G11
 113462355.454 7  88412302.060 7  21591158.875                    21591167.305
 119494689.027 7  93112805.43044  22739083.938                    22739094.188
 115146880.404 7  89724915.32745  21911706.984                    21911716.684
 105178122.749 8  81957011.04146  20014730.539                    20014738.625
 111116748.756 8  86584504.617 7  21144818.227                    21144826.590
 113826907.217 8  88696330.66846  21660536.445                    21660543.484
 115557907.917 8  90045152.69145  21989933.602                    21989941.258
 11  8 10 20  9  0.0000000  0  7G17G26G24G08G07G28G11
 113407129.436 7  88369268.829 7  21580650.211                    21580657.875
 119497297.750 7  93114838.19744  22739580.438                    22739590.332
 115148791.217 7  89726404.28845  21912070.797                    21912080.203
 105185139.706 8  81962478.78746  20016065.672                    20016074.035
 111181894.742 7  86635267.667 7  21157215.227                    21157222.820
 113805363.073 8  88679543.02746  21656436.977                    21656443.543
 115608933.935 8  90084913.22645  21999643.328                    21999651.086
 11  8 10 20  9 30.0000000  0  7G17G26G24G08G07G28G11
 113352269.404 7  88326520.785 7  21570210.523                    21570218.723
 119500501.533 7  93117334.62944  22740190.305                    22740199.875
 115151267.763 7  89728334.08745  21912541.742                    21912551.262
 105192719.303 8  81968384.94646  20017507.688                    20017516.203
 111247491.282 7  86686381.809 7  21169697.500                    21169705.914
 113783856.236 8  88662784.45546  21652343.797                    21652351.313
 115660482.213 8  90125080.71245  22009452.516                    22009460.285
 11  8 10 20 10  0.0000000  0  7G17G26G24G08G07G28G11
 113297775.757 7  88284058.235 7  21559840.648                    21559849.129
 119504299.521 7  93120294.08144  22740913.383                    22740922.672
 115154310.718 7  89730705.24345  21913120.695                    21913130.598
 105200862.635 8  81974730.38046  20019057.672                    20019065.203
 111313537.615 7  86737846.422 7  21182265.938                    21182274.148
 113762386.826 8  88646055.06346  21648258.867                    21648265.625
 115712551.203 7  90165653.93645  22019361.070                    22019368.711
 11  8 10 20 10 30.0000000  0  7G17G26G24G08G07G28G11
 113243648.559 7  88241881.229 7  21549540.789                    21549548.711
 119508690.837 7  93123715.88244  22741748.414                    22741758.039
 115157920.168 7  89733517.82145  21913807.625                    21913817.805
 105209570.238 8  81981515.50446  20020714.789                    20020723.043
 111380031.987 7  86789660.154 7  21194919.430                    21194927.754
 113740954.823 7  88629354.79546  21644180.430                    21644187.496
 115765139.037 7  90206631.46445  22029367.992                    22029376.227
 11  8 10 20 11  0.0000000  0  7G17G26G24G08G07G28G11
 113189888.737 7  88199990.490 7  21539310.602                    21539318.699
 119513674.797 7  93127599.45644  22742697.469                    22742706.711
 115162096.866 7  89736772.41445  21914602.438                    21914612.387
 105218843.485 8  81988741.39646  20022479.617                    20022487.848
 111446973.420 7  86841822.253 7  21207657.727                    21207666.074
 113719560.994 7  88612684.27746  21640109.055                    21640116.316
 115818244.320 7  90248012.20845  22039473.617                    22039480.926
 11  8 10 20 11 30.0000000  0  7G17G26G24G08G07G28G11
 113136495.963 7  88158385.763 7  21529149.922                    21529158.000
 119519249.761 7  93131943.57344  22743758.297                    22743767.727
 115166840.882 7  89740469.07845  21915505.320                    21915515.039
 105228682.591 8  81996408.22146  20024351.930                    20024359.867
 111514360.429 7  86894331.555 7  21220481.070                    21220489.699
 113698204.632 7  88596042.96046  21636045.094                    21636052.230
 115871864.914 7  90289794.48745  22049677.305                    22049685.027
 11  8 10 20 12  0.0000000  0  7G17G26G24G08G07G28G11
 113083471.274 7  88117067.855 7  21519059.883                    21519067.902
 119525415.681 7  93136748.16744  22744931.438                    22744941.012
 115172153.392 7  89744608.72345  21916516.031                    21916525.906
 105239089.739 8  82004517.66946  20026332.023                    20026340.234
 111582192.633 8  86947187.762 7  21233389.508                    21233397.961
 113676887.123 7  88579431.90546  21631989.070                    21631996.184
 115925999.972 7  90331977.64044  22059978.906                    22059986.289
 11  8 10 20 12 30.0000000  0  7G17G26G24G08G07G28G11
 113030814.920 8  88076036.973 7  21509039.750                    21509047.594
 119532171.449 7  93142012.39044  22746217.227                    22746226.484
 115178034.938 7  89749191.76945  21917635.336                    21917645.383
 105250065.548 8  82013070.23746  20028421.023                    20028428.605
 111650468.710 7  87000389.836 7  21246381.766                    21246390.273
 113655608.701 8  88562851.31646  21627939.586                    21627946.738
 115980647.540 8  90374560.17145  22070378.016                    22070385.793
 11  8 10 20 13  0.0000000  0  7G17G26G24G08G07G28G11
 112978526.382 7  88035292.686 7  21499089.422                    21499097.613
 119539515.706 7  93147735.16244  22747614.648                    22747624.098
 115184485.172 7  89754217.95145  21918863.070                    21918872.168
 105261610.173 8  82022066.03146  20030617.758                    20030625.488
 111719186.784 7  87053936.316 7  21259458.547                    21259466.707
 113634368.918 8  88546300.84046  21623897.586                    21623905.113
 116035805.400 7  90417540.30945  22080874.289                    22080881.941
 11  8 10 20 13 30.0000000  0  7G17G26G24G08G07G28G11
 112926605.853 8  87994835.158 7  21489209.227                    21489217.020
 119547446.637 7  93153915.09844  22749123.719                    22749133.676
 115191503.954 7  89759687.15545  21920198.336                    21920207.898
 105273723.616 8  82031505.05546  20032922.695                    20032930.891
 111788345.287 7  87107825.997 7  21272619.109                    21272627.512
 113613167.541 8  88529780.29146  21619863.313                    21619870.633
 116091471.664 8  90460916.62345  22091467.297                    22091475.430
 11  8 10 20 14  0.0000000  0  7G17G26G24G08G07G28G11
 112875053.617 8  87954664.628 7  21479399.023                    21479407.227
 119555963.683 7  93160551.74544  22750744.945                    22750754.266
 115199091.713 7  89765599.72845  21921642.289                    21921651.738
 105286406.950 8  82041388.14146  20035336.578                    20035344.652
 111857943.102 7  87162058.002 7  21285862.969                    21285871.449
 113592005.247 8  88513290.19946  21615836.219                    21615843.320
 116147644.251 7  90504687.44545  22102156.594                    22102164.195
 11  8 10 20 14 30.0000000  0  7G17G26G24G08G07G28G11
 112823870.273 8  87914781.542 7  21469658.773                    21469667.352
 119565066.186 7  93167644.60244  22752476.617                    22752486.223
 115207249.749 7  89771956.66345  21923194.484                    21923204.020
 105299661.827 8  82051716.59246  20037858.773                    20037866.633
 111927979.574 7  87216631.817 7  21299190.477                    21299199.234
 113570882.824 8  88496831.17746  21611816.766                    21611823.648
 116204321.995 7  90548851.92945  22112942.016                    22112949.594
 11  8 10 20 15  0.0000000  0  7G17G26G24G08G07G28G11
 112773056.059 8  87875186.093 7  21459989.469                    21459997.277
 119574752.807 7  93175192.59144  22754320.414                    22754329.805
 115215977.991 7  89778757.91145  21924855.734                    21924865.160
 105313488.986 8  82062490.97746  20040490.016                    20040498.227
 111998452.915 8  87271546.047 7  21312601.281                    21312609.438
 113549800.325 8  88480403.25946  21607804.914                    21607811.961
 116261503.179 7  90593408.70845  22123822.883                    22123830.863
 11  8 10 20 15 30.0000000  0  7G17G26G24G08G07G28G11
 112722610.483 8  87835877.879 7  21450390.047                    21450398.105
 119585021.879 7  93183194.46644  22756274.164                    22756283.746
 115225276.000 7  89786003.14145  21926624.750                    21926634.410
 105327888.161 8  82073711.08546  20043230.023                    20043238.125
 112069361.682 8  87326799.577 7  21326095.109                    21326103.391
 113528757.339 8  88464006.12846  21603800.539                    21603807.227
 116319185.266 7  90638355.78845  22134799.664                    22134807.633
 11  8 10 20 16  0.0000000  0  7G17G26G24G08G07G28G11
 112672534.058 8  87796857.338 7  21440860.664                    21440868.980
 119595872.288 7  93191649.31444  22758339.273                    22758348.262
 115235144.429 7  89793692.84545  21928502.641                    21928512.285
 105342860.271 8  82085377.63446  20046079.164                    20046087.328
 112140704.521 7  87382391.344 7  21339671.047                    21339679.047
 113507754.659 7  88447640.41246  21599803.813                    21599810.750
 116377366.697 7  90683691.98245  22145871.109                    22145878.547
 11  8 10 20 16 30.0000000  0  7G17G26G24G08G07G28G11
 112622827.434 8  87758124.945 7  21431401.586                    21431410.059
 119607303.603 7  93200556.80844  22760514.633                    22760524.109
 115245583.705 7  89801827.37745  21930489.461                    21930498.746
 105358406.972 8  82097491.91346  20049037.844                    20049046.555
 112212480.299 7  87438320.460 7  21353330.016                    21353338.055
 113486793.012 7  88431306.65346  21595815.109                    21595821.660
 116436046.223 7  90729416.25644  22157037.719                    22157044.867
 11  8 10 20 17  0.0000000  0  7G17G26G24G08G07G28G11
 112573490.281 8  87719680.456 7  21422013.125                    21422021.516
 119619314.002 7  93209915.52444  22762799.891                    22762809.352
 115256593.618 7  89810406.53545  21932584.586                    21932594.199
 105374527.936 8  82110053.67646  20052105.172                    20052113.426
 112284687.504 8  87494585.754 7  21367070.141                    21367078.621
 113465872.554 8  88415005.00746  21591833.859                    21591840.980
 116495221.427 7  90775526.79545  22168298.523                    22168306.473
 11  8 10 20 17 30.0000000  0  7G17G26G24G08G07G28G11
 112524521.881 8  87681523.295 7  21412694.633                    21412702.867
 119631901.685 7  93219724.08644  22765195.555                    22765205.539
 115268173.524 7  89819429.85745  21934787.992                    21934797.512
 105391223.035 8  82123062.82246  20055282.578                    20055290.586
 112357324.147 7  87551185.679 7  21380892.719                    21380901.199
 113444992.427 8  88398734.77946  21587860.781                    21587868.020
 116554889.941 7  90822021.74245  22179652.859                    22179660.543
 11  8 10 20 18  0.0000000  0  7G17G26G24G08G07G28G11
 112475923.163 8  87643654.198 7  21403446.594                    21403454.617
 119645065.560 7  93229981.62044  22767700.914                    22767710.184
 115280324.314 7  89828898.01745  21937100.234                    21937109.949
 105408493.316 8  82136520.14946  20058568.891                    20058576.914
 112430389.122 7  87608119.341 7  21394796.039                    21394804.762
 113424154.007 8  88382497.05146  21583894.875                    21583902.258
 116615050.224 7  90868899.87945  22191101.039                    22191108.754
 11  8 10 20 18 30.0000000  0  7G17G26G24G08G07G28G11
 112427694.220 7  87606073.245 7  21394268.727                    21394277.074
 119658804.816 7  93240687.51044  22770314.820                    22770324.297
 115293046.083 7  89838811.10445  21939521.234                    21939530.539
 105426340.102 8  82150426.70946  20061965.172                    20061973.422
 112503881.427 7  87665386.015 7  21408781.352                    21408790.270
 113403357.507 8  88366291.98746  21579937.500                    21579944.777
 116675700.519 7  90916159.85345  22202642.563                    22202649.922
 11  8 10 20 19  0.0000000  0  7G17G26G24G08G07G28G11
 112379835.117 8  87568780.476 7  21385161.492                    21385169.828
 119673117.933 7  93251840.57544  22773038.328                    22773047.898
 115306338.947 7  89849169.18745  21942050.633                    21942059.988
 105444763.654 8  82164782.69846  20065470.906                    20065479.375
 112577799.584 8  87722984.524 7  21422847.531                    21422856.262
 113382603.310 8  88350119.88646  21575988.383                    21575995.426
 116736838.814 7  90963800.06045  22214276.813                    22214284.848
 11  8 10 20 19 30.0000000  0  7G17G26G24G08G07G28G11
 112332346.371 8  87531776.296 7  21376125.141                    21376132.820
 119688003.659 7  93263439.79244  22775871.805                    22775881.035
 115320202.991 7  89859972.35745  21944689.070                    21944698.641
 105463764.343 8  82179588.40846  20069086.523                    20069094.793
 112652141.631 8  87780913.328 7  21436994.586                    21437003.207
 113361892.184 8  88333981.36446  21572046.836                    21572054.023
 116798463.052 7  91011818.94644  22226003.148                    22226010.984
 11  8 10 20 20  0.0000000  0  7G17G26G24G08G07G28G11
 112285227.014 8  87495059.939 7  21367158.484                    21367166.535
 119703460.122 7  93275483.75444  22778812.734                    22778822.535
 115334637.825 7  89871220.31545  21947435.711                    21947445.074
 105483342.180 8  82194843.84446  20072812.320                    20072820.105
 112726906.082 8  87839171.285 7  21451221.664                    21451230.211
 113341223.640 8  88317876.00446  21568113.891                    21568121.031
 116860571.112 7  91060214.82945  22237821.859                    22237829.684
 11  8 10 20 20 30.0000000  0  7G17G26G24G08G07G28G11
 112238477.280 8  87458631.602 7  21358261.922                    21358270.000
 119719485.958 7  93287971.38644  22781863.086                    22781872.184
 115349643.239 8  89882912.86145  21950291.172                    21950300.758
 105503497.690 8  82210549.41346  20076647.586                    20076655.859
 112802091.498 8  87897757.261 7  21465529.227                    21465538.090
 113320598.076 8  88301804.13546  21564189.156                    21564195.828
 116923160.825 7  91108986.01545  22249731.797                    22249740.355
 11  8 10 20 21  0.0000000  0  7G17G26G24G08G07G28G11
 112192097.754 8  87422491.758 7  21349436.234                    21349444.281
 119736079.919 7  93300901.72044  22785020.336                    22785029.414
 115365219.656 8  89895050.33545  21953255.008                    21953264.691
 105524231.733 8  82226705.78646  20080593.016                    20080601.414
 112877696.593 8  87956670.272 7  21479916.164                    21479924.941
 113300016.438 8  88285766.49346  21560272.352                    21560279.449
 116986230.677 7  91158131.32645  22261734.625                    22261742.195
 11  8 10 20 21 30.0000000  0  7G17G26G24G08G07G28G11
 112146088.039 8  87386640.057 7  21340681.156                    21340688.965
 119753240.313 7  93314273.43544  22788285.891                    22788295.594
 115381366.593 7  89907632.36245  21956327.977                    21956337.770
 105545544.320 8  82243312.97246  20084648.867                    20084657.188
 112953719.711 8  88015909.009 7  21494383.203                    21494392.195
 113279478.922 8  88269763.23646  21556364.086                    21556371.105
 117049778.364 7  91207648.99444  22273826.984                    22273835.039
 11  8 10 20 22  0.0000000  0  7G17G26G24G08G07G28G11
 112100448.158 8  87351076.547 7  21331996.172                    21332003.727
 119770965.661 7  93328085.36544  22791658.570                    22791667.746
 115398084.354 8  89920659.21445  21959509.148                    21959518.613
 105567435.921 8  82260371.34846  20088814.484                    20088823.004
 113030159.252 8  88075472.233 7  21508929.063                    21508937.906
 113258985.844 8  88253794.61246  21552464.766                    21552471.441
 117113801.681 7  91257537.27345  22286010.125                    22286017.844
 11  8 10 20 22 30.0000000  0  7G17G26G24G08G07G28G11
 112055178.945 7  87315801.854 7  21323381.563                    21323389.832
 119789255.116 7  93342336.85344  22795139.195                    22795148.297
 115415373.250 7  89934131.09745  21962798.984                    21962808.621
 105589907.881 8  82277881.94946  20093090.977                    20093099.379
 113107014.170 7  88135359.143 7  21523553.898                    21523562.395
 113238538.411 8  88237861.55046  21548573.195                    21548580.492
 117178299.275 7  91307795.12244  22298283.711                    22298291.496
 11  8 10 20 23  0.0000000  0  7G17G26G24G08G07G28G11
 112010279.196 8  87280815.069 7  21314837.305                    21314845.320
 119808106.425 7  93357026.15044  22798726.836                    22798735.844
 115433232.372 7  89948047.30345  21966197.898                    21966207.145
 105612959.544 8  82295844.25946  20097477.469                    20097486.063
 113184282.278 8  88195567.995 7  21538257.688                    21538266.137
 113218136.123 8  88221963.66646  21544690.969                    21544697.672
 117243268.634 7  91358420.57744  22310647.148                    22310654.715
 11  8 10 20 23 30.0000000  0  7G17G26G24G08G07G28G11
 111965749.438 8  87246116.573 7  21306363.703                    21306371.355
 119827518.117 7  93372152.11344  22802419.961                    22802429.688
 115451661.453 7  89962407.65045  21969704.578                    21969714.125
 105636591.186 8  82314258.51046  20101974.641                    20101982.734
 113261962.048 8  88256097.633 7  21553039.844                    21553048.383
 113197779.428 8  88206101.29446  21540817.320                    21540824.188
 117308707.409 7  91409411.80245  22323099.930                    22323107.449
 11  8 10 20 24  0.0000000  0  7G17G26G24G08G07G28G11
 111921589.542 8  87211706.277 7  21297960.156                    21297968.156
 119847488.565 7  93387713.48444  22806220.797                    22806229.867
 115470660.757 7  89977212.31745  21973320.188                    21973329.523
 105660803.243 8  82333125.02946  20106582.117                    20106589.938
 113340052.032 8  88316946.912 7  21567899.813                    21567908.297
 113177469.337 8  88190275.25746  21536952.445                    21536959.246
 117374613.837 7  91460767.44945  22335641.516                    22335648.867
 11  8 10 20 24 30.0000000  0  7G17G26G24G08G07G28G11
 111877799.816 8  87177584.438 7  21289627.398                    21289635.523
 119868016.703 7  93403709.39944  22810127.094                    22810136.074
 115490229.988 7  89992461.09045  21977043.602                    21977052.855
 105685596.565 8  82352444.48246  20111300.211                    20111308.465
 113418550.777 8  88378114.682 7  21582837.672                    21582846.785
 113157206.401 8  88174485.95446  21533096.516                    21533103.348
 117440985.997 7  91512485.98244  22348271.547                    22348279.242
 11  8 10 20 25  0.0000000  0  7G17G26G24G08G07G28G11
 111834379.144 8  87143750.175 7  21281364.648                    21281373.008
 119889099.502 7  93420137.53644  22814139.039                    22814148.250
 115510367.872 7  90008152.96445  21980875.867                    21980885.469
 105710969.480 8  82372215.56046  20116128.359                    20116136.512
 113497455.947 7  88439599.186 7  21597852.797                    21597861.590
 113136989.791 8  88158732.74446  21529249.469                    21529256.301
 117507820.621 7  91564564.88944  22360989.508                    22360997.324
 11  8 10 20 25 30.0000000  0  7G17G26G24G08G07G28G11
 111791327.606 8  87110203.541 7  21273171.984                    21273180.195
 119910735.960 7  93436997.08645  22818255.992                    22818265.637
 115531074.711 7  90024288.16745  21984816.289                    21984825.621
 105736922.922 8  82392439.01146  20121067.195                    20121075.270
 113576765.897 7  88501399.081 7  21612945.125                    21612954.727
 113116820.658 8  88143016.53846  21525411.492                    21525418.348
 117575116.005 7  91617002.83144  22373795.742                    22373803.348
 11  8 10 20 26  0.0000000  0  7G17G26G24G08G07G28G11
 111748645.468 8  87076944.762 7  21265050.047                    21265057.734
 119932924.518 7  93454286.84344  22822478.523                    22822488.008
 115552350.384 7  90040866.63045  21988864.883                    21988874.469
 105763457.378 8  82413115.18646  20126116.563                    20126124.773
 113656479.197 7  88563513.273 7  21628114.164                    21628122.797
 113096699.832 8  88127337.96546  21521582.563                    21521589.273
 117642870.462 7  91669798.50344  22386688.789                    22386696.793
 11  8 10 20 26 30.0000000  0  7G17G26G24G08G07G28G11
 111706332.634 8  87043973.742 7  21256998.039                    21257006.211
 119955663.391 7  93472005.41644  22826805.664                    22826815.051
 115574194.538 7  90057888.04345  21993021.727                    21993031.211
 105790573.194 8  82434244.38046  20131276.523                    20131284.617
 113736594.240 7  88625940.511 7  21643359.625                    21643368.484
 113076627.477 8  88111697.16746  21517762.750                    21517769.719
 117711081.718 7  91722950.11144  22399669.422                    22399677.059
 11  8 10 20 27  0.0000000  0  7G17G26G24G08G07G28G11
 111664389.043 8  87011290.456 7  21249016.891                    21249024.520
 119978950.747 7  93490151.38644  22831236.844                    22831246.676
 115596606.944 7  90075352.26145  21997286.625                    21997296.121
 105818270.382 8  82455826.58246  20136547.086                    20136555.516
 113817109.198 7  88688679.369 7  21658681.102                    21658690.004
 113056604.291 8  88096094.68946  21513952.195                    21513959.605
 117779747.697 7  91776456.05444  22412735.617                    22412743.805
 11  8 10 20 27 30.0000000  0  7G17G26G24G08G07G28G11
 111622814.501 8  86978894.745 7  21241105.063                    21241112.871
 120002785.091 7  93508723.57444  22835772.539                    22835781.996
 115619587.073 7  90093258.85145  22001659.391                    22001669.000
 105846548.852 8  82477861.73346  20141928.039                    20141936.266
 113898022.523 8  88751728.636 7  21674078.625                    21674087.523
 113036631.197 8  88080531.24546  21510151.656                    21510158.645
 117848866.056 7  91830314.48444  22425888.594                    22425896.461
 11  8 10 20 28  0.0000000  0  7G17G26G24G08G07G28G11
 111581608.588 8  86946786.270 7  21233263.930                    21233271.563
 120027164.329 7  93527720.35044  22840411.695                    22840421.492
 115643134.422 7  90111607.43845  22006140.531                    22006150.344
 105875408.801 8  82500349.97846  20147420.094                    20147428.590
 113979332.467 7  88815086.968 7  21689551.289                    21689560.887
 113016708.024 8  88065006.70746  21506360.391                    21506368.074
 117918434.315 7  91884523.49244  22439127.313                    22439134.184
 11  8 10 20 28 30.0000000  0  7G17G26G24G08G07G28G11
 111540771.227 8  86914964.977 7  21225492.727                    21225500.297
 120052086.371 7  93547140.06944  22845154.406                    22845164.230
 115667248.409 7  90130397.57145  22010728.836                    22010738.820
 105904849.693 8  82523290.90546  20153022.516                    20153030.691
 114061037.011 8  88878752.765 7  21705099.398                    21705107.941
 112996835.210 8  88049521.40246  21502578.641                    21502585.750
 117988450.424 7  91939081.49244  22452450.359                    22452458.086
 11  8 10 20 29  0.0000000  0  7G17G26G24G08G07G28G11
 111500301.877 8  86883430.455 7  21217791.664                    21217799.684
 120077549.420 7  93566981.37144  22849999.352                    22850009.676
 115691928.565 7  90149628.85445  22015425.844                    22015435.102
 105934871.787 8  82546684.71846  20158735.539                    20158743.750
 114143134.143 7  88942724.482 7  21720722.281                    21720730.785
 112977013.111 8  88034075.62746  21498806.688                    21498813.938
 118058912.079 7  91993986.67344  22465858.555                    22465866.508
 11  8 10 20 29 30.0000000  0  7G17G26G24G08G07G28G11
 111460200.957 8  86852183.025 7  21210160.867                    21210168.559
 120103552.322 7  93587243.34244  22854948.180                    22854957.223
 115717174.901 7  90169301.32445  22020229.711                    22020239.430
 105965475.911 8  82570532.05846  20164559.500                    20164567.809
 114225622.928 7  89007001.379 7  21736419.117                    21736427.559
 112957243.191 8  88018670.51246  21495044.945                    21495051.730
 118129817.321 7  92049237.47744  22479351.852                    22479359.785
 11  8 10 20 30  0.0000000  0  7G17G26G24G08G07G28G11
 111420468.351 8  86821222.597 7  21202599.836                    21202607.375
 120130092.963 7  93607924.31944  22859998.445                    22860007.910
 115742986.718 7  90189414.42145  22025141.734                    22025151.449
 105996662.005 8  82594832.87446  20170494.180                    20170502.273
 114308501.582 8  89071582.073 7  21752190.531                    21752199.422
 112937525.800 8  88003306.32346  21491292.688                    21491299.371
 118201163.822 7  92104832.14644  22492929.047                    22492936.738
 11  8 10 20 30 30.0000000  0  8G17G26G04G24G08G07G28G11
 111381102.788 8  86790548.181 7  21195108.617                    21195116.520
 120157168.558 7  93629022.16544  22865150.695                    22865160.527
 129264309.33316 100725535.98052  24598190.281                    24598205.926
 115769362.464 7  90209966.96145  22030160.719                    22030170.266
 106028428.338 8  82619585.82746  20176538.977                    20176547.066
 114391767.452 7  89136464.495 7  21768035.563                    21768044.133
 112917860.354 8  87987982.60946  21487550.414                    21487557.160
 118272948.506 7  92160768.24744  22506588.914                    22506596.602
 11  8 10 20 31  0.0000000  0  8G17G26G04G24G08G07G28G11
 111342102.595 8  86760158.457 7  21187687.180                    21187695.109
 120184775.550 7  93650534.05444  22870404.688                    22870414.105
 129151475.037 6 100637613.67442  24576718.867                    24576735.758
 115796300.343 7  90230957.50445  22035286.992                    22035296.492
 106060773.733 8  82644789.99746  20182694.273                    20182701.953
 114475416.953 8  89201645.846 7  21783953.508                    21783962.383
 112898246.666 8  87972699.23046  21483817.945                    21483824.773
 118345167.717 7  92217042.93544  22520331.805                    22520339.152
 11  8 10 20 31 30.0000000  0  8G17G26G04G24G08G07G28G11
 111303468.795 8  86730054.211 7  21180335.430                    21180343.004
 120212913.625 7  93672459.79744  22875758.742                    22875768.758
 129038577.047 6 100549641.68643  24555234.961                    24555251.852
 115823801.044 7  90252386.63545  22040520.211                    22040529.641
 106093699.302 8  82670446.25446  20188959.703                    20188968.066
 114559449.509 8  89267125.683 7  21799944.656                    21799953.453
 112878686.067 8  87957457.22946  21480095.875                    21480102.543
 118417820.505 7  92273655.48544  22534157.477                    22534164.656
 11  8 10 20 32  0.0000000  0  8G17G26G04G24G08G07G28G11
 111265202.260 8  86700236.162 7  21173053.641                    21173061.629
 120241581.619 7  93694798.45944  22881214.391                    22881223.523
 128925619.087 6 100461623.03043  24533739.508                    24533756.527
 115851864.967 7  90274254.63445  22045860.633                    22045870.227
 106127205.812 8  82696555.19346  20195335.461                    20195344.172
 114643864.517 8  89332903.541 7  21816008.133                    21816017.105
 112859180.457 8  87942258.07046  21476384.070                    21476391.184
 118490905.461 7  92330604.78444  22548064.359                    22548072.922
 11  8 10 20 32 30.0000000  0  8G17G26G04G24G08G07G28G11
 111227302.565 8  86670703.952 7  21165841.766                    21165849.199
 120270777.570 7  93717548.48644  22886770.148                    22886779.598
 128812603.569 6 100373559.40443  24512232.633                    24512249.980
 115880491.602 7  90296561.11645  22051308.016                    22051317.809
 106161293.326 8  82723116.85546  20201822.727                    20201831.035
 114728660.030 7  89398977.876 7  21832144.266                    21832153.531
 112839730.227 8  87927102.06046  21472682.773                    21472689.465
 118564420.449 7  92387889.16044  22562054.570                    22562062.145
 11  8 10 20 33  0.0000000  0  8G17G26G04G24G08G07G28G11
 111189769.693 8  86641457.587 7  21158699.203                    21158707.133
 120300499.471 7  93740708.37244  22892426.383                    22892435.473
 128699533.163 6 100285453.05043  24490715.891                    24490733.480
 115909680.307 7  90319305.56145  22056862.508                    22056872.145
 106195961.699 8  82750131.14646  20208419.625                    20208428.023
 114813834.547 7  89465347.563 7  21848352.063                    21848361.441
 112820336.199 8  87911989.83346  21468992.117                    21468999.246
 118638362.994 7  92445506.71544  22576125.016                    22576132.676
 11  8 10 20 33 30.0000000  0  8G17G26G04G24G08G07G28G11
 111152602.946 8  86612496.497 7  21151626.602                    21151634.621
 120330745.323 7  93764276.54444  22898181.656                    22898191.438
 128586410.292 6 100197305.79843  24469189.117                    24469205.848
 115939430.040 7  90342487.18145  22062523.859                    22062533.262
 106231210.638 8  82777597.81846  20215127.102                    20215135.789
 114899385.692 7  89532010.703 7  21864632.156                    21864641.164
 112800998.731 8  87896921.67446  21465312.203                    21465319.082
 118712730.606 7  92503455.49144  22590276.836                    22590284.340
 11  8 10 20 34  0.0000000  0  8G17G26G04G24G08G07G28G11
 111115802.337 8  86583820.715 7  21144623.305                    21144631.297
 120361512.817 7  93788251.18044  22904036.625                    22904046.031
 128473237.462 6 100109119.59543  24447652.555                    24447669.625
 115969740.157 7  90366105.44545  22068291.531                    22068300.863
 106267039.761 8  82805516.57946  20221945.227                    20221953.801
 114985311.500 7  89598965.799 7  21880983.602                    21880992.594
 112781718.545 8  87881898.15946  21461643.484                    21461650.352
 118787521.163 7  92561733.81844  22604508.898                    22604516.742
 11  8 10 20 34 30.0000000  0  8G17G26G04G24G08G07G28G11
 111079367.113 8  86555429.643 7  21137690.031                    21137698.352
 120392799.708 7  93812630.51344  22909990.102                    22909999.727
 128360017.306 6 100020896.57043  24426107.391                    24426124.066
 116000609.633 7  90390159.60245  22074165.781                    22074175.238
 106303448.463 8  82833886.97146  20228873.578                    20228882.012
 115071610.134 7  89666211.444 7  21897405.773                    21897414.422
 112762495.865 8  87866919.45746  21457985.406                    21457992.641
 118862731.767 7  92620339.46444  22618821.164                    22618828.758
 11  8 10 20 35  0.0000000  0  8G17G26G04G24G08G07G28G11
 111043297.034 8  86527323.109 7  21130826.492                    21130834.887
 120424603.823 7  93837412.87544  22916042.289                    22916052.059
 128246752.375 6  99932638.63243  24404552.867                    24404569.492
 116032037.828 7  90414649.13245  22080146.078                    22080155.734
 106340436.575 8  82862708.85246  20235912.344                    20235920.516
 115158279.600 7  89733746.002 7  21913898.570                    21913907.289
 112743331.588 8  87851986.26346  21454338.711                    21454345.559
 118938360.563 7  92679270.97544  22633211.938                    22633220.535
 11  8 10 20 35 30.0000000  0  8G17G26G04G24G08G07G28G11
 111007591.865 8  86499500.914 7  21124031.898                    21124039.762
 120456923.194 7  93862596.77044  22922193.063                    22922202.516
 128133445.097 6  99844347.67443  24382990.578                    24383007.449
 116064023.849 7  90439573.31845  22086233.609                    22086242.211
 106378003.580 8  82891981.80746  20243061.188                    20243069.648
 115245317.873 7  89801567.955 7  21930460.898                    21930470.379
 112724226.419 8  87837099.12346  21450703.063                    21450710.117
 119014404.862 7  92738526.26344  22647683.258                    22647691.102
 11  8 10 20 36  0.0000000  0  8G17G26G04G24G08G07G28G11
 110972250.922 8  86471962.539 7  21117306.539                    21117314.445
 120489755.707 7  93888180.49244  22928440.469                    22928449.824
 128020098.344 6  99756025.94942  24361421.406                    24361437.793
 116096566.976 7  90464931.62545  22092425.984                    22092435.414
 106416149.337 8  82921705.74546  20250320.336                    20250328.664
 115332723.043 7  89869675.803 7  21947093.719                    21947103.254
 112705181.135 8  87822258.64046  21447078.961                    21447085.766
 119090862.183 7  92798103.37544  22662232.820                    22662240.766
 11  8 10 20 36 30.0000000  0  8G17G26G04G24G08G07G28G11
 110937273.906 8  86444707.739 7  21110650.625                    21110658.695
 120523099.127 7  93914162.33544  22934785.734                    22934795.379
 127906714.479 6  99667675.36742  24339845.484                    24339861.852
 116129666.400 7  90490723.41245  22098724.336                    22098733.680
 106454873.507 8  82951880.38646  20257688.984                    20257697.406
 115420493.178 7  89938068.025 7  21963796.344                    21963805.328
 112686195.942 8  87807464.99246  21443466.086                    21443472.887
 119167730.312 7  92858000.60544  22676860.281                    22676867.984
 11  8 10 20 37  0.0000000  0  8G17G26G04G24G08G07G28G11
 110902660.203 8  86417736.050 7  21104064.039                    21104071.809
 120556950.959 7  93940540.35044  22941227.313                    22941237.098
 127793295.968 6  99579297.77342  24318261.750                    24318278.402
 116163320.911 7  90516947.73145  22105128.289                    22105138.098
 106494175.022 8  82982504.91346  20265167.945                    20265176.539
 115508626.146 7  90006742.976 7  21980567.156                    21980576.160
 112667271.636 8  87792718.77146  21439865.023                    21439871.840
 119245006.559 7  92918215.82844  22691565.734                    22691573.492
 11  8 10 20 37 30.0000000  0  8G17G26G04G24G08G07G28G11
 110868410.015 8  86391047.625 7  21097546.500                    21097554.313
 120591309.285 7  93967313.03444  22947765.414                    22947775.277
 127679845.780 6  99490895.43442  24296672.148                    24296688.727
 116197530.021 7  90543604.20345  22111638.258                    22111647.461
 106534054.130 8  83013579.50646  20272756.586                    20272765.234
 115597120.121 7  90075699.240 7  21997407.320                    21997416.703
 112648409.193 8  87778020.77246  21436275.203                    21436282.227
 119322688.727 7  92978747.35744  22706347.781                    22706355.934
 11  8 10 20 38  0.0000000  0  8G17G26G04G24G08G07G28G11
 110834522.010 8  86364641.418 7  21091097.438                    21091105.449
 120626171.188 7  93994478.11844  22954399.594                    22954409.301
 127566366.147 6  99402470.10043  24275077.930                    24275093.883
 116232292.078 7  90570691.53345  22118253.195                    22118262.754
 106574509.789 8  83045103.35346  20280455.227                    20280463.535
 115685972.622 7  90144934.887 7  22014315.414                    22014324.211
 112629608.585 8  87763370.94546  21432697.930                    21432704.855
 119400773.855 7  93039592.89844  22721207.023                    22721214.426
 11  8 10 20 38 30.0000000  0  8G17G26G04G24G08G07G28G11
 110800995.771 8  86338517.095 7  21084717.813                    21084725.715
 120661534.706 7  94022034.07044  22961128.703                    22961138.746
 127452859.497 6  99314023.77743  24253478.125                    24253494.641
 116267606.154 7  90598209.01045  22124973.000                    22124983.016
 106615541.580 8  83077076.14746  20288263.242                    20288271.676
 115775182.057 7  90214448.658 7  22031291.211                    22031300.313
 112610870.696 8  87748770.00646  21429132.547                    21429138.887
 119479259.866 7  93100750.81444  22736142.516                    22736150.094
 11  8 10 20 39  0.0000000  0  8G17G26G04G24G08G07G28G11
 110767831.391 8  86312674.746 7  21078406.672                    21078414.801
 120697397.907 7  94049979.37744  22967953.609                    22967963.809
 127339328.921 7  99225558.84443  24231873.734                    24231889.383
 116303471.915 7  90626156.34645  22131798.305                    22131807.520
 106657149.344 8  83109497.74046  20296181.133                    20296189.617
 115864746.249 8  90284238.859 7  22048335.078                    22048344.363
 112592196.630 8  87734218.79346  21425578.445                    21425585.383
 119558144.339 7  93162219.21944  22751154.000                    22751161.730
 11  8 10 20 39 30.0000000  0  8G17G26G04G24G08G07G28G11
 110735028.688 8  86287114.223 7  21072164.383                    21072172.207
 120733758.547 7  94078312.30044  22974872.133                    22974882.355
 127225777.336 7  99137077.45743  24210264.695                    24210280.723
 116339888.430 7  90654532.86245  22138728.539                    22138737.434
 106699332.526 8  83142367.71546  20304208.391                    20304216.727
 115954663.258 8  90354303.968 7  22065445.820                    22065455.008
 112573587.366 8  87719718.07146  21422037.117                    21422044.148
 119637424.870 7  93223996.24244  22766240.344                    22766248.137
 11  8 10 20 40  0.0000000  0  8G17G26G04G24G08G07G28G11
 110702586.992 8  86261834.996 7  21065991.063                    21065998.785
 120770614.244 7  94107030.99344  22981886.242                    22981895.973
 127112207.436 6  99048581.81143  24188652.391                    24188668.852
 116376854.855 7  90683337.88545  22145762.828                    22145772.188
 106742090.792 8  83175685.81246  20312344.938                    20312353.164
 116044931.097 7  90424642.480 7  22082622.859                    22082632.426
 112555043.445 7  87705268.26846  21418508.523                    21418515.199
 119717099.133 7  93286080.03944  22781402.219                    22781409.664
 11  8 10 20 40 30.0000000  0  8G17G26G04G24G08G07G28G11
 110670505.363 8  86236836.350 7  21059886.063                    21059893.695
 120807962.233 7  94136133.27344  22988993.359                    22989003.637
 126998621.324 6  98960073.53744  24167037.648                    24167054.137
 116414369.736 7  90712570.27245  22152901.273                    22152910.910
 106785422.501 8  83209450.75146  20320590.641                    20320599.059
 116135547.387 7  90495252.488 7  22099867.047                    22099876.070
 112536565.226 8  87690869.64846  21414992.320                    21414999.207
 119797164.181 7  93348468.38044  22796638.102                    22796645.055
 11  8 10 20 41  0.0000000  0  8G17G26G04G24G08G07G28G11
 110638783.647 8  86212118.145 7  21053849.766                    21053857.590
 120845800.570 7  94165617.63344  22996193.906                    22996203.688
 126885021.824 6  98871554.82643  24145420.242                    24145436.523
 116452431.945 7  90742229.13745  22160144.406                    22160153.480
 106829327.745 8  83243662.60346  20328945.641                    20328954.172
 116226510.475 7  90566132.730 7  22117176.273                    22117185.336
 112518153.665 8  87676522.98246  21411488.539                    21411495.707
 119877617.843 7  93411159.51344  22811947.789                    22811955.797
 11  8 10 20 41 30.0000000  0  8G17G26G04G24G08G07G28G11
 110607421.085 8  86187679.812 7  21047881.594                    21047889.520
 120884126.762 7  94195482.16544  23003486.961                    23003497.563
 126771411.480 6  98783027.66743  24123801.469                    24123816.750
 116491040.257 7  90772313.53745  22167491.625                    22167500.836
 106873805.856 8  83278320.84846  20337409.680                    20337417.945
 116317818.147 7  90637281.489 7  22134551.328                    22134561.195
 112499809.496 8  87662228.82746  21407997.789                    21408005.211
 119958457.904 7  93474151.73044  22827330.867                    22827338.988
 11  8 10 20 42  0.0000000  0  8G17G26G04G24G08G07G28G11
 110576417.541 8  86163521.227 7  21041981.852                    21041989.730
 120922938.329 7  94225724.90244  23010873.063                    23010882.992
 126657793.388 6  98694494.44943  24102180.414                    24102195.652
 116530193.960 7  90802822.91445  22174942.242                    22174951.301
 106918856.083 8  83313424.89146  20345982.602                    20345990.715
 116409468.270 7  90708697.082 7  22151992.469                    22152001.977
 112481533.634 8  87647987.89746  21404520.258                    21404527.117
 120039681.537 7  93537442.84544  22842787.352                    22842795.219
 11  8 10 20 42 30.0000000  0  8G17G26G04G24G08G07G28G11
 110545772.691 8  86139642.141 7  21036150.203                    21036158.184
 120962233.107 7  94256344.16544  23018349.563                    23018360.242
 126544170.308 6  98605957.36843  24080557.289                    24080572.879
 116569892.117 7  90833756.53345  22182496.617                    22182505.723
 106964478.181 8  83348974.54946  20354663.961                    20354672.473
 116501458.993 7  90780378.074 7  22169497.758                    22169506.707
 112463327.123 8  87633801.01346  21401055.695                    21401062.672
 120121286.441 7  93601031.06144  22858316.398                    22858323.750
 11  8 10 20 43  0.0000000  0  8G17G26G04G24G08G07G28G11
 110515485.515 8  86116041.768 7  21030386.648                    21030394.738
 121002008.477 7  94287337.91544  23025919.695                    23025929.578
 126430544.548 6  98517418.17443  24058934.984                    24058950.414
 116610133.152 7  90865113.18345  22190154.094                    22190163.531
 107010670.979 8  83384968.90646  20363454.016                    20363462.277
 116593788.098 7  90852322.741 7  22187067.625                    22187077.125
 112445190.562 8  87619668.62646  21397604.211                    21397610.941
 120203269.947 7  93664914.28444  22873917.000                    22873925.031
 11  8 10 20 43 30.0000000  0  8G17G26G04G24G08G07G28G11
 110485555.137 8  86092719.411 7  21024691.055                    21024699.289
 121042261.725 7  94318704.03144  23033579.391                    23033589.477
 126316918.757 6  98428878.95343  24037312.617                    24037327.691
 116650915.685 8  90896891.77545  22197914.477                    22197924.309
 107057433.123 8  83421406.90346  20372352.594                    20372360.949
 116686453.049 7  90924529.114 7  22204700.789                    22204710.250
 112427123.778 8  87605590.60946  21394166.070                    21394172.996
 120285629.185 7  93729090.28844  22889589.781                    22889597.879
 11  8 10 20 44  0.0000000  0  8G17G26G04G24G08G07G28G11
 110455981.650 8  86069675.162 7  21019063.539                    21019071.363
 121082990.761 7  94350440.88444  23041330.086                    23041339.949
 126203295.902 6  98340342.03543  24015691.430                    24015706.277
 116692239.125 7  90929091.86945  22205777.633                    22205787.703
 107104764.729 8  83458288.65046  20381359.484                    20381368.066
 116779452.109 7  90996995.826 7  22222398.289                    22222407.719
 112409128.661 8  87591568.44846  21390741.875                    21390748.707
 120368361.997 7  93793557.39144  22905333.211                    22905341.480
 11  8 10 20 44 30.0000000  0  8G17G26G04G24G08G07G28G11
 110426764.268 8  86046908.402 7  21013503.430                    21013511.566
 121124193.066 7  94382546.50244  23049170.391                    23049180.449
 126089678.714 7  98251809.50943  23994070.133                    23994085.887
 116734102.056 7  90961712.33645  22213744.539                    22213754.219
 107152664.968 8  83495613.47946  20390474.859                    20390483.250
 116872782.889 7  91069721.021 7  22240158.602                    22240168.625
 112391206.060 8  87577602.78646  21387331.398                    21387338.125
 120451465.926 7  93858313.68544  22921147.352                    22921155.188
 11  8 10 20 45  0.0000000  0  8G17G26G04G24G08G07G28G11
 110397902.367 8  86024418.633 7  21008011.203                    21008019.191
 121165865.954 7  94415018.83744  23057100.688                    23057110.684
 125976069.770 7  98163283.39843  23972451.188                    23972466.250
 116776502.789 8  90994751.87445  22221813.570                    22221822.723
 107201132.285 8  83533380.19046  20399697.766                    20399706.094
 116966443.241 7  91142703.023 7  22257981.578                    22257991.488
 112373356.204 8  87563693.80846  21383934.969                    21383941.762
 120534938.136 7  93923356.93444  22937031.977                    22937039.801
 11  8 10 20 45 30.0000000  0  8G17G26G04G24G08G07G28G11
 110369394.932 8  86002205.082 7  21002586.547                    21002594.336
 121208006.920 7  94447855.90244  23065120.031                    23065129.895
 125862471.460 7  98074765.55643  23950833.586                    23950848.504
 116819440.141 7  91028209.54545  22229983.594                    22229993.152
 107250166.100 8  83571588.32046  20409028.406                    20409036.824
 117060431.001 7  91215940.143 7  22275867.016                    22275876.801
 112355580.141 8  87549842.33546  21380551.984                    21380559.223
 120618776.309 7  93988685.35044  22952985.820                    22952993.242
 11  8 10 20 46  0.0000000  0  8G17G26G04G24G08G07G28G11
 110341241.944 8  85980267.704 7  20997229.313                    20997236.766
 121250613.531 7  94481055.80744  23073227.867                    23073237.734
 125748887.050 7  97986258.56743  23929218.648                    23929233.320
 116862913.035 7  91062084.52545  22238256.461                    22238265.984
 107299765.929 8  83610237.50746  20418467.328                    20418475.914
 117154743.977 7  91289430.671 7  22293813.695                    22293823.664
 112337878.737 8  87536049.03346  21377183.617                    21377190.266
 120702977.972 7  94054297.01144  22969009.023                    22969016.953
 11  8 10 20 46 30.0000000  0  8G17G26G04G24G08G07G28G11
 110313442.408 8  85958605.760 7  20991938.938                    20991946.855
 121293683.109 7  94514616.46844  23081423.141                    23081433.652
 125635319.001 7  97897764.30843  23907607.469                    23907621.371
 116906920.050 8  91096375.70145  22246630.648                    22246640.500
 107349930.403 8  83649326.66246  20428013.359                    20428021.813
 117249380.143 7  91363173.063 7  22311822.875                    22311832.613
 112320252.696 8  87522314.47046  21373829.430                    21373836.508
 120787540.387 7  94120189.78244  22985100.531                    22985108.301
 11  8 10 20 47  0.0000000  0  8G17G26G04G24G08G07G28G11
 110285996.177 8  85937219.106 7  20986716.148                    20986724.230
 121337213.127 7  94548535.89644  23089706.578                    23089717.617
 125521770.178 7  97809285.04743  23885998.977                    23886013.840
 116951460.010 7  91131082.16545  22255106.953                    22255116.230
 107400658.639 8  83688855.12346  20437666.398                    20437674.977
 117344337.201 7  91437165.480 7  22329892.547                    22329902.484
 112302703.163 8  87508639.51146  21370489.805                    21370496.844
 120872460.995 7  94186361.66044  23001260.375                    23001268.227
 11  8 10 20 47 30.0000000  0  8G17G26G04G24G08G07G28G11
 110258902.110 8  85916106.865 7  20981560.117                    20981567.770
 121381200.894 7  94582812.03544  23098077.492                    23098087.895
 125408243.162 6  97720822.77843  23864395.289                    23864410.246
 116996531.377 7  91166202.70145  22263683.320                    22263692.602
 107451949.509 8  83728821.99146  20447426.828                    20447435.840
 117439612.742 7  91511406.055 7  22348023.445                    22348033.051
 112285230.488 8  87495024.45346  21367164.984                    21367171.898
 120957737.188 7  94252810.62044  23017487.547                    23017495.660
 11  8 10 20 48  0.0000000  0  8G17G26G04G24G08G07G28G11
 110232159.959 8  85895268.854 7  20976471.313                    20976479.137
 121425644.152 7  94617443.09144  23106535.156                    23106545.305
 125294740.992 6  97632379.83843  23842797.055                    23842810.891
 117042133.174 7  91201736.56745  22272361.195                    22272370.402
 107503802.513 8  83769226.89046  20457294.180                    20457302.762
 117535204.967 7  91585893.393 7  22366213.938                    22366223.523
 112267836.211 8  87481470.48146  21363854.508                    21363861.813
 121043366.620 7  94319534.83144  23033782.063                    23033790.723
 11  8 10 20 48 30.0000000  0  8G17G26G04G24G08G07G28G11
 110205768.748 8  85874704.302 7  20971449.297                    20971457.047
 121470539.841 7  94652426.70544  23115078.664                    23115089.172
 125181266.173 6  97543958.25343  23821202.891                    23821216.941
 117088263.665 7  91237682.39045  22281139.250                    22281148.930
 107556216.108 8  83810068.60946  20467268.297                    20467277.195
 117631111.456 7  91660625.600 6  22384464.719                    22384474.023
 112250520.641 8  87467977.84046  21360559.594                    21360566.961
 121129346.492 7  94386532.10944  23050144.313                    23050152.160
 11  8 10 20 49  0.0000000  0  8G17G26G04G24G08G07G28G11
 110179727.867 8  85854412.732 7  20966493.898                    20966501.910
 121515885.666 7  94687761.07344  23123707.313                    23123718.176
 125067821.653 6  97455560.24443  23799614.148                    23799628.859
 117134921.784 7  91274039.35345  22290018.273                    22290027.414
 107609190.127 8  83851347.02346  20477348.906                    20477357.523
 117727330.143 7  91735601.124 7  22402774.484                    22402783.742
 112233285.007 8  87454547.48746  21357280.055                    21357287.055
 121215674.508 7  94453800.65444  23066571.781                    23066579.387
 11  8 10 20 49 30.0000000  0  8G17G26G04G24G08G07G28G11
 110154036.706 8  85834393.680 7  20961604.977                    20961612.676
 121561678.959 7  94723444.11344  23132421.836                    23132432.266
 124954410.097 6  97367187.93743  23778033.000                    23778047.352
 117182105.953 7  91310806.23145  22298996.820                    22299006.574
 107662722.815 8  83893060.77146  20487535.734                    20487544.223
 117823858.471 7  91810817.906 6  22421143.555                    22421152.758
 112216130.147 8  87441180.06646  21354015.617                    21354022.754
 121302347.707 7  94521338.20144  23083065.258                    23083072.965
 11  8 10 20 50  0.0000000  0  8G17G26G04G24G08G07G28G11
 110128694.841 8  85814646.807 7  20956782.742                    20956790.414
 121607916.974 7  94759473.68144  23141220.539                    23141231.316
 124841034.336 6  97278843.51243  23756458.133                    23756472.375
 117229814.926 7  91347982.05045  22308076.063                    22308085.043
 107716813.608 8  83935209.40346  20497828.641                    20497837.863
 117920694.626 7  91886274.560 6  22439570.344                    22439579.891
 112199057.204 8  87427876.48246  21350766.664                    21350773.434
 121389363.732 7  94589142.86644  23099623.461                    23099631.602
 11  8 10 20 50 30.0000000  0  8G17G26G04G24G08G07G28G11
 110103700.791 8  85795170.959 7  20952026.547                    20952033.914
 121654596.732 7  94795847.47044  23150103.414                    23150113.719
 124727697.013 6  97190529.05343  23734890.539                    23734905.004
 117278046.501 7  91385565.09645  22317253.516                    22317263.438
 107771460.548 8  83977791.40046  20508227.930                    20508236.844
 118017835.675 7  91961968.779 6  22458056.031                    22458065.828
 112182066.308 8  87414636.82846  21347533.453                    21347539.977
 121476719.744 7  94657212.44844  23116247.063                    23116255.289
 11  8 10 20 51  0.0000000  0  8G17G26G04G24G08G07G28G11
 110079054.431 8  85775966.032 7  20947336.320                    20947343.664
 121701715.824 7  94832563.58744  23159069.984                    23159080.469
 124614400.914 6  97102246.70543  23713330.594                    23713344.406
 117326799.593 7  91423554.50545  22326530.867                    22326540.645
 107826663.182 8  84020806.40446  20518733.008                    20518741.199
 118115279.634 7  92037899.041 6  22476599.219                    22476608.637
 112165159.082 8  87401462.37846  21344316.102                    21344323.148
 121564413.450 7  94725545.17044  23132934.859                    23132942.949
 11  8 10 20 51 30.0000000  0  8G17G26G04G24G08G07G28G11
 110054754.771 8  85757031.264 7  20942712.227                    20942720.113
 121749271.602 7  94869619.98744  23168119.398                    23168129.930
 124501148.971 6  97013998.78243  23691779.352                    23691793.098
 117376072.810 7  91461949.21545  22335907.477                    22335917.027
 107882420.528 8  84064253.65446  20529342.891                    20529351.488
 118213024.487 7  92114063.760 6  22495199.422                    22495209.273
 112148336.182 8  87388353.63246  21341114.531                    21341121.641
 121652442.171 7  94794138.95444  23149685.859                    23149693.746
 11  8 10 20 52  0.0000000  0  8G17G26G04G24G08G07G28G11
 110030801.551 8  85738366.448 7  20938153.789                    20938161.738
 121797261.155 7  94907014.40244  23177251.711                    23177262.367
 124387943.897 7  96925787.32643  23670236.281                    23670250.719
 117425864.324 7  91500747.79045  22345382.820                    22345392.285
 107938730.963 8  84108131.87846  20540058.430                    20540067.023
 118311067.676 7  92190460.933 6  22513855.977                    22513866.246
 112131598.535 8  87375311.32146  21337929.781                    21337936.285
 121740803.318 7  94862991.77644  23166500.219                    23166508.715
 11  8 10 20 52 30.0000000  0  8G17G26G04G24G08G07G28G11
 110007193.409 8  85719970.523 7  20933661.875                    20933669.492
 121845681.577 7  94944744.54544  23186465.695                    23186476.383
 124274788.194 7  96837614.35043  23648704.258                    23648718.000
 117476172.626 7  91539949.06345  22354956.141                    22354965.820
 107995592.870 8  84152439.82646  20550879.344                    20550888.000
 118409406.932 7  92267088.827 7  22532569.984                    22532579.867
 112114946.955 8  87362336.05646  21334760.984                    21334768.012
 121829493.989 6  94932101.34344  23183377.422                    23183385.879
 11  8 10 20 53  0.0000000  0  8G17G26G04G24G08G07G28G11
 109983929.860 8  85701843.125 7  20929234.867                    20929242.156
 121894530.311 7  94982808.45644  23195761.570                    23195771.516
 124161685.014 7  96749482.27943  23627180.617                    23627194.277
 117526996.446 7  91579552.03045  22364627.297                    22364637.160
 108053005.401 8  84197176.82446  20561804.336                    20561813.055
 118508039.851 7  92343945.543 6  22551339.453                    22551348.723
 112098382.661 8  87349428.82346  21331609.000                    21331615.961
 121918511.747 7  95001465.79144  23200317.156                    23200325.020
 11  8 10 20 53 30.0000000  0  8G17G26G04G24G08G07G28G11
 109961010.124 8  85683983.620 7  20924873.047                    20924880.637
 121943804.780 7  95021204.10044  23205137.773                    23205148.266
 124048637.126 7  96661393.32843  23605668.516                    23605681.555
 117578333.916 7  91619555.25145  22374396.305                    22374405.758
 108110967.499 8  84242342.06546  20572834.484                    20572842.633
 118606964.444 7  92421029.502 6  22570163.242                    22570173.742
 112081906.797 8  87336590.49346  21328473.891                    21328480.625
 122007853.927 7  95071083.07144  23217319.352                    23217326.840
 11  8 10 20 54  0.0000000  0  8G17G26G04G24G08G07G28G11
 109938433.359 8  85666391.361 7  20920576.883                    20920584.586
 121993502.012 7  95059929.17144  23214595.266                    23214605.332
 123935647.445 7  96573349.69743  23584166.875                    23584180.539
 117630183.657 7  91659957.65544  22384262.922                    22384273.145
 108169477.973 8  84287934.61446  20583968.539                    20583977.230
 118706178.141 7  92498338.759 7  22589044.063                    22589053.965
 112065519.995 8  87323821.55846  21325355.406                    21325362.566
 122097518.068 7  95140951.18643  23234381.281                    23234388.754
 11  8 10 20 54 30.0000000  0  8G17G26G04G24G08G07G28G11
 109916198.885 8  85649065.819 7  20916346.344                    20916353.410
 122043619.316 7  95098981.56844  23224132.586                    23224142.824
 123822718.644 6  96485353.53643  23562676.625                    23562690.020
 117682543.893 7  91700757.83044  22394227.063                    22394236.543
 108228535.233 8  84333953.21946  20595206.539                    20595215.176
 118805679.084 7  92575871.844 6  22607978.055                    22607988.148
 112049223.376 8  87311122.91046  21322254.281                    21322260.938
 122187501.344 7  95211067.99344  23251504.125                    23251512.566
 11  8 10 20 55  0.0000000  0  8G17G26G04G24G08G07G28G11
 109894306.161 8  85632006.574 7  20912179.836                    20912187.484
 122094153.785 7  95138359.02544  23233748.273                    23233759.016
 123709853.791 7  96397407.18643  23541199.172                    23541212.840
 117735412.926 7  91741954.49145  22404287.789                    22404297.227
 108288138.017 8  84380396.91146  20606548.813                    20606557.078
 118905464.396 7  92653626.513 7  22626967.148                    22626976.871
 112033017.849 8  87298495.23646  21319170.453                    21319177.438
 122277801.344 7  95281431.59344  23268688.352                    23268695.875
 11  8 10 20 55 30.0000000  0  8G17G26G04G24G08G07G28G11
 109872754.285 8  85615212.926 7  20908078.633                    20908086.137
 122145102.639 7  95178059.38144  23243443.711                    23243454.250
 123597055.260 6  96309512.54643  23519734.250                    23519747.359
 117788789.329 7  91783546.50344  22414444.703                    22414454.035
 108348285.205 8  84427264.81046  20617994.336                    20618003.277
 119005531.797 7  92731600.987 6  22646009.055                    22646019.188
 112016904.328 8  87285939.25846  21316103.961                    21316110.844
 122368415.533 7  95352040.02844  23285930.820                    23285939.148
 11  8 10 20 56  0.0000000  0  8G17G26G04G24G08G07G28G11
 109851542.114 8  85598683.985 7  20904041.914                    20904049.617
 122196463.024 6  95218080.40944  23253217.203                    23253227.363
 123484326.100 6  96221671.90143  23498282.289                    23498295.277
 117842671.111 7  91825532.29945  22424698.406                    22424707.910
 108408975.222 8  84474555.68846  20629543.227                    20629551.711
 119105879.030 7  92809793.513 6  22665104.266                    22665114.547
 112000883.755 8  87273455.70946  21313055.336                    21313062.297
 122459340.759 7  95422890.82443  23303233.586                    23303241.816
 11  8 10 20 56 30.0000000  0  8G17G26G04G24G08G07G28G11
 109830668.795 8  85582419.087 7  20900070.063                    20900077.602
 122248231.991 7  95258419.80144  23263068.797                    23263079.148
 123371668.947 6  96133887.41143  23476843.844                    23476857.039
 117897056.691 7  91867910.67244  22435047.188                    22435056.578
 108470206.485 8  84522268.32046  20641195.281                    20641203.676
 119206503.672 7  92888202.214 6  22684252.984                    22684262.844
 111984957.363 8  87261045.53646  21310024.625                    21310031.449
 122550574.866 7  95493982.29744  23320595.148                    23320603.469
 11  8 10 20 57  0.0000000  0  8G17G26G04G24G08G07G28G11
 109810133.904 8  85566417.902 7  20896162.031                    20896169.840
 122300406.786 7  95299075.44644  23272997.859                    23273007.938
 123259087.017 7  96046161.49144  23455419.711                    23455433.090
 117951944.547 7  91910680.42544  22445492.328                    22445501.910
 108531978.079 8  84570401.98646  20652950.242                    20652958.453
 119307403.574 7  92966825.372 6  22703454.070                    22703463.730
 111969126.377 8  87248709.70446  21307012.203                    21307019.246
 122642115.139 7  95565312.32543  23338014.617                    23338022.816
 11  8 10 20 57 30.0000000  0  8G17G26G04G24G08G07G28G11
 109789936.287 8  85550679.521 7  20892318.563                    20892326.219
 122352984.404 7  95340044.95544  23283003.016                    23283012.926
 123146582.882 7  95958496.19844  23434012.227                    23434024.688
 118007332.687 7  91953840.01044  22456032.531                    22456041.512
 108594288.290 8  84618955.34846  20664807.125                    20664815.949
 119408576.036 7  93045660.930 6  22722706.117                    22722716.727
 111953391.429 8  87236448.71246  21304017.617                    21304024.617
 122733958.982 7  95636878.93744  23355491.492                    23355500.039
 11  8 10 20 58  0.0000000  0  8G17G26G04G24G08G07G28G11
 109770075.191 8  85535203.367 7  20888539.414                    20888546.758
 122405962.306 7  95381326.35544  23293083.938                    23293094.258
 123034159.599 7  95870893.92144  23412617.914                    23412630.488
 118063219.671 7  91997388.32144  22466667.313                    22466676.961
 108657135.874 8  84667927.43846  20676766.797                    20676775.613
 119510019.023 7  93124707.299 7  22742010.055                    22742020.285
 111937753.891 8  87224263.61746  21301042.250                    21301049.238
 122826103.544 7  95708679.84844  23373026.531                    23373034.883
 11  8 10 20 58 30.0000000  0  8G17G26G04G24G08G07G28G11
 109750549.799 8  85519988.808 7  20884823.609                    20884831.457
 122459337.150 7  95422917.06544  23303241.117                    23303251.395
 122921819.877 7  95783356.74044  23391240.109                    23391252.859
 118119603.251 7  92041323.56645  22477396.695                    22477406.367
 108720518.949 8  84717316.80746  20688828.656                    20688836.539
 119611730.188 7  93203962.605 6  22761365.758                    22761375.531
 111922214.182 8  87212154.75146  21298085.117                    21298092.000
 122918546.044 6  95780712.94544  23390617.844                    23390626.117
 11  8 10 20 59  0.0000000  0  8G17G26G04G24G08G07G28G11
 109731358.943 8  85505034.922 7  20881172.047                    20881179.227
 122513106.107 7  95464814.89944  23313473.031                    23313483.695
 122809566.382 7  95695886.74544  23369878.773                    23369891.215
 118176481.618 7  92085644.37544  22488220.422                    22488230.074
 108784435.943 8  84767122.20946  20700991.570                    20701000.016
 119713706.864 7  93283424.824 6  22780771.313                    22780781.371
 111906773.562 8  87200123.10346  21295146.625                    21295153.699
 123011283.998 6  95852976.25543  23408265.477                    23408273.824
 11  8 10 20 59 30.0000000  0  8G17G26G04G24G08G07G28G11
 109712502.153 8  85490341.341 7  20877583.430                    20877591.063
 122567266.727 7  95507017.91844  23323779.539                    23323789.398
 122697402.273 7  95608486.42444  23348534.219                    23348546.969
 118233853.319 7  92130349.59344  22499137.727                    22499147.121
 108848885.941 8  84817342.94746  20713255.664                    20713264.453
 119815946.626 7  93363092.043 6  22800226.695                    22800236.699
 111891433.432 8  87188169.74946  21292227.742                    21292234.742
 123104314.890 6  95925467.83043  23425968.531                    23425977.203
 11  8 10 21  0  0.0000000  0  8G17G26G04G24G08G07G28G11
 109693978.671 8  85475907.481 7  20874058.734                    20874066.145
 122621815.858 7  95549523.67144  23334159.445                    23334169.867
 122585330.451 7  95521157.95544  23327207.211                    23327219.633
 118291716.694 7  92175437.94344  22510148.883                    22510158.387
 108913867.305 8  84867977.73646  20725621.508                    20725630.125
 119918447.258 7  93442962.550 6  22819731.750                    22819742.508
 111876194.889 8  87176295.56546  21289327.398                    21289335.000
 123197636.131 6  95998185.59543  23443727.070                    23443734.938
 11  8 10 21  0 30.0000000  0  8G17G26G04G24G08G07G28G11
 109675787.574 8  85461732.629 7  20870596.766                    20870604.824
 122676750.364 7  95592329.72544  23344613.453                    23344623.738
 122473353.503 7  95433903.45343  23305899.195                    23305911.352
 118350069.465 7  92220907.64444  22521252.789                    22521262.004
 108979377.980 8  84919024.97346  20738087.938                    20738096.336
 120021206.504 7  93523034.561 6  22839286.617                    22839296.660
 111861058.834 8  87164501.23546  21286447.680                    21286454.789
 123291244.932 6  96071127.47543  23461540.156                    23461548.098
 11  8 10 21  1  0.0000000  0  8G17G26G04G24G08G07G28G11
 109657927.001 8  85447815.329 7  20867197.961                    20867205.488
 122732067.146 7  95635433.62644  23355140.172                    23355150.277
 122361474.284 7  95346725.08744  23284608.422                    23284621.371
 118408909.382 7  92266756.92744  22532449.563                    22532459.023
 109045416.314 8  84970483.37446  20750654.180                    20750663.039
 120124221.480 7  93603305.865 6  22858889.773                    22858899.914
 111846025.883 7  87152787.25746  21283586.680                    21283593.828
 123385138.357 7  96144291.13943  23479407.672                    23479415.684
 11  8 10 21  1 30.0000000  0  8G17G26G04G24G08G07G28G11
 109640397.089 8  85434155.681 7  20863862.297                    20863869.719
 122787763.411 7  95678833.24644  23365738.703                    23365749.348
 122249695.838 7  95259625.22144  23263337.383                    23263349.855
 118468235.184 7  92312984.83744  22543738.703                    22543748.258
 109111981.079 8  85022351.98646  20763320.961                    20763329.957
 120227489.930 7  93683774.666 6  22878540.789                    22878551.148
 111831097.566 8  87141154.80146  21280745.875                    21280752.953
 123479314.209 6  96217674.88443  23497328.398                    23497336.438
 11  8 10 21  2  0.0000000  0  8G17G26G04G24G08G07G28G11
 109623196.401 8  85420752.572 7  20860589.063                    20860596.590
 122843836.212 7  95722526.26644  23376408.406                    23376419.375
 122138020.791 6  95172605.93343  23242086.250                    23242098.820
 118528044.803 7  92359589.75344  22555120.406                    22555129.570
 109179070.308 8  85074629.26846  20776087.844                    20776096.570
 120331009.715 7  93764439.289 6  22898239.891                    22898251.070
 111816275.132 8  87129604.85046  21277925.469                    21277932.590
 123573769.572 6  96291276.41343  23515302.875                    23515310.559
 11  8 10 21  2 30.0000000  0  8G17G26G04G24G08G07G28G11
 109606324.221 8  85407605.438 7  20857378.453                    20857386.160
 122900282.494 7  95766510.30844  23387150.500                    23387160.773
 122026452.160 7  95085669.55544  23220855.594                    23220867.703
 118588336.263 7  92406570.11444  22566593.508                    22566603.129
 109246682.462 8  85127314.01846  20788953.836                    20788962.703
 120434777.982 7  93845297.531 6  22917986.609                    22917997.566
 111801559.143 8  87118137.84446  21275125.172                    21275132.133
 123668501.955 6  96365093.81343  23533329.625                    23533338.102
 11  8 10 21  3  0.0000000  0  8G17G26G04G24G08G07G28G11
 109589779.902 8  85394713.791 7  20854229.828                    20854237.613
 122957099.478 7  95810783.20544  23397962.906                    23397973.020
 121914992.997 7  94998818.45144  23199645.109                    23199658.281
 118649107.876 7  92453924.62044  22578158.242                    22578167.230
 109314816.136 8  85180405.16746  20801919.398                    20801928.355
 120538792.310 7  93926347.532 6  22937780.195                    22937790.574
 111786951.377 8  87106755.17146  21272345.555                    21272352.070
 123763508.718 6  96439125.02243  23551408.586                    23551417.367
 11  8 10 21  3 30.0000000  0  8G17G26G04G24G08G07G28G11
 109573562.425 8  85382076.812 7  20851143.984                    20851151.703
 123014284.060 7  95855342.55744  23408844.781                    23408854.664
 121803646.115 7  94912054.84544  23178457.164                    23178468.973
 118710357.743 7  92501651.77844  22589813.336                    22589823.016
 109383469.601 8  85233901.33546  20814984.000                    20814992.703
 120643050.563 7  94007587.585 6  22957620.469                    22957630.332
 111772452.704 8  87095457.50146  21269586.297                    21269593.398
 123858787.148 6  96513367.91043  23569540.203                    23569548.301
 11  8 10 21  4  0.0000000  0  8G17G26G04G24G08G07G28G11
 109557670.345 8  85369693.386 7  20848119.656                    20848127.469
 123071833.225 7  95900186.02044  23419795.883                    23419806.285
 121692414.351 7  94825380.90444  23157289.742                    23157302.434
 118772083.790 7  92549749.99944  22601560.000                    22601569.074
 109452641.038 8  85287801.11746  20828146.680                    20828155.602
 120747550.240 7  94089015.784 6  22977505.766                    22977516.414
 111758064.060 8  87084245.56546  21266848.266                    21266855.496
 123954334.466 7  96587820.37043  23587722.703                    23587730.156
 11  8 10 21  4 30.0000000  0  8G17G26G04G24G08G07G28G11
 109542102.599 8  85357562.691 8  20845157.367                    20845165.129
 123129743.548 7  95945310.85244  23430815.758                    23430827.223
 121581300.249 7  94738798.67044  23136145.258                    23136157.816
 118834283.560 7  92598217.33644  22613396.008                    22613405.285
 109522327.988 8  85342102.60446  20841407.570                    20841416.531
 120852288.752 7  94170630.075 6  22997437.188                    22997447.383
 111743786.313 8  87073120.04846  21264131.188                    21264137.750
 124050147.897 7  96662480.12543  23605954.859                    23605963.109
 11  8 10 21  5  0.0000000  0  9G17G26G04G27G24G08G07G28G11
 109526858.612 8  85345684.269 7  20842256.258                    20842263.953
 123188012.463 7  95990715.12544  23441904.367                    23441914.910
 121470306.941 7  94652310.56544  23115024.164                    23115036.289
 132083049.46416 102921903.48053  25134568.719                    25134579.957
 118896955.203 7  92647052.37744  22625321.422                    22625331.348
 109592529.424 8  85396804.98046  20854766.555                    20854775.602
 120957263.650 7  94252428.549 6  23017412.578                    23017423.699
 111729620.729 8  87062081.93946  21261435.672                    21261442.422
 124146224.833 7  96737345.24843  23624237.438                    23624246.211
 11  8 10 21  5 30.0000000  0  9G17G26G04G27G24G08G07G28G11
 109511937.689 8  85334057.580 7  20839417.188                    20839424.492
 123246636.924 7  96036396.43444  23453059.602                    23453070.500
 121359437.660 7  94565919.12644  23093926.000                    23093938.277
 131991000.836 6 102850177.33343  25117052.930                    25117063.766
 118960097.289 7  92696253.99644  22637337.383                    22637346.984
 109663243.832 8  85451907.08846  20868223.109                    20868232.219
 121062472.447 7  94334409.254 6  23037434.133                    23037444.820
 111715569.144 8  87051132.65646  21258761.438                    21258768.852
 124242562.918 6  96812413.86843  23642569.477                    23642577.957
 11  8 10 21  6  0.0000000  0  9G17G26G04G27G24G08G07G28G11
 109497338.648 8  85322681.714 7  20836638.984                    20836646.621
 123305613.695 7  96082352.28844  23464283.305                    23464293.813
 121248695.106 7  94479626.40844  23072852.641                    23072864.609
 131899055.310 6 102778531.48643  25099556.242                    25099566.203
 119023707.410 7  92745820.32344  22649442.094                    22649451.684
 109734469.052 8  85507407.22746  20881776.773                    20881785.996
 121167912.815 7  94416570.477 6  23057497.922                    23057508.551
 111701632.362 8  87040272.82346  21256109.734                    21256116.520
 124339159.701 6  96887684.01743  23660952.109                    23660960.445
 11  8 10 21  6 30.0000000  0  9G17G26G04G27G24G08G07G28G11
 109483060.401 8  85311555.810 7  20833921.789                    20833929.258
 123364939.785 7  96128580.34744  23475572.219                    23475583.168
 121138081.965 7  94393434.55244  23051802.781                    23051815.109
 131807214.829 6 102706967.52543  25082080.250                    25082089.902
 119087783.570 7  92795749.78244  22661635.422                    22661644.535
 109806203.067 8  85563303.81146  20895427.453                    20895436.277
 121273582.172 7  94498910.076 6  23077606.719                    23077617.316
 111687811.049 8  87029502.98046  21253479.570                    21253486.316
 124436012.051 6  96963153.35143  23679382.633                    23679390.578
 11  8 10 21  7  0.0000000  0  9G17G26G04G27G24G08G07G28G11
 109469101.644 8  85300678.874 7  20831265.398                    20831272.922
 123424612.019 7  96175078.12044  23486927.531                    23486938.660
 121027601.357 7  94307345.95644  23030779.188                    23030791.246
 131715481.494 6 102635487.03243  25064623.625                    25064633.207
 119152323.610 7  92846040.73644  22673917.203                    22673926.250
 109878443.871 8  85619595.31346  20909174.078                    20909183.707
 121379478.147 7  94581426.248 6  23097758.438                    23097769.008
 111674106.788 8  87018824.33246  21250871.969                    21250878.727
 124533117.171 7  97038819.63443  23697861.602                    23697868.918
 11  8 10 21  7 30.0000000  0  9G17G26G04G27G24G08G07G28G11
 109455461.846 8  85290050.472 7  20828669.961                    20828677.645
 123484627.383 7  96221843.26944  23498348.141                    23498359.102
 120917255.891 7  94221362.65344  23009781.039                    23009793.043
 131623857.644 6 102564091.91543  25047187.945                    25047198.012
 119217325.515 7  92896691.56344  22686286.227                    22686295.688
 109951189.860 8  85676280.45646  20923017.820                    20923026.219
 121485597.895 7  94664116.821 6  23117952.148                    23117963.383
 111660520.705 8  87008237.77846  21248286.641                    21248293.316
 124630472.934 6  97114681.22343  23716387.172                    23716395.422
 11  8 10 21  8  0.0000000  0  9G17G26G04G27G24G08G07G28G11
 109442139.674 8  85279669.575 7  20826134.695                    20826141.992
 123544982.763 7  96268873.32744  23509833.547                    23509844.617
 120807048.720 7  94135487.11844  22988809.117                    22988821.035
 131532345.498 6 102492783.77842  25029772.906                    25029783.039
 119282787.175 7  92947700.64644  22698743.445                    22698752.656
 110024439.002 8  85733357.65946  20936956.727                    20936965.531
 121591939.173 7  94746979.992 6  23138188.609                    23138199.383
 111647053.737 8  86997744.05546  21245723.852                    21245730.430
 124728076.075 7  97190735.61043  23734961.086                    23734968.801
 11  8 10 21  8 30.0000000  0  9G17G26G04G27G24G08G07G28G11
 109429134.195 8  85269535.437 7  20823660.047                    20823667.758
 123605675.155 7  96316165.99644  23521383.219                    23521393.883
 120696982.551 7  94049721.43544  22967864.180                    22967876.125
 131440947.248 6 102421564.41242  25012381.000                    25012390.938
 119348706.614 7  92999066.42344  22711286.977                    22711296.930
 110098189.549 8  85790825.56746  20950991.125                    20951000.203
 121698499.349 7  94830013.735 6  23158466.320                    23158477.516
 111633707.264 8  86987344.21346  21243184.016                    21243190.805
 124825924.472 6  97266981.04244  23753580.516                    23753588.781
 11  8 10 21  9  0.0000000  0  9G17G26G04G27G24G08G07G28G11
 109416444.541 8  85259647.402 7  20821245.211                    20821252.930
 123666701.374 7  96363718.82244  23532995.734                    23533006.695
 120587060.515 7  93964068.04944  22946946.836                    22946958.098
 131349664.988 6 102350435.40042  24995011.023                    24995020.555
 119415081.741 7  93050787.27544  22723917.734                    22723927.852
 110172439.847 8  85848682.88846  20965120.039                    20965129.457
 121805276.084 7  94913216.236 6  23178786.133                    23178796.379
 111620482.396 8  86977039.13046  21240667.164                    21240674.551
 124924015.365 6  97343415.47043  23772246.406                    23772254.594
 11  8 10 21  9 30.0000000  0  9G17G26G04G27G24G08G07G28G11
 109404069.430 8  85250004.480 7  20818890.297                    20818898.355
 123728058.137 7  96411529.18244  23544671.930                    23544683.125
 120477285.201 7  93878528.99344  22926057.055                    22926068.590
 131258500.606 6 102279398.23542  24977662.180                    24977672.887
 119481910.202 7  93102861.39344  22736634.875                    22736644.383
 110247187.337 7  85906927.64246  20979344.313                    20979353.180
 121912266.653 7  94996585.332 6  23199144.906                    23199156.785
 111607380.031 8  86966829.50046  21238174.242                    21238181.176
 125022345.984 6  97420036.68343  23790957.727                    23790966.809
 11  8 10 21 10  0.0000000  0  9G17G26G04G27G24G08G07G28G11
 109392008.191 8  85240606.131 8  20816595.031                    20816603.020
 123789742.730 7  96459595.00244  23556410.336                    23556420.875
 120367659.915 7  93793106.83544  22905195.430                    22905207.492
 131167456.674 6 102208454.99943  24960337.008                    24960347.902
 119549190.024 7  93155287.17744  22749438.273                    22749447.422
 110322430.628 8  85965558.73246  20993662.867                    20993671.879
 122019468.858 7  95080119.368 6  23219544.781                    23219556.402
 111594401.900 8  86956716.67646  21235704.500                    21235711.449
 125120913.813 7  97496842.74643  23809715.109                    23809723.605
 11  8 10 21 10 30.0000000  0  9G17G26G04G27G24G08G07G28G11
 109380259.766 8  85231451.538 7  20814359.328                    20814367.375
 123851751.932 7  96507913.76444  23568209.914                    23568220.766
 120258187.513 7  93707803.80944  22884364.164                    22884375.375
 131076535.523 6 102137607.43343  24943035.867                    24943045.801
 119616919.238 7  93208063.17744  22762326.633                    22762336.375
 110398167.616 7  86024574.52046  21008074.688                    21008083.555
 122126880.231 7  95163816.368 6  23239985.406                    23239996.520
 111581549.437 8  86946701.77846  21233258.609                    21233265.406
 125219716.175 6  97573831.56343  23828516.641                    23828524.672
 11  8 10 21 11  0.0000000  0  9G17G26G04G27G24G08G07G28G11
 109368823.121 8  85222539.879 7  20812183.023                    20812190.828
 123914082.650 7  96556483.06644  23580070.695                    23580082.215
 120148870.822 7  93622622.11944  22863561.305                    22863573.055
 130985739.306 6 102066857.26543  24925758.016                    24925768.223
 119685095.468 7  93261187.48944  22775300.594                    22775309.570
 110474396.323 8  86083973.47446  21022580.398                    21022590.309
 122234498.121 7  95247674.294 6  23260464.422                    23260475.563
 111568823.214 8  86936785.24146  21230836.719                    21230844.148
 125318750.332 6  97651000.97743  23847362.063                    23847370.461
 11  8 10 21 11 30.0000000  0  9G17G26G04G27G24G08G07G28G11
 109357696.938 8  85213870.140 7  20810065.797                    20810073.676
 123976731.568 6  96605300.28244  23591992.961                    23592004.438
 120039712.817 7  93537564.10044  22842789.352                    22842800.395
 130895070.534 6 101996206.38643  24908503.703                    24908513.754
 119753716.634 7  93314658.50244  22788358.367                    22788367.516
 110551115.005 8  86143754.21246  21037180.070                    21037188.730
 122342320.312 7  95331691.397 6  23280981.820                    23280993.668
 111556224.801 8  86926968.29946  21228439.398                    21228446.438
 125418013.719 7  97728349.03743  23866251.570                    23866259.418
 11  8 10 21 12  0.0000000  0  9G17G26G04G27G24G08G07G28G11
 109346880.040 8  85205441.404 7  20808007.484                    20808015.176
 124039695.480 7  96654362.95944  23603974.945                    23603986.184
 119930716.482 7  93452632.06544  22822047.773                    22822059.875
 130804530.952 6 101925656.19443  24891274.773                    24891285.586
 119822780.376 7  93368474.38844  22801500.852                    22801510.199
 110628320.944 8  86203914.64446  21051871.648                    21051880.543
 122450343.652 7  95415865.271 6  23301538.125                    23301549.926
 111543755.131 8  86917251.67546  21226066.750                    21226073.891
 125517503.772 7  97805873.73443  23885183.148                    23885191.867
 11  8 10 21 12 30.0000000  0  9G17G26G04G27G24G08G07G28G11
 109336371.533 8  85197252.966 7  20806007.508                    20806015.414
 124102971.445 7  96703668.81444  23616015.719                    23616027.074
 119821884.346 7  93367827.98344  22801337.898                    22801349.410
 130714122.345 6 101855208.01143  24874069.828                    24874080.754
 119892284.514 7  93422633.42044  22814727.266                    22814736.141
 110706012.157 8  86264453.20346  21066655.492                    21066664.723
 122558565.804 7  95500194.048 6  23322132.813                    23322144.352
 111531415.471 8  86907636.36046  21223718.563                    21223725.215
 125617217.715 6  97883572.86643  23904157.984                    23904167.320
 11  8 10 21 13  0.0000000  0  9G17G26G04G27G24G08G07G28G11
 109326170.430 8  85189304.069 7  20804066.570                    20804074.039
 124166556.214 7  96753215.30543  23628115.930                    23628126.609
 119713219.586 7  93283154.30944  22780658.906                    22780670.648
 130623847.536 6 101784864.08543  24856891.906                    24856901.910
 119962226.871 7  93477133.94744  22828036.852                    22828045.977
 110784186.661 8  86325368.35546  21081531.945                    21081540.719
 122666984.283 7  95584675.749 6  23342763.773                    23342776.137
 111519207.246 8  86898123.45746  21221395.258                    21221402.227
 125717152.878 6  97961444.38743  23923175.359                    23923184.445
 11  8 10 21 13 30.0000000  0  9G17G26G04G27G24G08G07G28G11
 109316275.644 8  85181593.849 7  20802183.469                    20802191.398
 124230446.592 7  96802999.90643  23640273.523                    23640284.309
 119604725.059 7  93198613.32144  22760013.039                    22760024.594
 130533708.592 7 101714626.01544  24839738.977                    24839749.629
 120032605.402 7  93531974.33744  22841429.516                    22841438.105
 110862842.545 8  86386658.61846  21096499.953                    21096508.559
 122775596.887 7  95669308.766 6  23363432.188                    23363443.898
 111507131.716 8  86888713.95146  21219097.406                    21219104.234
 125817306.856 6  98039486.37043  23942234.359                    23942242.906
 11  8 10 21 14  0.0000000  0  9G17G26G04G27G24G08G07G28G11
 109306686.272 7  85174121.628 7  20800358.789                    20800366.613
 124294639.674 7  96853020.37243  23652489.273                    23652500.047
 119496403.915 7  93114207.40944  22739400.359                    22739411.840
 130443707.841 7 101644495.62543  24822611.977                    24822622.414
 120103417.759 7  93587152.78544  22854904.234                    22854913.699
 110941977.834 8  86448322.42846  21111558.508                    21111567.703
 122884401.056 7  95754091.056 6  23384137.578                    23384148.859
 111495190.198 7  86879408.86946  21216824.820                    21216831.719
 125917676.936 6  98117696.76443  23961334.313                    23961342.965
 11  8 10 21 14 30.0000000  0  9G17G26G04G27G24G08G07G28G11
 109297401.030 8  85166886.386 8  20798591.500                    20798598.996
 124359131.907 7  96903273.99743  23664761.875                    23664772.629
 119388258.928 7  93029938.77644  22718821.008                    22718832.141
 130353847.210 7 101574474.39743  24805511.664                    24805522.469
 120174661.412 7  93642667.29444  22868461.711                    22868471.008
 111021590.012 8  86510357.84046  21126708.461                    21126717.457
 122993393.726 7  95839020.207 6  23404878.117                    23404889.875
 111483383.729 8  86870209.01146  21214578.508                    21214585.023
 126018260.269 6  98196073.31443  23980474.648                    23980483.078
 11  8 10 21 15  0.0000000  0  9G17G26G04G27G24G08G07G28G11
 109288418.489 8  85159887.015 7  20796882.734                    20796890.316
 124423920.082 7  96953758.19143  23677090.969                    23677102.320
 119280292.957 7  92945809.64844  22698275.367                    22698286.512
 130264129.185 7 101504564.29143  24788439.148                    24788449.801
 120246334.314 7  93698516.29244  22882100.266                    22882109.750
 111101677.400 8  86572763.54745  21141948.852                    21141957.859
 123102572.746 7  95924094.552 6  23425654.813                    23425666.234
 111471713.633 8  86861115.42746  21212357.750                    21212364.539
 126119054.806 6  98274614.47343  23999655.289                    23999664.152
 11  8 10 21 15 30.0000000  0  9G17G26G04G27G24G08G07G28G11
 109279737.816 8  85153122.856 7  20795230.531                    20795237.906
 124489001.299 7  97004470.73344  23689475.305                    23689486.594
 119172508.966 7  92861822.32344  22677764.273                    22677776.441
 130174555.759 6 101434766.85543  24771393.969                    24771403.859
 120318434.121 7  93754697.92144  22895821.211                    22895829.590
 111182237.512 7  86635537.62146  21157278.984                    21157287.906
 123211935.413 7  96009312.016 6  23446466.227                    23446477.348
 111460181.150 8  86852129.06346  21210163.219                    21210170.137
 126220057.455 7  98353317.81843  24018875.992                    24018884.258
 11  8 10 21 16  0.0000000  0  9G17G26G04G27G24G08G07G28G11
 109271357.551 7  85146592.790 7  20793635.969                    20793643.645
 124554372.196 7  97055408.96644  23701915.727                    23701926.488
 119064909.783 7  92777978.99744  22657289.367                    22657300.539
 130085129.482 6 101365084.10043  24754376.367                    24754387.000
 120390958.649 7  93811210.52944  22909622.133                    22909631.223
 111263267.971 8  86698678.18645  21172698.305                    21172707.527
 123321479.205 6  96094670.628 6  23467311.359                    23467322.613
 111448787.500 7  86843250.89046  21207995.063                    21208001.613
 126321265.413 6  98432181.11943  24038135.094                    24038143.414
 11  8 10 21 16 30.0000000  0  9G17G26G04G27G24G08G07G28G11
 109263277.516 8  85140296.675 7  20792098.555                    20792106.391
 124620029.687 7  97106570.56644  23714409.672                    23714420.395
 118957498.501 7  92694282.07244  22636849.219                    22636860.203
 129995852.564 6 101295517.75243  24737387.961                    24737397.871
 120463905.736 7  93868052.38944  22923503.094                    22923512.359
 111344766.959 8  86762183.84445  21188207.172                    21188216.336
 123431201.681 6  96180168.436 6  23488191.172                    23488202.223
 111437534.182 8  86834482.05846  21205853.523                    21205860.355
 126422676.557 6  98511202.74343  24057432.203                    24057441.258
 11  8 10 21 17  0.0000000  0  9G17G26G04G27G24G08G07G28G11
 109255496.136 8  85134233.260 7  20790617.633                    20790625.586
 124685970.668 7  97157953.05044  23726957.570                    23726968.656
 118850278.185 7  92610733.94044  22616445.453                    22616456.930
 129906727.108 6 101226069.42342  24720428.000                    24720437.672
 120537272.921 7  93925221.60444  22937464.289                    22937473.992
 111426732.197 8  86826052.81245  21203804.664                    21203813.543
 123541100.279 6  96265803.489 6  23509104.055                    23509115.707
 111426422.351 8  86825823.47546  21203738.922                    21203745.871
 126524288.063 6  98590380.46743  24076768.031                    24076777.199
 11  8 10 21 17 30.0000000  0  9G17G26G04G27G24G08G07G28G11
 109248012.097 8  85128401.566 7  20789193.281                    20789201.176
 124752191.786 7  97209553.82443  23739559.344                    23739570.328
 118743251.403 7  92527336.61044  22596079.148                    22596089.949
 129817755.404 6 101156740.89943  24703496.688                    24703506.938
 120611057.997 7  93982716.41944  22951505.477                    22951514.906
 111509161.464 8  86890283.36245  21219490.063                    21219499.391
 123651172.539 7  96351573.881 6  23530050.805                    23530062.324
 111415453.303 8  86817276.15146  21201651.828                    21201658.406
 126626097.339 6  98669712.30543  24096142.609                    24096150.820
 11  8 10 21 18  0.0000000  0  9G17G26G04G27G24G08G07G28G11
 109240824.182 8  85122800.603 7  20787826.070                    20787833.699
 124818689.726 7  97261370.31944  23752213.555                    23752224.418
 118636420.826 7  92444092.15644  22575750.305                    22575760.617
 129728939.425 6 101087533.64242  24686594.703                    24686605.629
 120685258.355 7  94040534.85544  22965625.008                    22965634.277
 111592051.826 8  86954873.20845  21235263.938                    21235273.016
 123761415.499 7  96437477.281 6  23551029.477                    23551040.684
 111404628.141 8  86808840.95046  21199591.688                    21199598.758
 126728101.632 6  98749196.13543  24115553.086                    24115561.535
 11  8 10 21 18 30.0000000  0  9G17G26G04G27G24G08G07G28G11
 109233931.248 8  85117429.498 7  20786514.070                    20786521.461
 124885461.264 7  97313400.00644  23764919.453                    23764930.949
 118529789.674 7  92361003.09444  22555458.742                    22555469.840
 129640281.561 6 101018449.68943  24669724.664                    24669734.516
 120759871.803 7  94098675.17744  22979823.461                    22979832.906
 111675401.608 8  87019821.04145  21251125.070                    21251134.195
 123871826.670 7  96523511.727 6  23572039.758                    23572051.820
 111393948.258 8  86800518.95746  21197559.375                    21197566.004
 126830298.465 6  98828830.01443  24135000.125                    24135009.004
 11  8 10 21 19  0.0000000  0  9G17G26G04G27G24G08G07G28G11
 109227332.470 8  85112287.597 7  20785258.617                    20785265.754
 124952503.462 7  97365640.60644  23777677.344                    23777688.625
 118423360.962 7  92278071.76644  22535205.414                    22535216.629
 129551784.155 6 100949490.71443  24652883.461                    24652894.535
 120834895.787 7  94157135.40544  22994099.742                    22994109.879
 111759208.596 8  87085125.14745  21267073.031                    21267082.324
 123982403.751 7  96609675.468 6  23593082.195                    23593093.828
 111383414.955 8  86792311.18146  21195554.789                    21195561.895
 126932685.058 6  98908611.70443  24154483.867                    24154493.238
 11  8 10 21 19 30.0000000  0  9G17G26G04G27G24G08G07G28G11
 109221026.453 8  85107373.823 7  20784058.188                    20784065.750
 125019812.583 7  97418089.18544  23790486.031                    23790497.238
 118317137.257 7  92195300.18144  22514992.211                    22515002.773
 129463449.234 7 100880658.35943  24636074.516                    24636084.887
 120910327.910 7  94215913.67344  23008454.758                    23008464.344
 111843469.821 8  87150783.19745  21283107.852                    21283117.152
 124093144.111 7  96695966.417 6  23614155.484                    23614167.277
 111373028.813 8  86784218.08146  21193578.453                    21193585.766
 127035258.784 6  98988539.24243  24174003.180                    24174012.215
 11  8 10 21 20  0.0000000  0  9G17G26G04G27G24G08G07G28G11
 109215012.141 8  85102687.368 7  20782913.688                    20782921.016
 125087385.834 7  97470743.56144  23803345.023                    23803356.453
 118211121.979 7  92112691.00445  22494817.969                    22494828.535
 129375279.174 7 100811954.44443  24619295.828                    24619306.465
 120986166.079 7  94275008.32444  23022886.086                    23022895.297
 111928183.562 8  87216793.86245  21299227.922                    21299237.652
 124204045.173 6  96782382.612 6  23635258.953                    23635271.074
 111362792.571 8  86776241.78746  21191630.742                    21191637.625
 127138017.540 6  99068610.90543  24193558.164                    24193566.168
 11  8 10 21 20 30.0000000  0  9G17G26G04G27G24G08G07G28G11
 109209288.633 8  85098227.509 7  20781824.453                    20781831.945
 125155220.163 7  97523601.35243  23816253.352                    23816264.535
 118105318.108 7  92030246.55244  22474684.258                    22474694.859
 129287276.542 6 100743381.04243  24602549.602                    24602560.199
 121062408.023 7  94334417.58744  23037394.352                    23037403.699
 112013348.150 8  87283155.82945  21315434.383                    21315443.742
 124315104.334 6  96868921.978 6  23656393.664                    23656405.348
 111352706.932 8  86768382.84746  21189711.375                    21189718.164
 127240958.534 7  99148824.65643  24213147.039                    24213155.398
 11  8 10 21 21  0.0000000  0  9G17G26G04G27G24G08G07G28G11
 109203854.415 8  85093993.070 7  20780790.344                    20780798.012
 125223311.964 7  97576659.77044  23829210.703                    23829222.398
 117999728.301 7  91947968.93044  22454590.070                    22454601.582
 129199443.194 7 100674939.54744  24585836.156                    24585846.238
 121139051.089 7  94394139.42244  23051978.914                    23051988.578
 112098960.516 8  87349866.72345  21331725.820                    21331735.051
 124426319.058 6  96955582.552 6  23677556.750                    23677568.766
 111342773.113 8  86760642.22446  21187821.125                    21187827.898
 127344079.177 7  99229178.36443  24232769.930                    24232777.977
 11  8 10 21 21 30.0000000  0  9G17G26G04G27G24G08G07G28G11
 109198708.429 8  85089983.225 7  20779810.891                    20779818.555
 125291658.127 7  97629916.41544  23842216.930                    23842228.535
 117894355.409 7  91865860.31144  22434538.758                    22434549.520
 129111781.372 6 100606631.70043  24569154.164                    24569164.117
 121216093.111 7  94454172.13044  23066639.805                    23066649.078
 112185017.927 8  87416924.40245  21348102.031                    21348111.324
 124537686.799 7  97042362.361 6  23698750.250                    23698762.391
 111332992.706 8  86753021.14346  21185959.758                    21185967.074
 127447376.659 6  99309669.89343  24252426.758                    24252434.809
 11  8 10 21 22  0.0000000  0  9G17G26G04G27G24G08G07G28G11
 109193849.535 8  85086197.094 7  20778886.359                    20778894.219
 125360255.236 7  97683368.56044  23855270.711                    23855282.398
 117789202.409 7  91783923.04744  22414528.977                    22414539.816
 129024293.355 6 100538459.27143  24552505.508                    24552515.672
 121293531.232 7  94514513.49944  23081375.852                    23081385.219
 112271517.998 7  87484327.00545  21364562.633                    21364571.605
 124649204.656 7  97129259.143 6  23719971.188                    23719983.402
 111323366.529 8  86745520.22646  21184128.234                    21184135.121
 127550848.283 6  99390297.08443  24272117.641                    24272126.094
 11  8 10 21 22 30.0000000  0  9G17G26G04G27G24G08G07G28G11
 109189276.342 8  85082633.589 8  20778016.242                    20778023.918
 125429099.938 7  97737013.66144  23868371.352                    23868383.090
 117684271.945 7  91702159.19545  22394560.969                    22394571.750
 128936981.437 6 100470424.09744  24535891.047                    24535900.762
 121371363.170 7  94575161.74344  23096186.859                    23096196.676
 112358458.600 8  87552072.88445  21381106.703                    21381115.563
 124760870.178 6  97216270.975 6  23741220.453                    23741232.512
 111313895.926 8  86738140.54946  21182326.156                    21182333.059
 127654491.781 6  99471058.21543  24291839.539                    24291848.672
 11  8 10 21 23  0.0000000  0  9G17G26G04G27G24G08G07G28G11
 109184988.052 8  85079292.088 7  20777200.164                    20777208.000
 125498189.374 7  97790849.47044  23881518.719                    23881530.219
 117579567.319 7  91620571.31345  22374636.445                    22374647.082
 128849848.168 6 100402528.11743  24519309.875                    24519319.395
 121449586.627 7  94636115.06044  23111072.102                    23111081.527
 112445837.780 8  87620160.50545  21397734.039                    21397743.500
 124872681.080 7  97303396.111 6  23762498.078                    23762509.723
 111304582.731 8  86730883.52446  21180553.883                    21180560.668
 127758304.537 7  99551951.19043  24311595.281                    24311603.680
 11  8 10 21 23 30.0000000  0  9G17G26G04G27G24G08G07G28G11
 109180983.241 8  85076171.474 7  20776438.180                    20776445.828
 125567520.231 7  97844873.36344  23894712.484                    23894723.965
 117475091.164 7  91539161.44545  22354755.297                    22354765.824
 128762895.566 6 100334772.95643  24502762.617                    24502772.828
 121528198.923 7  94697371.40144  23126031.461                    23126040.867
 112533652.603 7  87688587.59545  21414445.180                    21414454.266
 124984634.650 7  97390632.402 6  23783802.414                    23783814.051
 111295428.041 8  86723750.00546  21178811.461                    21178818.191
 127862283.942 7  99632974.08543  24331382.141                    24331389.902
 11  8 10 21 24  0.0000000  0  9G17G26G04G27G24G08G07G28G11
 109177260.654 8  85073270.785 7  20775729.563                    20775737.516
 125637088.994 7  97899082.63743  23907950.523                    23907962.359
 117370846.264 7  91457931.79845  22334917.953                    22334928.512
 128676125.926 6 100267160.32043  24486251.422                    24486261.047
 121607197.738 7  94758928.87844  23141064.352                    23141073.703
 112621900.560 7  87757352.18145  21431238.188                    21431247.207
 125096728.020 6  97477977.638 6  23805133.000                    23805145.449
 111286432.952 8  86716740.85346  21177099.891                    21177106.973
 127966427.351 6  99714124.77843  24351199.664                    24351208.035
